[[{"header":{"parameterUnit":"m.s-1","parameterCategory":1,"la1":30.6,"la2":28.766,"lo1":-90.7593,"lo2":-88.6598,"dy":0.0162,"dx":0.0183,"nx":116,"ny":114,"refTime":"2023-05-04T12:00:00:Z","depth":0,"parameterNumber":2,"parameterNumberName":"U-component_of_WINDS"},"data":[0.0,0.0,0.0,0.0,0.0,0.0,0.0,0.0,0.0,0.0,0.0,0.0,0.0,0.0,0.0,0.0,0.0,0.0,0.0,0.0,0.0,0.0,0.0,0.0,0.0,0.0,0.0,0.0,0.0,0.0,0.0,0.0,0.0,0.0,0.0,0.0,0.0,0.0,0.0,0.0,0.0,0.0,0.0,0.0,0.0,0.0,0.0,0.0,0.0,0.0,0.0,0.0,0.0,0.0,0.0,0.0,0.0,0.0,0.0,0.0,0.0,0.0,0.0,0.0,0.0,0.0,0.0,0.0,0.0,0.0,0.0,0.0,0.0,0.0,0.0,0.0,0.0,0.0,0.0,0.0,0.0,0.0,0.0,0.0,0.0,0.0,0.0,0.0,0.0,0.0,0.0,0.0,0.0,0.0,0.0,0.0,0.0,0.0,0.0,0.0,0.0,0.0,0.0,0.0,0.0,0.0,0.0,0.0,0.0,0.0,0.0,0.0,0.0,0.0,0.0,0.0,0.0,0.0,0.0,0.0,0.0,0.0,0.0,0.0,0.0,0.0,0.0,0.0,0.0,0.0,0.0,0.0,0.0,0.0,0.0,0.0,0.0,0.0,0.0,0.0,0.0,0.0,0.0,0.0,0.0,0.0,0.0,0.0,0.0,0.0,0.0,0.0,0.0,0.0,0.0,0.0,0.0,0.0,0.0,0.0,0.0,0.0,0.0,0.0,0.0,0.0,0.0,0.0,0.0,0.0,0.0,0.0,0.0,0.0,0.0,0.0,0.0,0.0,0.0,0.0,0.0,0.0,0.0,0.0,0.0,0.0,0.0,0.0,0.0,0.0,0.0,0.0,0.0,0.0,0.0,0.0,0.0,0.0,0.0,0.0,0.0,0.0,0.0,0.0,0.0,0.0,0.0,0.0,0.0,0.0,0.0,0.0,0.0,0.0,0.0,0.0,0.0,0.0,0.0,0.0,0.0,0.0,0.0,0.0,0.0,0.0,0.0,0.0,0.0,0.0,0.0,0.0,0.0,0.0,0.0,0.0,0.0,0.0,0.0,0.0,0.0,0.0,0.0,0.0,0.0,0.0,0.0,0.0,0.0,0.0,0.0,0.0,0.0,0.0,0.0,0.0,0.0,0.0,0.0,0.0,0.0,0.0,0.0,0.0,0.0,0.0,0.0,0.0,0.0,0.0,0.0,0.0,0.0,0.0,0.0,0.0,0.0,0.0,0.0,0.0,0.0,0.0,0.0,0.0,0.0,0.0,0.0,0.0,0.0,0.0,0.0,0.0,0.0,0.0,0.0,0.0,0.0,0.0,0.0,0.0,0.0,0.0,0.0,0.0,0.0,0.0,0.0,0.0,0.0,0.0,0.0,0.0,0.0,0.0,0.0,0.0,0.0,0.0,0.0,0.0,0.0,0.0,0.0,0.0,0.0,0.0,0.0,0.0,0.0,0.0,0.0,0.0,0.0,0.0,0.0,0.0,0.0,0.0,0.0,0.0,0.0,0.0,0.0,0.0,0.0,0.0,0.0,0.0,0.0,0.0,0.0,0.0,0.0,0.0,0.0,0.0,0.0,0.0,0.0,0.0,0.0,0.0,0.0,0.0,0.0,0.0,0.0,0.0,0.0,0.0,0.0,0.0,0.0,0.0,0.0,0.0,0.0,0.0,0.0,0.0,0.0,0.0,0.0,0.0,0.0,0.0,0.0,0.0,0.0,0.0,0.0,0.0,0.0,0.0,0.0,0.0,0.0,0.0,0.0,0.0,0.0,0.0,0.0,0.0,0.0,0.0,0.0,0.0,0.0,0.0,0.0,0.0,0.0,0.0,0.0,0.0,0.0,0.0,0.0,0.0,0.0,0.0,0.0,0.0,0.0,0.0,0.0,0.0,0.0,0.0,0.0,0.0,0.0,0.0,0.0,0.0,0.0,0.0,0.0,0.0,0.0,0.0,0.0,0.0,0.0,0.0,0.0,0.0,0.0,0.0,0.0,0.0,0.0,0.0,0.0,0.0,0.0,0.0,0.0,0.0,0.0,0.0,0.0,0.0,0.0,0.0,0.0,0.0,0.0,0.0,0.0,0.0,0.0,0.0,0.0,0.0,0.0,0.0,0.0,0.0,0.0,0.0,0.0,0.0,0.0,0.0,0.0,0.0,0.0,0.0,0.0,0.0,0.0,0.0,0.0,0.0,0.0,0.0,0.0,0.0,0.0,0.0,0.0,0.0,0.0,0.0,0.0,0.0,0.0,0.0,0.0,0.0,0.0,0.0,0.0,0.0,0.0,0.0,0.0,0.0,0.0,0.0,0.0,0.0,0.0,0.0,0.0,0.0,0.0,0.0,0.0,0.0,0.0,0.0,0.0,0.0,0.0,0.0,0.0,0.0,0.0,0.0,0.0,0.0,0.0,0.0,0.0,0.0,0.0,0.0,0.0,0.0,0.0,0.0,0.0,0.0,0.0,0.0,0.0,0.0,0.0,0.0,0.0,0.0,0.0,0.0,0.0,0.0,0.0,0.0,0.0,0.0,0.0,0.0,0.0,0.0,0.0,0.0,0.0,0.0,0.0,0.0,0.0,0.0,0.0,0.0,0.0,0.0,0.0,0.0,0.0,0.0,0.0,0.0,0.0,0.0,0.0,0.0,0.0,0.0,0.0,0.0,0.0,0.0,0.0,0.0,0.0,0.0,0.0,0.0,0.0,0.0,0.0,0.0,0.0,0.0,0.0,0.0,0.0,0.0,0.0,0.0,0.0,0.0,0.0,0.0,0.0,0.0,0.0,0.0,0.0,0.0,0.0,0.0,0.0,0.0,0.0,0.0,0.0,0.0,0.0,0.0,0.0,0.0,0.0,0.0,0.0,0.0,0.0,0.0,0.0,0.0,0.0,0.0,0.0,0.0,0.0,0.0,0.0,0.0,0.0,0.0,0.0,0.0,0.0,0.0,0.0,0.0,0.0,0.0,0.0,0.0,0.0,0.0,0.0,0.0,0.0,0.0,0.0,0.0,0.0,0.0,0.0,0.0,0.0,0.0,0.0,0.0,0.0,0.0,0.0,0.0,0.0,0.0,0.0,0.0,0.0,0.0,0.0,0.0,0.0,0.0,0.0,0.0,0.0,0.0,0.0,0.0,0.0,0.0,0.0,0.0,0.0,0.0,0.0,0.0,0.0,0.0,0.0,0.0,0.0,0.0,0.0,0.0,0.0,0.0,0.0,0.0,0.0,0.0,0.0,0.0,0.0,0.0,0.0,0.0,0.0,0.0,0.0,0.0,0.0,0.0,0.0,0.0,0.0,0.0,0.0,0.0,0.0,0.0,0.0,0.0,0.0,0.0,0.0,0.0,0.0,0.0,0.0,0.0,0.0,0.0,0.0,0.0,0.0,0.0,0.0,0.0,0.0,0.0,0.0,0.0,0.0,0.0,0.0,0.0,0.0,0.0,0.0,0.0,0.0,0.0,0.0,0.0,0.0,0.0,0.0,0.0,0.0,0.0,0.0,0.0,0.0,0.0,0.0,0.0,0.0,0.0,0.0,0.0,0.0,0.0,0.0,0.0,0.0,0.0,0.0,0.0,0.0,0.0,0.0,0.0,0.0,0.0,0.0,0.0,0.0,0.0,0.0,0.0,0.0,0.0,0.0,0.0,0.0,0.0,0.0,0.0,0.0,0.0,0.0,0.0,0.0,0.0,0.0,0.0,0.0,0.0,0.0,0.0,0.0,0.0,0.0,0.0,0.0,0.0,0.0,0.0,0.0,0.0,0.0,0.0,0.0,0.0,0.0,0.0,0.0,0.0,0.0,0.0,0.0,0.0,0.0,0.0,0.0,0.0,0.0,0.0,0.0,0.0,0.0,0.0,0.0,0.0,0.0,0.0,0.0,0.0,0.0,0.0,0.0,0.0,0.0,0.0,0.0,0.0,0.0,0.0,0.0,0.0,0.0,0.0,0.0,0.0,0.0,0.0,0.0,0.0,0.0,0.0,0.0,0.0,0.0,0.0,0.0,0.0,0.0,0.0,0.0,0.0,0.0,0.0,0.0,0.0,0.0,0.0,0.0,0.0,0.0,0.0,0.0,0.0,0.0,0.0,0.0,0.0,0.0,0.0,0.0,0.0,0.0,0.0,0.0,0.0,0.0,0.0,0.0,0.0,0.0,0.0,0.0,0.0,0.0,0.0,0.0,0.0,0.0,0.0,0.0,0.0,0.0,0.0,0.0,0.0,0.0,0.0,0.0,0.0,0.0,0.0,0.0,0.0,0.0,0.0,0.0,0.0,0.0,0.0,0.0,0.0,0.0,0.0,0.0,0.0,0.0,0.0,0.0,0.0,0.0,0.0,0.0,0.0,0.0,0.0,0.0,0.0,0.0,0.0,0.0,0.0,0.0,0.0,0.0,0.0,0.0,0.0,0.0,0.0,0.0,0.0,0.0,0.0,0.0,0.0,0.0,0.0,0.0,0.0,0.0,0.0,0.0,0.0,0.0,0.0,0.0,0.0,0.0,0.0,0.0,0.0,0.0,0.0,0.0,0.0,0.0,0.0,0.0,0.0,0.0,0.0,0.0,0.0,0.0,0.0,0.0,0.0,0.0,0.0,0.0,0.0,0.0,0.0,0.0,0.0,0.0,0.0,0.0,0.0,0.0,0.0,0.0,0.0,0.0,0.0,0.0,0.0,0.0,0.0,0.0,0.0,0.0,0.0,0.0,0.0,0.0,0.0,0.0,0.0,0.0,0.0,0.0,0.0,0.0,0.0,0.0,0.0,0.0,0.0,0.0,0.0,0.0,0.0,0.0,0.0,0.0,0.0,0.0,0.0,0.0,0.0,0.0,0.0,0.0,0.0,0.0,0.0,0.0,0.0,0.0,0.0,0.0,0.0,0.0,0.0,0.0,0.0,0.0,0.0,0.0,0.0,0.0,0.0,0.0,0.0,0.0,0.0,0.0,0.0,0.0,0.0,0.0,0.0,0.0,0.0,0.0,0.0,0.0,0.0,0.0,0.0,0.0,0.0,0.0,0.0,0.0,0.0,0.0,0.0,0.0,0.0,0.0,0.0,0.0,0.0,0.0,0.0,0.0,0.0,0.0,0.0,0.0,0.0,0.0,0.0,0.0,0.0,0.0,0.0,0.0,0.0,0.0,0.0,0.0,0.0,0.0,0.0,0.0,0.0,0.0,0.0,0.0,0.0,0.0,0.0,0.0,0.0,0.0,0.0,0.0,0.0,0.0,0.0,0.0,0.0,0.0,0.0,0.0,0.0,0.0,0.0,0.0,0.0,0.0,0.0,0.0,0.0,0.0,0.0,0.0,0.0,0.0,0.0,0.0,0.0,0.0,0.0,0.0,0.0,0.0,0.0,0.0,0.0,0.0,0.0,0.0,0.0,0.0,0.0,0.0,0.0,0.0,0.0,0.0,0.0,0.0,0.0,0.0,0.0,0.0,0.0,0.0,0.0,0.0,0.0,0.0,0.0,0.0,0.0,0.0,0.0,0.0,0.0,0.0,0.0,0.0,0.0,0.0,0.0,0.0,0.0,0.0,0.0,0.0,0.0,0.0,0.0,0.0,0.0,0.0,0.0,0.0,0.0,0.0,0.0,0.0,0.0,0.0,0.0,0.0,0.0,0.0,0.0,0.0,0.0,0.0,0.0,0.0,0.0,0.0,0.0,0.0,0.0,0.0,0.0,0.0,0.0,0.0,0.0,0.0,0.0,0.0,0.0,0.0,0.0,0.0,0.0,0.0,0.0,0.0,0.0,0.0,0.0,0.0,0.0,0.0,0.0,0.0,0.0,0.0,0.0,0.0,0.0,0.0,0.0,0.0,0.0,0.0,0.0,0.0,0.0,0.0,0.0,0.0,0.0,0.0,0.0,0.0,0.0,0.0,0.0,0.0,0.0,0.0,0.0,0.0,0.0,0.0,0.0,0.0,0.0,0.0,0.0,0.0,0.0,0.0,0.0,0.0,0.0,0.0,0.0,0.0,0.0,0.0,0.0,0.0,0.0,0.0,0.0,0.0,0.0,0.0,0.0,0.0,0.0,0.0,0.0,0.0,0.0,0.0,0.0,0.0,0.0,0.0,0.0,0.0,0.0,0.0,0.0,0.0,0.0,-2.8492,0.0,0.0,0.0,0.0,0.0,0.0,0.0,0.0,0.0,0.0,0.0,0.0,0.0,0.0,0.0,0.0,0.0,0.0,0.0,0.0,0.0,0.0,0.0,0.0,0.0,0.0,0.0,0.0,0.0,0.0,0.0,0.0,0.0,0.0,0.0,0.0,0.0,0.0,0.0,-3.0488,-3.0469,-3.0398,-3.0436,-3.0439,-3.0404,0.0,0.0,0.0,0.0,0.0,0.0,0.0,0.0,0.0,0.0,0.0,0.0,0.0,0.0,0.0,0.0,0.0,0.0,0.0,0.0,0.0,0.0,0.0,0.0,0.0,0.0,0.0,0.0,0.0,0.0,0.0,0.0,0.0,0.0,0.0,0.0,0.0,0.0,0.0,0.0,0.0,0.0,0.0,0.0,0.0,0.0,0.0,0.0,0.0,0.0,0.0,0.0,0.0,0.0,0.0,0.0,0.0,0.0,0.0,0.0,0.0,0.0,0.0,0.0,0.0,0.0,0.0,0.0,0.0,0.0,0.0,-2.8169,0.0,0.0,0.0,0.0,0.0,0.0,0.0,0.0,0.0,0.0,0.0,0.0,0.0,0.0,0.0,0.0,0.0,0.0,0.0,0.0,0.0,0.0,0.0,0.0,-3.0595,-3.0583,-3.0525,-3.0471,0.0,0.0,0.0,0.0,0.0,0.0,0.0,-3.0458,-3.0466,-3.0404,-3.0461,-3.0453,-3.0406,-3.0396,-3.0404,-3.0404,-3.0404,0.0,0.0,0.0,0.0,0.0,0.0,0.0,0.0,0.0,0.0,0.0,0.0,0.0,0.0,0.0,0.0,0.0,0.0,0.0,0.0,0.0,0.0,0.0,0.0,0.0,0.0,0.0,0.0,0.0,0.0,0.0,0.0,0.0,0.0,0.0,0.0,0.0,0.0,0.0,0.0,0.0,0.0,0.0,0.0,0.0,0.0,0.0,0.0,0.0,0.0,0.0,0.0,0.0,0.0,0.0,0.0,0.0,0.0,0.0,0.0,0.0,0.0,0.0,-2.8541,-2.8613,-2.8595,-2.854,-2.8667,-2.8894,-2.8383,-2.8006,-2.7771,-2.7789,0.0,0.0,0.0,0.0,0.0,0.0,0.0,0.0,0.0,0.0,0.0,0.0,0.0,0.0,0.0,0.0,0.0,0.0,0.0,0.0,0.0,-3.0609,-3.0575,-3.0525,-3.0505,-3.0474,-3.0398,0.0,0.0,0.0,0.0,0.0,-3.039,-3.0406,-3.0406,-3.0404,-3.041,-3.0416,-3.039,-3.0404,-3.0404,-3.0404,-3.0404,-3.0404,-3.0404,0.0,0.0,0.0,0.0,0.0,0.0,0.0,0.0,0.0,0.0,0.0,0.0,0.0,0.0,0.0,0.0,0.0,0.0,0.0,0.0,0.0,0.0,0.0,0.0,0.0,0.0,0.0,0.0,0.0,0.0,0.0,0.0,0.0,0.0,0.0,0.0,0.0,0.0,0.0,0.0,0.0,-2.87,-2.8637,0.0,0.0,0.0,0.0,0.0,0.0,0.0,0.0,0.0,0.0,0.0,0.0,0.0,-2.86,-2.86,-2.9282,-2.9613,-2.9587,-3.0292,-3.0618,-3.0604,-3.0317,-3.0198,-3.0245,-2.9978,0.0,-2.8034,-2.7815,0.0,0.0,0.0,0.0,0.0,0.0,0.0,0.0,0.0,0.0,0.0,0.0,0.0,0.0,0.0,0.0,0.0,0.0,0.0,0.0,0.0,-3.0563,-3.0516,-3.046,-3.0444,-3.0422,-3.0408,-3.0408,0.0,0.0,0.0,-3.0396,-3.0404,-3.0396,-3.0396,-3.0404,-3.0404,-3.0404,-3.0404,-3.0404,-3.0404,-3.0404,-3.0404,-3.0404,-3.0404,-3.0404,0.0,0.0,0.0,0.0,0.0,0.0,0.0,0.0,0.0,0.0,0.0,0.0,0.0,0.0,0.0,0.0,0.0,0.0,0.0,0.0,0.0,0.0,0.0,0.0,0.0,0.0,0.0,0.0,0.0,0.0,0.0,0.0,0.0,0.0,0.0,0.0,0.0,0.0,0.0,-2.8803,-2.8687,-2.86,-2.8637,-2.8662,0.0,0.0,0.0,0.0,0.0,0.0,0.0,0.0,0.0,-2.9264,-2.9264,-2.95,-2.9934,-3.031,-3.0374,-3.019,-3.0549,-3.0711,-3.0711,-3.0371,-3.031,-3.0466,-2.9967,-2.9438,-2.8899,-2.8496,-2.829,-2.8206,0.0,0.0,0.0,0.0,-2.8192,-2.8055,0.0,0.0,0.0,0.0,0.0,0.0,0.0,0.0,0.0,0.0,0.0,0.0,-3.0571,-3.0511,-3.046,-3.0398,-3.0406,-3.0394,-3.0404,-3.0404,0.0,0.0,-3.0404,-3.0404,-3.0404,-3.0404,-3.0404,-3.0404,-3.0173,-3.0077,-3.0058,-2.9865,-2.975,-2.9769,-2.9981,-3.0192,-3.0404,-3.0404,-3.0404,-3.0404,0.0,0.0,0.0,0.0,0.0,0.0,0.0,0.0,0.0,0.0,0.0,0.0,0.0,0.0,0.0,0.0,0.0,0.0,0.0,0.0,0.0,0.0,0.0,0.0,0.0,0.0,0.0,0.0,0.0,0.0,0.0,0.0,0.0,0.0,0.0,0.0,0.0,-2.8803,-2.87,-2.8612,-2.8662,-2.8682,0.0,0.0,0.0,0.0,0.0,0.0,-2.8971,-2.9165,-2.9533,-3.0092,-3.0124,-3.0518,-3.1334,-3.1547,-3.1631,-3.1592,-3.1807,-3.1915,-3.1915,-3.1655,-3.1673,-3.1876,-3.1258,-3.0816,-3.0446,-2.9321,-2.8787,-2.8649,-2.851,-2.8674,-2.8927,-2.8632,-2.8414,-2.8253,0.0,0.0,0.0,0.0,0.0,0.0,0.0,0.0,0.0,0.0,0.0,-3.0571,-3.0516,-3.0455,-3.0398,-3.0398,-3.0402,-3.0404,-3.0404,-3.0404,-3.0404,-3.0404,-3.0404,-3.0404,-3.0404,-3.0404,-3.0404,-3.0404,-2.9563,-2.9165,-2.9146,-2.8376,-2.803,-2.8068,-2.8819,-2.9621,-3.0404,-3.0404,-3.0404,-3.0404,-3.0404,0.0,0.0,0.0,0.0,0.0,0.0,0.0,0.0,0.0,0.0,0.0,0.0,0.0,0.0,0.0,0.0,0.0,0.0,0.0,0.0,0.0,0.0,0.0,0.0,0.0,0.0,0.0,0.0,0.0,0.0,0.0,0.0,0.0,0.0,0.0,0.0,0.0,0.0,-2.8612,-2.8662,0.0,0.0,0.0,0.0,-2.8785,-2.949,-2.9922,-2.994,-3.0539,-3.0908,-3.0944,-3.0993,-3.1433,-3.2219,-3.3053,-3.3828,-3.4594,-3.5359,-3.5709,-3.5709,-3.5693,-3.5693,-3.5712,-3.5415,-3.4423,-3.2816,-3.0161,-2.93,-2.9634,-2.9701,-2.9908,-3.0173,-2.9992,-2.9897,-2.9833,0.0,0.0,0.0,0.0,0.0,0.0,0.0,0.0,-3.0626,-3.0597,-3.0567,-3.0535,-3.05,-3.0439,-3.0406,-3.0402,-3.039,-3.0404,-3.0404,-3.0404,-3.0404,-3.0404,-3.0404,-3.0404,-3.0404,-2.9852,-2.9563,-2.9563,-2.9261,-2.939,-2.9948,-3.0217,-3.0352,-3.0352,-3.0641,-3.0314,-2.9602,-3.0154,-3.0404,-3.0404,-3.0404,-3.0404,0.0,0.0,0.0,0.0,0.0,0.0,0.0,0.0,0.0,0.0,0.0,0.0,0.0,0.0,0.0,0.0,0.0,0.0,0.0,0.0,0.0,0.0,0.0,0.0,0.0,0.0,0.0,0.0,0.0,0.0,0.0,0.0,0.0,0.0,0.0,0.0,0.0,-2.8687,-2.921,0.0,-2.9437,-3.0037,-3.0392,-3.0354,-3.0648,-3.0812,-3.0768,-3.154,-3.2188,-3.2661,-3.3199,-3.3868,-3.467,-3.4976,-3.5283,-3.5589,-3.5863,-3.5994,-3.5994,-3.5792,-3.5679,-3.5664,-3.5301,-3.4862,-3.4343,-3.3387,-3.184,-3.0139,-2.9985,-3.0002,-3.0098,-3.0036,-2.9857,-2.9659,0.0,0.0,0.0,0.0,0.0,0.0,0.0,0.0,-3.0593,-3.0564,-3.052,-3.0495,-3.0469,-3.0436,-3.0408,-3.0404,-3.0404,-3.0404,-3.0404,-3.0404,-3.0404,-3.0404,-3.0404,-3.0269,-2.9967,-2.9679,-2.9544,-2.9544,-2.9544,-2.9987,-3.0846,-3.1135,-3.125,-3.1269,-3.1564,-3.091,-2.9583,-3.0154,-3.0231,-2.9981,-3.0288,-3.0404,-3.0404,0.0,0.0,0.0,0.0,0.0,0.0,0.0,0.0,0.0,0.0,0.0,0.0,0.0,0.0,0.0,0.0,0.0,0.0,0.0,0.0,0.0,0.0,0.0,0.0,0.0,0.0,0.0,0.0,0.0,0.0,0.0,0.0,0.0,0.0,0.0,-2.9235,-2.9143,-2.9941,-3.0459,-3.0345,-3.0927,-3.138,-3.1629,-3.1929,-3.2203,-3.2451,-3.3218,-3.3899,-3.4389,-3.4947,-3.5652,-3.6474,-3.6489,-3.6632,-3.6906,-3.6906,-3.6906,-3.6891,-3.6687,-3.6574,-3.6558,-3.6157,-3.5895,-3.5732,-3.5578,-3.4152,-3.2014,-3.1825,-3.1744,-3.1727,-3.1445,-3.121,-3.0922,0.0,0.0,0.0,0.0,0.0,0.0,0.0,-3.0641,-3.0574,-3.052,-3.0495,-3.0474,-3.0417,-3.0402,-3.0404,-3.0404,-3.0404,-3.0404,-3.0404,-3.0404,-3.0404,-3.0404,-3.0365,-2.9987,-2.9165,-2.9948,-3.0365,-3.0404,-3.0423,-3.0885,-3.1718,-3.0904,-3.0519,-3.0558,-3.1404,-3.1269,-3.0442,-3.0462,-2.9967,-2.9204,-3.0019,-3.0365,-3.0365,0.0,0.0,0.0,0.0,0.0,0.0,0.0,0.0,0.0,0.0,0.0,0.0,0.0,0.0,0.0,0.0,0.0,0.0,0.0,0.0,0.0,0.0,0.0,0.0,0.0,0.0,0.0,0.0,0.0,0.0,0.0,0.0,0.0,-2.8992,-2.9649,-3.0198,-3.0093,-3.0843,-3.1362,-3.1329,-3.1404,-3.179,-3.2572,-3.3346,-3.4133,-3.4902,-3.5634,-3.6045,-3.6045,-3.6138,-3.6585,-3.7424,-3.7518,-3.7933,-3.8707,-3.8707,-3.8707,-3.8707,-3.8707,-3.8707,-3.8692,-3.8285,-3.7718,-3.7011,-3.6625,-3.6022,-3.5305,-3.5218,-3.52,-3.5111,-3.4327,-3.4026,-3.3762,0.0,0.0,0.0,0.0,0.0,0.0,0.0,-3.0646,-3.0591,-3.0511,-3.0495,-3.0474,-3.0417,-3.0402,-3.0404,-3.0404,-3.0404,-3.0404,-3.0404,-3.0404,-3.0404,-3.0404,-2.9794,-2.964,-3.0019,-2.966,-2.9775,-3.0404,-3.1019,-3.1756,-3.2583,-3.2968,-3.316,-3.316,-3.341,-3.2699,-3.1385,-3.1968,-3.1371,-3.0,-2.9621,-2.9467,-2.9525,0.0,0.0,0.0,0.0,0.0,0.0,0.0,0.0,0.0,0.0,0.0,0.0,0.0,0.0,0.0,0.0,0.0,0.0,0.0,0.0,0.0,0.0,0.0,0.0,0.0,0.0,0.0,0.0,0.0,0.0,0.0,0.0,-3.0147,-2.985,-3.0497,-3.1186,-3.1746,-3.2585,-3.3331,-3.3899,-3.4541,-3.5009,-3.5243,-3.5449,-3.5687,-3.5889,-3.6663,-3.7103,-3.7103,-3.7671,-3.8108,-3.8328,-3.8362,-3.8487,-3.8707,-3.8707,-3.8707,-3.8707,-3.8707,-3.8707,-3.8692,-3.8596,-3.8421,-3.8235,-3.8123,-3.7945,-3.7569,-3.5867,-3.52,-3.5182,-3.4951,-3.4727,-3.4375,0.0,0.0,0.0,0.0,0.0,0.0,0.0,-3.0642,-3.0576,-3.0501,-3.049,-3.0469,-3.0419,-3.0396,-3.0404,-3.0404,-3.0404,-3.0404,-3.0404,-3.0404,-3.0231,-2.9871,-3.0063,-3.0083,-2.9871,-3.039,-3.0948,-3.1442,-3.2314,-3.3179,-3.4007,-3.4507,-3.4737,-3.4737,-3.4737,-3.4007,-3.2756,-3.2852,-3.2141,-3.0904,-3.039,-2.9761,-2.9165,-2.966,-2.9852,-2.991,-3.0269,-3.0404,-3.0398,-3.0305,0.0,0.0,0.0,0.0,0.0,0.0,0.0,0.0,0.0,0.0,0.0,0.0,0.0,0.0,0.0,0.0,0.0,0.0,0.0,0.0,0.0,0.0,0.0,0.0,-3.1109,-3.1715,-3.1715,-3.208,-3.2653,-3.346,-3.4312,-3.5023,-3.5508,-3.5995,-3.6431,-3.6795,-3.6813,-3.7107,-3.7771,-3.8264,-3.8667,-3.9001,-3.946,-3.9701,-3.9701,-3.9701,-3.9701,-3.9701,-3.9701,-3.9701,-3.9698,-3.9368,-3.9203,-3.9184,-3.8854,-3.8707,-3.8707,-3.8707,-3.8707,0.0,0.0,0.0,0.0,0.0,-3.5723,-3.5065,0.0,0.0,0.0,0.0,0.0,0.0,0.0,-3.0647,-3.0583,-3.0505,-3.0504,-3.0477,-3.041,-3.0404,-3.0404,-3.0404,-3.0404,-3.0404,-3.0404,-3.0308,-2.9948,-2.928,-3.0621,-3.0775,-2.9415,-3.1698,-3.2949,-3.3045,-3.391,-3.4737,-3.55,-3.55,-3.55,-3.55,-3.55,-3.5064,-3.4302,-3.3526,-3.2718,-3.1968,-3.1872,-3.0794,-2.9242,-2.9242,-2.9242,-2.9338,-3.0,-3.0327,-3.0367,-3.0176,0.0,0.0,0.0,0.0,0.0,0.0,0.0,0.0,0.0,0.0,0.0,0.0,0.0,0.0,0.0,0.0,0.0,0.0,0.0,0.0,0.0,0.0,0.0,0.0,-3.2394,-3.3899,-3.4174,-3.4211,-3.4486,-3.5206,-3.5973,-3.6468,-3.656,-3.6652,-3.7,-3.7713,-3.786,-3.8539,-3.9955,0.0,0.0,0.0,0.0,-4.1095,-4.1095,-4.1095,-4.1095,-4.1095,-4.1095,-4.1095,-4.1077,-4.0359,-4.0029,-3.9992,-3.9276,-3.8927,-3.8836,-3.8836,-3.8781,-3.8707,-3.8707,-3.8707,-3.86,-3.7851,-3.6854,-3.5854,0.0,0.0,0.0,0.0,0.0,0.0,0.0,-3.0682,-3.0643,-3.0515,-3.0504,-3.0477,-3.041,-3.0404,-3.0404,-3.0404,-3.0404,-3.0404,-3.0404,-2.9737,-2.9583,-3.0135,-2.9794,-3.0102,-3.1179,-3.2314,-3.3237,-3.3955,-3.4814,-3.5327,-3.55,-3.55,-3.55,-3.55,-3.55,-3.5404,-3.5231,-3.5077,-3.4507,-3.3667,-3.2949,-3.166,-3.0154,-3.0154,-3.0154,-3.0077,-2.9544,-2.9794,-3.0367,-3.0176,-3.0109,-3.008,-2.9931,-2.9918,0.0,0.0,0.0,0.0,0.0,0.0,0.0,0.0,0.0,0.0,0.0,0.0,0.0,0.0,0.0,0.0,0.0,0.0,0.0,-3.2902,-3.3495,-3.4504,-3.6501,-3.6776,-3.685,-3.7015,-3.718,-3.7529,-3.8175,-3.8817,-3.9258,-3.942,-4.0047,-4.0543,-4.0838,-4.0873,-4.093,-4.1095,-4.1095,-4.1095,-4.1095,-4.1095,-4.1095,-4.1095,0.0,0.0,-4.1095,-4.093,-4.0873,-4.0857,-4.0691,-4.0267,-3.9662,-3.9662,-3.9294,-3.8707,-3.8707,-3.8707,-3.864,-3.8154,-3.7623,-3.7095,0.0,0.0,0.0,0.0,0.0,0.0,0.0,-3.0724,-3.067,-3.0567,-3.0515,-3.0477,-3.041,-3.0404,-3.0404,-3.0404,-3.0404,-3.0404,-3.0404,-2.9583,-2.9486,-3.0365,-3.041,-3.1006,-3.2275,-3.3545,-3.441,-3.4853,-3.5288,-3.55,-3.55,-3.55,-3.55,-3.55,-3.55,-3.55,-3.55,-3.55,-3.525,-3.4814,-3.4391,-3.3449,-3.2102,-3.041,-2.9756,-2.9698,-2.9261,-2.9371,-2.9784,-2.994,-3.0,-2.9954,-2.9707,-2.9699,-2.9775,0.0,0.0,0.0,0.0,0.0,0.0,0.0,0.0,0.0,0.0,0.0,0.0,0.0,0.0,-3.1068,0.0,0.0,-3.2999,-3.4197,-3.511,-3.6079,-3.7327,-3.786,-3.8102,-3.8102,-3.8102,-3.8414,-3.9221,-3.9662,-4.0065,-4.0469,-4.0857,-4.1279,-4.168,-4.1699,-4.1901,-4.2286,-4.2304,-4.2304,-4.2304,-4.2304,-4.2304,-4.2304,-4.2304,-4.2304,-4.2286,-4.1882,-4.1699,-4.168,-4.126,-4.0873,-4.0469,-4.0065,-3.9662,-3.9258,-3.8854,-3.8707,-3.8692,-3.8483,-3.8153,-3.7756,0.0,0.0,0.0,0.0,0.0,0.0,0.0,-3.0735,-3.0681,-3.0611,-3.0535,-3.0469,-3.0402,-3.0396,-3.0333,-3.0154,-3.0308,-3.0269,-2.9942,-2.9256,-2.9256,-3.0115,-3.0981,-3.191,-3.2872,-3.4615,-3.55,-3.55,-3.55,-3.55,-3.55,-3.55,-3.55,-3.55,-3.55,-3.55,-3.55,-3.55,-3.55,-3.55,-3.55,-3.5084,-3.4083,-3.0641,-2.9357,-2.9319,-2.8973,-2.8973,-2.9183,-2.9718,-2.9902,-2.9836,-2.9501,-2.9482,-2.9644,-2.9845,-2.9988,0.0,0.0,0.0,0.0,0.0,0.0,0.0,0.0,0.0,-3.0862,-3.0507,-3.1201,-3.2063,-3.2711,-3.3642,-3.4559,-3.5353,-3.6615,-3.7547,-3.7713,-3.8285,-3.8707,-3.8707,-3.8836,-3.9184,-3.9827,-4.0175,-4.0634,-4.1279,-4.148,-4.1864,-4.2506,-4.2525,-4.2818,-4.3478,-4.3515,-4.3515,-4.3515,-4.3515,-4.3515,-4.3515,-4.3515,-4.3515,-4.3478,-4.2818,-4.2525,-4.2488,-4.168,-4.1334,-4.126,-4.0469,-4.012,-4.0065,-3.9423,-3.9166,-3.9129,-3.8817,-3.8451,-3.8101,0.0,0.0,0.0,0.0,0.0,0.0,0.0,0.0,-3.0684,-3.061,-3.0539,-3.0471,-3.0417,-3.0411,-3.0092,-2.9319,-2.9948,-2.9769,-2.8275,-2.8088,-2.8396,-2.9204,-3.0083,-3.1269,-3.2872,-3.4615,-3.55,-3.55,-3.55,-3.55,-3.55,-3.55,-3.55,-3.55,-3.55,-3.55,-3.55,-3.55,-3.55,-3.55,-3.55,-3.5442,-3.4981,-3.1558,-3.025,-3.0058,-2.8563,-2.8492,-2.9183,-2.9718,-2.9902,-2.9836,-2.9501,-2.9482,-2.9644,-2.9845,0.0,-3.0136,-3.0343,-3.0059,-2.9875,-3.0547,-3.0569,-3.0564,0.0,0.0,-3.154,-3.1317,-3.2467,-3.355,-3.3642,-3.4963,-3.6266,-3.7088,-3.7382,-3.7749,-3.8469,-3.8652,-3.8707,-3.8707,-3.9331,-3.979,-3.9882,-4.1185,-4.2066,-4.2158,-4.2818,-4.3276,-4.3368,-4.3369,-4.3423,-4.3515,-4.3515,-4.3515,-4.3515,-4.3515,-4.3515,-4.3515,-4.3515,-4.3515,-4.3515,-4.3423,-4.3369,-4.3331,-4.2525,-4.2176,-4.2103,-4.1297,-4.0967,-4.0948,-4.0857,-4.082,-4.0655,-3.9239,-3.8451,-3.8101,0.0,0.0,0.0,0.0,0.0,0.0,0.0,0.0,0.0,-3.0678,-3.0603,-3.053,-3.0474,-3.0004,-2.9347,-2.8472,-2.8736,-2.864,-2.7953,-2.7428,-2.7736,-2.905,-2.9006,-3.0198,-3.2833,-3.3603,-3.4481,-3.55,-3.55,-3.55,-3.55,-3.55,-3.55,-3.55,-3.55,-3.55,-3.55,-3.55,-3.55,-3.5462,-3.4949,-3.4449,-3.368,-3.0756,-2.9352,-2.8794,-2.7582,-2.7351,0.0,-2.879,-2.9139,-2.9193,-2.9439,-2.9561,-2.9644,-2.9939,-3.0063,0.0,-3.057,-3.0547,0.0,0.0,-3.125,-3.1262,-3.1522,-3.2364,-3.305,-3.2831,-3.41,-3.5404,-3.5877,-3.6538,-3.7272,0.0,-3.8193,-3.8322,-3.8652,-3.9093,-3.9405,-3.9405,-4.0524,-4.1111,-4.0653,-4.1625,-4.2488,-4.2947,-4.3296,-4.3515,-4.3515,-4.3515,-4.3515,-4.3515,-4.3515,-4.3515,-4.3515,-4.3515,-4.3515,-4.3515,-4.3515,-4.3515,-4.3515,-4.3515,-4.3515,-4.3478,-4.313,-4.3002,-4.2928,-4.2139,-4.1809,-4.1754,-4.1279,-4.1095,-4.0948,-3.9827,-3.9289,-3.9069,0.0,0.0,0.0,0.0,0.0,0.0,0.0,0.0,0.0,0.0,-3.0649,-3.0494,-3.0201,-2.9378,-2.8499,-2.7612,-2.7761,-2.7698,-2.7217,-2.6813,-2.714,-2.8357,-2.8088,-2.914,-3.1795,-3.2083,-3.2827,-3.4096,-3.4558,-3.4769,-3.4788,-3.5269,-3.55,-3.55,-3.55,-3.55,-3.5462,-3.4981,-3.4769,-3.4692,-3.3583,-3.2776,-3.1968,-2.9646,-2.8415,-2.7799,-2.6909,-2.6601,-2.6814,-2.8205,-2.8689,-2.8791,-2.9478,-2.9706,-2.9801,-3.0025,-3.0307,-3.0607,-3.0897,0.0,0.0,-3.1901,-3.2166,-3.2341,-3.2551,-3.3697,-3.4668,-3.4527,-3.5624,-3.6813,-3.7382,-3.7676,-3.801,-3.8615,-3.8707,-3.8707,-3.8707,-3.9386,-3.99,-3.99,-4.1313,-4.2066,-4.148,-4.2158,-4.2873,-4.346,-4.3515,-4.3515,-4.3515,-4.3515,-4.3515,-4.3515,-4.3515,-4.3515,-4.3515,-4.3515,-4.3515,-4.3515,-4.3515,-4.3515,-4.3515,-4.3515,-4.3515,-4.3515,-4.3515,-4.3515,-4.346,-4.2873,-4.2635,-4.2561,-4.1992,-4.1772,-4.1662,-4.0855,-4.0414,-4.0157,0.0,0.0,0.0,0.0,0.0,0.0,0.0,0.0,0.0,0.0,0.0,0.0,0.0,-2.8502,-2.7599,-2.6728,-2.7406,-2.7178,-2.55,-2.6154,-2.6621,-2.6678,-2.7467,-2.8319,-2.9204,-3.0044,-3.05,-3.0558,-3.2179,-3.2987,-3.3026,-3.4712,-3.55,-3.55,-3.55,-3.55,-3.5385,-3.3699,-3.2987,-3.2833,-3.1173,-3.05,-3.0288,-2.8582,-2.7915,-2.7799,-2.6909,-2.6601,-2.683,-2.8364,-2.8885,-2.9017,-2.9668,-2.9977,0.0,-3.0109,-3.0842,-3.1584,0.0,0.0,-3.2278,-3.2761,-3.3302,-3.3949,-3.4724,-3.5587,-3.6225,-3.6229,-3.6886,-3.7474,-3.7492,-3.8138,-3.867,-3.8707,-3.8707,-3.8707,-3.8707,-3.9386,-3.99,-3.99,-4.1313,-4.2286,0.0,-4.2983,-4.3478,-4.3515,-4.3515,-4.3515,-4.3515,-4.3515,-4.3515,-4.3515,-4.3515,-4.3515,-4.3515,-4.3515,-4.3515,-4.3515,-4.3515,-4.3515,-4.3515,-4.3515,-4.3515,-4.3515,-4.3515,-4.3515,-4.3515,-4.3478,-4.346,-4.346,-4.3441,-4.3441,-4.3331,-4.2525,-4.1735,-4.1058,0.0,0.0,0.0,0.0,0.0,0.0,0.0,0.0,0.0,0.0,0.0,0.0,0.0,0.0,0.0,0.0,-2.6099,-2.5996,-2.5399,-2.563,-2.5775,-2.5731,-2.6019,-2.6832,-2.828,-2.8582,-2.9294,-3.0404,-3.0962,-3.1231,-3.125,-3.1846,-3.2115,-3.2115,-3.2115,-3.2115,-3.2077,-3.1481,-3.1231,-3.1135,-3.0006,-2.9217,-2.8621,-2.7467,-2.6678,-2.6135,0.0,-2.5731,-2.596,-2.7516,-2.8045,-2.8267,-2.9606,-3.0066,-3.0244,-3.0951,-3.1282,-3.1607,-3.2445,0.0,-3.3143,-3.406,-3.4576,-3.504,-3.5703,-3.6486,-3.7107,-3.7107,-3.7874,-3.8553,-3.8553,-3.8779,-3.8964,-3.8964,-3.8825,-3.8707,-3.8707,-3.9863,-4.0708,-4.0708,-4.2121,0.0,0.0,0.0,0.0,-4.3515,-4.3515,-4.3515,-4.3515,-4.3515,-4.3515,-4.3515,-4.3515,-4.3515,-4.3515,-4.3515,-4.3515,-4.3515,-4.3515,-4.3515,-4.3515,-4.3515,-4.3515,-4.3515,-4.3515,-4.3515,-4.3515,-4.3515,-4.3515,-4.3515,-4.3515,-4.3515,-4.3478,-4.3185,-4.291,-4.2543,0.0,0.0,0.0,0.0,0.0,0.0,0.0,0.0,0.0,0.0,0.0,0.0,0.0,0.0,0.0,0.0,0.0,-2.5437,-2.5445,-2.541,-2.538,-2.5335,-2.5313,-2.5827,-2.6948,-2.6967,-2.7505,-2.8577,-2.9192,-2.95,-2.9519,-3.0115,-3.0404,-3.0404,-3.0404,-3.0404,-3.0365,-2.975,-2.9506,-2.9421,-2.8233,-2.7468,-2.6949,-2.6376,-2.5808,0.0,-2.5322,-2.5529,-2.5971,-2.7271,-2.772,-2.8007,-2.9685,-3.0413,-3.0784,-3.1378,-3.1869,-3.2439,-3.3525,-3.4009,-3.4427,-3.5375,-3.5943,-3.6366,-3.665,-3.7125,-3.7419,-3.7125,-3.7461,-3.7795,-3.7809,-3.8018,-3.8302,-3.8613,-3.8693,-3.8707,-3.8707,-4.0086,-4.1095,-4.1095,-4.2525,-4.3515,0.0,0.0,0.0,-4.3515,-4.3515,-4.3515,-4.3515,-4.3515,-4.3515,-4.3515,-4.3515,-4.3515,-4.3515,-4.3515,-4.3515,-4.3515,-4.3515,-4.3515,-4.3515,-4.3515,-4.3515,-4.3515,-4.3515,-4.3515,-4.3515,-4.3515,-4.3515,-4.3515,-4.3515,-4.3515,-4.3515,-4.3515,-4.3515,-4.3349,0.0,0.0,0.0,0.0,0.0,0.0,0.0,0.0,0.0,0.0,0.0,0.0,0.0,0.0,0.0,0.0,0.0,0.0,-2.5513,-2.5447,-2.5417,-2.5406,-2.5344,-2.5317,-2.5317,-2.5313,-2.5313,-2.5313,-2.6953,-2.7761,-2.7799,-2.939,-3.014,-3.014,-3.014,-3.014,-3.0044,-2.8453,-2.7776,-2.7624,-2.603,-2.5398,-2.5403,-2.5402,-2.5355,-2.5313,-2.5384,-2.5914,-2.6736,-2.7601,-2.7953,-2.8313,-2.9942,-3.1032,-3.1648,-3.1474,-3.2583,-3.398,-3.4505,-3.5262,-3.6036,-3.6628,-3.7352,-3.7867,-3.7595,-3.7485,-3.7228,-3.6423,-3.5774,-3.538,0.0,0.0,-3.6799,-3.7713,-3.8264,-3.8615,-3.8689,-4.0086,-4.1095,0.0,0.0,0.0,0.0,0.0,0.0,-4.3515,0.0,-4.3515,-4.3515,-4.3515,-4.3515,-4.3515,-4.3515,-4.3515,-4.3515,-4.3515,-4.3515,-4.3515,-4.3515,-4.3515,-4.3515,-4.3515,-4.3515,-4.3515,-4.3515,-4.3515,-4.3515,-4.3515,-4.3515,-4.3515,-4.3515,-4.3515,-4.3515,-4.3515,-4.3515,-4.3515,0.0,0.0,0.0,0.0,0.0,0.0,0.0,0.0,0.0,0.0,0.0,0.0,0.0,0.0,0.0,0.0,0.0,0.0,-2.5563,-2.5566,-2.5534,-2.5482,-2.5453,-2.5449,-2.5449,-2.5404,-2.5369,-2.5369,-2.5812,-2.6044,-2.6044,-2.6468,-2.668,-2.668,-2.668,-2.668,-2.666,-2.6217,-2.6048,-2.5995,-2.5575,-2.5402,-2.5402,-2.5406,-2.5393,-2.5384,-2.5394,-2.5914,-2.6736,0.0,0.0,0.0,0.0,-3.1424,-3.1697,-3.2832,-3.3776,-3.4613,-3.5313,-3.6224,-3.7146,-3.7737,-3.816,-3.8334,-3.796,-3.7376,-3.6676,-3.5868,-3.5221,-3.4859,0.0,0.0,0.0,-3.7003,-3.7039,0.0,-3.8542,-4.0086,0.0,0.0,0.0,-4.3515,-4.3515,-4.3515,0.0,0.0,-4.3515,-4.3515,-4.3515,-4.3515,-4.3515,-4.3515,-4.3515,-4.3515,-4.3515,-4.3515,-4.3515,-4.3515,-4.3515,-4.3515,-4.3515,-4.3515,-4.3515,-4.3515,-4.3515,-4.3515,-4.3515,-4.3515,-4.3515,-4.3515,-4.3515,-4.3515,-4.3515,-4.3515,-4.3515,-4.3515,0.0,0.0,0.0,0.0,0.0,0.0,0.0,0.0,0.0,0.0,0.0,0.0,0.0,0.0,0.0,0.0,0.0,0.0,0.0,-2.5624,-2.5572,-2.5549,-2.5517,-2.5508,-2.5495,-2.5453,-2.5429,-2.541,-2.541,-2.541,-2.541,-2.541,-2.541,-2.541,-2.541,-2.541,-2.541,-2.541,-2.5395,0.0,0.0,-2.5404,-2.5404,-2.5432,-2.5438,-2.545,-2.5836,0.0,0.0,0.0,0.0,-3.0558,-3.1429,-3.1807,-3.2165,-3.3327,0.0,-3.5449,-3.6217,-3.7184,-3.8148,-3.8822,-3.8831,-3.8453,-3.7722,-3.6645,-3.5553,-3.4746,-3.4105,0.0,0.0,0.0,0.0,0.0,0.0,0.0,-3.7991,-3.9863,-4.1095,0.0,-4.2525,0.0,-4.3515,-4.3515,-4.3515,0.0,-4.3515,-4.3515,-4.3515,-4.3515,-4.3515,-4.3515,-4.3515,-4.3515,-4.3515,-4.3515,-4.3515,-4.3515,-4.3515,-4.3515,-4.3515,-4.3515,-4.3515,-4.3515,0.0,-4.3515,-4.3515,-4.3515,-4.3515,-4.3515,-4.3515,-4.3515,-4.3515,-4.3515,-4.3515,-4.3515,0.0,0.0,0.0,0.0,0.0,0.0,0.0,0.0,0.0,0.0,0.0,0.0,0.0,0.0,0.0,0.0,0.0,0.0,0.0,0.0,-2.5607,-2.5607,-2.5552,-2.5525,-2.5531,-2.5522,-2.5482,-2.5417,-2.5417,-2.5412,-2.5419,-2.5419,-2.5419,-2.5419,-2.5419,-2.5419,-2.5419,-2.5419,-2.5408,-2.5406,-2.5406,-2.5406,-2.5425,0.0,-2.5526,-2.5704,0.0,0.0,0.0,0.0,-3.0404,-3.0577,-3.1545,-3.219,-3.2748,-3.3486,-3.4906,-3.636,-3.7055,-3.806,-3.9085,-3.9785,-3.934,-3.8407,-3.72,-3.5746,-3.4392,-3.3487,0.0,-3.2748,-3.3547,0.0,-3.3779,-3.5315,0.0,-3.6452,-3.7217,-3.9423,-4.0967,-4.1077,-4.2433,-4.3386,-4.3496,-4.3515,-4.3515,-4.3515,-4.3515,-4.3515,-4.3515,-4.3515,-4.3515,-4.3515,-4.3515,-4.3515,-4.3515,-4.3515,-4.3515,-4.3515,-4.3515,-4.3515,-4.3515,-4.3515,-4.3515,-4.3515,-4.3515,-4.3515,-4.3515,-4.3515,-4.3515,-4.3515,-4.3515,-4.3515,-4.3515,-4.3515,-4.3515,-4.3515,0.0,0.0,0.0,0.0,0.0,0.0,0.0,0.0,0.0,0.0,-3.0137,-2.9277,0.0,0.0,0.0,0.0,0.0,0.0,0.0,0.0,0.0,-2.5683,-2.5672,-2.5676,-2.5671,-2.5603,-2.5559,-2.5476,-2.5476,-2.5485,-2.548,-2.548,-2.548,-2.548,-2.548,-2.548,-2.548,-2.548,-2.548,-2.5484,-2.5484,-2.5484,-2.5484,-2.5507,0.0,0.0,0.0,0.0,0.0,0.0,-3.0404,-3.0673,-3.2218,-3.2651,-3.2886,-3.4385,-3.6005,-3.7338,-3.7432,-3.8709,-4.0071,-4.0206,-3.9576,-3.8499,-3.6815,-3.5657,0.0,0.0,0.0,-3.2676,-3.2999,-3.2878,0.0,-3.3713,0.0,0.0,0.0,0.0,-4.0359,0.0,0.0,0.0,0.0,0.0,0.0,0.0,0.0,-4.3515,-4.3515,-4.3515,-4.3515,-4.3515,-4.3515,-4.3515,-4.3515,-4.3515,-4.3515,-4.3515,-4.3515,-4.3515,-4.3515,-4.3515,-4.3515,-4.3515,-4.3515,0.0,-4.3515,-4.3515,-4.3515,-4.3515,-4.3515,-4.3515,-4.3515,-4.3515,-4.3515,-4.3515,0.0,0.0,0.0,0.0,0.0,0.0,0.0,-3.0898,-3.0898,-3.0898,-3.0547,-2.9766,-2.8437,-2.793,0.0,0.0,0.0,0.0,0.0,0.0,0.0,0.0,0.0,0.0,-2.5707,-2.5676,0.0,0.0,0.0,-2.5505,-2.5492,0.0,0.0,-2.5507,-2.5507,-2.5507,-2.5507,-2.5507,-2.5507,-2.5507,-2.5507,-2.5507,-2.5507,0.0,0.0,0.0,0.0,0.0,0.0,0.0,-3.0404,-3.0692,-3.2372,-3.2766,-3.294,-3.4642,-3.6304,-3.7583,-3.7557,-3.8926,-4.0238,-3.979,-3.9061,-3.797,-3.6225,0.0,0.0,0.0,0.0,-3.3611,-3.4141,0.0,0.0,0.0,0.0,0.0,0.0,0.0,0.0,0.0,0.0,0.0,0.0,0.0,0.0,0.0,0.0,-4.3515,-4.3515,-4.3515,-4.3515,-4.3515,-4.3515,-4.3515,-4.3515,-4.3515,-4.3515,-4.3515,-4.3515,-4.3515,-4.3515,-4.3515,-4.3515,-4.3515,-4.3515,-4.3515,-4.3515,-4.3515,-4.3515,-4.3515,-4.3515,-4.3515,-4.3496,-4.3531,-4.3548,-4.3548,0.0,0.0,0.0,0.0,0.0,0.0,0.0,-3.0898,-3.0898,-3.0898,-3.0898,-3.0234,-2.8496,-2.8301,-2.7598,0.0,0.0,0.0,0.0,0.0,0.0,0.0,0.0,0.0,0.0,0.0,0.0,0.0,0.0,0.0,0.0,0.0,0.0,0.0,0.0,0.0,-2.5507,-2.5507,-2.5507,0.0,0.0,0.0,0.0,0.0,0.0,0.0,0.0,0.0,0.0,0.0,-3.0519,-3.0942,-3.2429,-3.2793,-3.3019,-3.4741,-3.6274,-3.7415,-3.7406,-3.8604,-3.9706,-3.9016,-3.8227,-3.7233,-3.5751,-3.4915,0.0,0.0,-3.4359,-3.468,-3.5365,0.0,0.0,0.0,0.0,0.0,0.0,0.0,0.0,0.0,0.0,0.0,0.0,0.0,0.0,0.0,0.0,0.0,-4.3599,-4.3599,-4.3614,-4.3679,-4.3679,-4.3679,-4.3679,-4.3679,-4.3679,-4.3679,-4.3679,-4.3679,-4.3679,-4.3679,-4.3679,-4.3697,-4.3632,-4.3599,-4.3599,-4.3513,-4.3515,-4.3513,-4.3513,-4.3549,-4.3566,-4.3634,-4.3651,-4.3667,0.0,0.0,0.0,0.0,0.0,0.0,0.0,-3.0898,-3.0898,-3.0898,-3.0898,-3.0234,-2.8496,-2.8301,-2.7598,0.0,0.0,0.0,0.0,0.0,0.0,0.0,0.0,0.0,0.0,0.0,0.0,0.0,0.0,0.0,0.0,0.0,0.0,0.0,0.0,0.0,0.0,-2.5507,0.0,0.0,0.0,0.0,0.0,0.0,0.0,0.0,0.0,0.0,0.0,0.0,0.0,-3.1737,-3.2622,-3.2885,-3.3218,-3.496,0.0,0.0,-3.678,-3.7444,-3.8116,-3.8019,-3.7367,-3.6481,-3.559,0.0,0.0,-3.4353,-3.4834,-3.5404,-3.5481,-3.5409,-3.4777,0.0,0.0,0.0,0.0,0.0,0.0,0.0,0.0,0.0,0.0,0.0,0.0,0.0,0.0,0.0,-4.3958,-4.3958,-4.406,-4.4318,-4.4313,-4.4313,-4.4313,-4.4313,-4.4313,-4.4313,-4.4313,-4.4313,-4.4313,-4.4313,-4.4313,-4.4299,-4.406,-4.3958,0.0,-4.3632,-4.3549,-4.3582,-4.3582,-4.3686,-4.3771,-4.3788,-4.3788,-4.3788,0.0,0.0,0.0,0.0,0.0,0.0,-3.0898,-3.0898,-3.0898,-3.0898,-3.0449,-2.9648,-2.8437,-2.7832,-2.7031,-2.5801,0.0,0.0,0.0,0.0,0.0,0.0,0.0,0.0,0.0,0.0,0.0,0.0,0.0,0.0,0.0,0.0,0.0,0.0,0.0,0.0,0.0,0.0,0.0,0.0,0.0,0.0,0.0,0.0,0.0,0.0,0.0,0.0,0.0,0.0,0.0,0.0,-3.3282,-3.368,0.0,0.0,-3.6077,-3.6692,-3.6697,-3.7324,-3.7824,-3.7302,-3.6918,-3.6445,-3.5645,0.0,-3.5371,-3.5058,-3.525,-3.55,-3.55,-3.55,-3.5076,-3.3772,0.0,0.0,0.0,0.0,0.0,0.0,0.0,0.0,0.0,0.0,0.0,0.0,0.0,0.0,-4.4471,-4.4318,-4.4289,-4.4402,-4.4397,-4.4397,-4.4397,-4.4397,-4.4397,-4.4397,-4.4397,-4.4397,-4.4397,-4.4397,-4.4397,-4.4383,-4.4275,-4.4151,0.0,-4.3862,-4.3716,-4.3599,-4.3599,-4.3667,-4.3804,-4.3853,-4.3867,-4.3867,0.0,0.0,0.0,0.0,0.0,-3.0898,-3.0898,-3.0898,-3.0898,-3.0898,-3.0371,-2.9648,-2.8789,-2.8144,-2.7422,-2.6543,-2.5996,0.0,0.0,0.0,0.0,0.0,0.0,0.0,0.0,0.0,-2.7383,-2.7383,-2.7946,0.0,0.0,0.0,0.0,0.0,0.0,0.0,0.0,0.0,0.0,0.0,0.0,0.0,0.0,0.0,0.0,0.0,0.0,0.0,0.0,0.0,0.0,0.0,0.0,0.0,0.0,0.0,-3.5904,-3.6346,-3.6346,-3.6788,-3.7103,-3.65,-3.6346,-3.6192,0.0,0.0,-3.55,-3.55,-3.55,-3.55,-3.55,-3.55,-3.5212,-3.434,0.0,-3.4178,0.0,0.0,0.0,0.0,0.0,0.0,0.0,0.0,0.0,0.0,0.0,0.0,-4.4934,-4.4758,-4.4669,-4.4669,-4.4669,-4.4669,-4.4669,-4.4669,-4.4669,-4.4669,-4.4669,-4.4669,-4.4669,-4.4669,-4.4669,-4.4695,-4.4585,-4.4438,0.0,-4.4206,-4.4072,-4.3934,-4.3934,-4.3999,-4.4109,-4.4151,-4.4124,-4.4048,0.0,0.0,0.0,0.0,0.0,0.0,-3.0898,-3.0898,-3.0898,-3.0898,-3.0898,-3.0547,-2.9687,-2.957,-2.9219,-2.8359,-2.6699,0.0,0.0,0.0,0.0,0.0,0.0,0.0,0.0,0.0,-2.8281,-2.8281,-2.8281,-2.828,-2.8207,-2.8193,0.0,0.0,0.0,0.0,0.0,0.0,0.0,0.0,0.0,0.0,0.0,0.0,0.0,0.0,0.0,0.0,0.0,0.0,0.0,0.0,0.0,0.0,0.0,0.0,-3.5519,-3.5519,-3.5519,-3.5519,-3.5519,-3.5519,-3.5519,-3.5519,0.0,0.0,-3.55,-3.55,-3.55,-3.55,-3.55,-3.55,-3.5212,-3.434,-3.4205,0.0,0.0,0.0,0.0,0.0,0.0,0.0,0.0,0.0,0.0,0.0,0.0,0.0,-4.5286,-4.5297,-4.5297,-4.5297,-4.5297,-4.5297,-4.5297,-4.5297,-4.5297,-4.5297,-4.5297,-4.5297,-4.5297,-4.5297,-4.5328,-4.5369,-4.5038,-4.4938,0.0,-4.4695,-4.4637,-4.4676,-4.4676,-4.4726,-4.4788,-4.4788,-4.4624,-4.4383,0.0,0.0,0.0,0.0,0.0,0.0,0.0,-3.0898,-3.0898,-3.0898,-3.0371,-2.9902,-2.9629,-2.9062,-2.8594,-2.832,-2.7793,0.0,0.0,0.0,0.0,0.0,0.0,0.0,0.0,0.0,-2.9199,-2.9199,-3.0371,-3.0957,-3.0955,-3.1506,-3.1749,-3.1729,0.0,0.0,0.0,0.0,0.0,0.0,0.0,0.0,0.0,0.0,0.0,0.0,0.0,0.0,0.0,0.0,0.0,0.0,0.0,0.0,0.0,-3.557,-3.5541,0.0,-3.55,-3.55,-3.55,-3.55,-3.55,-3.55,-3.55,0.0,-3.55,-3.55,-3.55,-3.55,-3.55,-3.55,-3.5404,-3.5135,-3.4584,0.0,0.0,0.0,0.0,0.0,0.0,0.0,0.0,0.0,0.0,0.0,0.0,0.0,-4.537,-4.537,-4.5341,-4.5307,-4.5307,-4.5307,-4.5307,-4.5307,-4.5307,-4.5307,-4.5338,-4.5378,-4.5359,-4.538,-4.538,0.0,-4.5292,-4.5159,-4.4977,-4.4908,-4.48,-4.4688,-4.4688,-4.4739,-4.4788,-4.4788,-4.4739,-4.465,0.0,0.0,0.0,0.0,0.0,0.0,0.0,-3.0898,-3.0898,-3.0898,-3.043,-3.0098,-3.0098,-2.9609,-2.9277,-2.9277,-2.9277,0.0,0.0,0.0,0.0,0.0,0.0,0.0,-2.9766,-3.0293,-3.0723,-3.1035,-3.2129,-3.2656,-3.2656,-3.3175,-3.3404,-3.3371,-3.2784,-3.2491,0.0,0.0,0.0,0.0,0.0,0.0,-3.0385,0.0,0.0,0.0,0.0,0.0,0.0,0.0,0.0,0.0,0.0,0.0,0.0,0.0,-3.5553,-3.55,0.0,-3.55,-3.55,-3.55,-3.55,0.0,0.0,0.0,-3.55,-3.55,-3.55,-3.55,-3.55,-3.55,-3.55,-3.55,0.0,0.0,0.0,0.0,0.0,0.0,0.0,0.0,0.0,0.0,0.0,0.0,0.0,0.0,-4.539,-4.539,-4.5371,-4.535,-4.5348,-4.5338,-4.5338,-4.5317,-4.5317,-4.5338,-4.5388,-4.5399,-4.54,-4.539,-4.5419,0.0,-4.5438,-4.5352,0.0,-4.5222,-4.514,-4.5041,-4.5041,-4.5063,-4.5096,-4.5096,-4.5041,-4.4908,0.0,0.0,0.0,0.0,0.0,0.0,0.0,-3.0898,-3.0898,-3.0898,-3.0898,-3.0898,-3.0898,-3.0898,-3.0898,-3.0898,0.0,0.0,0.0,0.0,0.0,0.0,0.0,0.0,-3.2266,-3.2285,-3.2656,-3.3398,-3.3457,-3.3496,-3.3496,-3.3567,-3.3587,-3.3574,-3.3586,-3.3542,-3.3375,-3.1681,-3.0978,-3.0957,-3.0903,-3.1279,0.0,0.0,0.0,0.0,0.0,0.0,0.0,0.0,0.0,0.0,0.0,0.0,0.0,0.0,0.0,0.0,0.0,-3.5507,0.0,0.0,0.0,0.0,0.0,0.0,0.0,-3.55,-3.55,-3.55,-3.55,-3.55,0.0,0.0,0.0,0.0,0.0,0.0,0.0,0.0,0.0,0.0,0.0,0.0,0.0,0.0,0.0,0.0,-4.5418,-4.541,-4.5419,-4.5419,-4.5409,-4.5399,-4.5389,-4.5338,-4.5338,-4.5389,-4.5399,-4.54,-4.541,-4.541,-4.5438,0.0,-4.5504,-4.5531,-4.5594,-4.5594,-4.5594,-4.5594,-4.5594,-4.5594,-4.5594,-4.5594,-4.5438,-4.5191,0.0,0.0,0.0,0.0,0.0,0.0,0.0,0.0,0.0,0.0,-3.0898,-3.0898,-3.0898,-3.0898,-3.0898,0.0,0.0,0.0,0.0,0.0,0.0,0.0,0.0,0.0,-3.3105,-3.3125,-3.3203,-3.3398,-3.4062,-3.4394,-3.4414,-3.5078,-3.539,-3.5391,-3.539,-3.5344,-3.5254,-3.4733,-3.4151,-3.3608,-3.3588,-3.3261,0.0,0.0,0.0,0.0,-3.5256,-3.5596,0.0,0.0,0.0,0.0,0.0,0.0,0.0,0.0,-3.5717,-3.5581,-3.5581,0.0,-3.55,-3.55,-3.55,-3.55,0.0,0.0,0.0,0.0,0.0,0.0,0.0,0.0,0.0,0.0,0.0,0.0,0.0,0.0,0.0,0.0,0.0,0.0,0.0,0.0,0.0,0.0,0.0,-4.5419,-4.5467,-4.5532,-4.5559,-4.5559,-4.5495,-4.5448,-4.541,-4.5371,-4.5371,-4.541,-4.5448,-4.5476,-4.5485,-4.5522,-4.5568,-4.5577,-4.5577,-4.5586,-4.5594,-4.5594,-4.5594,-4.5594,-4.5594,-4.5594,-4.5594,-4.5594,-4.5568,-4.5476,0.0,0.0,0.0,0.0,0.0,0.0,0.0,0.0,0.0,0.0,0.0,0.0,0.0,0.0,0.0,0.0,0.0,0.0,0.0,0.0,0.0,0.0,0.0,-3.3144,-3.3984,-3.4004,-3.4199,-3.459,-3.5078,-3.5293,-3.5312,-3.5781,-3.5996,-3.5996,-3.5974,-3.5927,-3.5872,-3.5393,-3.5134,-3.5022,-3.4653,0.0,0.0,0.0,0.0,0.0,-3.5726,-3.5922,0.0,-3.5996,-3.5996,-3.5994,0.0,0.0,0.0,0.0,-3.5772,-3.5641,-3.5641,-3.5575,-3.55,-3.55,-3.55,-3.55,-3.55,0.0,0.0,0.0,0.0,0.0,0.0,0.0,0.0,0.0,0.0,0.0,0.0,0.0,0.0,0.0,0.0,0.0,0.0,0.0,0.0,0.0,0.0,-4.5438,-4.5448,-4.555,-4.5594,-4.5594,-4.5568,-4.5513,-4.5438,-4.5419,-4.5419,-4.5438,-4.5485,-4.5513,-4.555,-4.5577,-4.5594,-4.5594,-4.5594,-4.5594,-4.5594,-4.5594,-4.5594,-4.5594,-4.5594,-4.5594,-4.5594,-4.5594,-4.5594,-4.5568,0.0,0.0,0.0,0.0,0.0,0.0,0.0,0.0,0.0,0.0,0.0,0.0,0.0,0.0,0.0,0.0,0.0,0.0,0.0,0.0,0.0,0.0,-3.3223,-3.4004,-3.4883,-3.4902,-3.5254,-3.5996,-3.5996,-3.5996,-3.5996,-3.5996,-3.5996,-3.5976,-3.5896,-3.5882,-3.5846,-3.5095,-3.5136,-3.5639,-3.4971,0.0,0.0,0.0,0.0,0.0,0.0,0.0,0.0,-3.5996,-3.5996,-3.5995,-3.5993,0.0,0.0,0.0,0.0,0.0,-3.5702,-3.5618,-3.5515,-3.5515,-3.5514,-3.55,-3.55,0.0,0.0,0.0,0.0,0.0,0.0,0.0,0.0,0.0,0.0,0.0,0.0,0.0,0.0,0.0,0.0,0.0,0.0,0.0,0.0,0.0,0.0,-4.5485,-4.5419,-4.5522,-4.5594,-4.5594,-4.5594,-4.5577,-4.5513,-4.5448,-4.5448,-4.5513,-4.5513,-4.555,-4.5594,-4.5594,-4.5594,-4.5594,0.0,0.0,-4.5594,-4.5594,-4.5594,-4.5594,-4.5594,-4.5594,-4.5594,-4.5594,-4.5594,-4.5568,0.0,0.0,0.0,0.0,0.0,0.0,0.0,0.0,0.0,0.0,0.0,0.0,0.0,0.0,0.0,0.0,0.0,0.0,0.0,0.0,0.0,-3.4316,-3.4434,-3.4902,-3.5781,-3.5801,-3.5879,-3.5996,-3.5996,-3.5996,-3.5996,-3.5996,-3.5974,-3.5918,-3.5794,-3.5752,-3.5805,-3.568,-3.5655,-3.569,-3.5693,0.0,0.0,0.0,0.0,0.0,0.0,0.0,0.0,-3.5996,-3.5996,-3.5996,-3.5995,0.0,0.0,0.0,0.0,0.0,-3.5737,-3.5636,-3.5579,-3.5579,-3.5534,-3.55,-3.55,0.0,0.0,0.0,0.0,0.0,0.0,0.0,0.0,0.0,0.0,0.0,0.0,0.0,0.0,0.0,0.0,0.0,0.0,0.0,0.0,0.0,0.0,-4.5495,-4.5485,-4.5559,-4.5594,-4.5594,-4.5594,-4.5605,-4.5586,-4.5577,-4.5577,-4.5586,-4.5586,-4.5586,-4.5594,-4.5594,-4.5594,-4.5594,0.0,-4.5594,-4.5594,-4.5594,-4.5594,-4.5594,-4.5594,-4.5594,-4.5594,-4.5594,-4.5594,-4.5586,0.0,0.0,0.0,0.0,0.0,0.0,0.0,0.0,0.0,0.0,0.0,0.0,0.0,0.0,0.0,0.0,0.0,0.0,0.0,0.0,-3.4902,-3.5371,-3.5391,-3.5586,-3.5996,-3.5996,-3.5996,-3.5996,-3.5996,-3.5996,-3.5996,-3.5996,-3.5976,-3.5951,-3.589,-3.5853,-3.5851,-3.5893,-3.5847,-3.5752,0.0,0.0,0.0,0.0,0.0,0.0,0.0,0.0,0.0,0.0,-3.5996,-3.5996,-3.5995,0.0,0.0,0.0,0.0,0.0,-3.588,-3.576,-3.5655,-3.5655,-3.5581,-3.55,0.0,0.0,0.0,0.0,0.0,0.0,0.0,0.0,0.0,0.0,0.0,0.0,0.0,0.0,0.0,0.0,0.0,0.0,0.0,0.0,0.0,0.0,0.0,0.0,-4.5504,-4.5568,-4.5594,-4.5594,-4.5594,-4.5594,-4.5594,-4.5594,-4.5594,-4.5594,-4.5594,-4.5594,-4.5594,-4.5594,-4.5594,-4.5594,0.0,-4.5594,-4.5594,-4.5594,-4.5594,-4.5594,-4.5594,-4.5594,-4.5594,-4.5594,-4.5594,-4.5594,0.0,0.0,0.0,0.0,0.0,0.0,0.0,0.0,0.0,0.0,0.0,0.0,0.0,0.0,0.0,0.0,0.0,0.0,0.0,-3.5,-3.5293,-3.5976,-3.5996,-3.5996,-3.5996,-3.5996,-3.5996,-3.5996,-3.5996,-3.5996,-3.5996,-3.5976,-3.5975,-3.5975,-3.5953,-3.5925,-3.5885,-3.5951,-3.5919,-3.5816,0.0,0.0,0.0,0.0,0.0,0.0,0.0,0.0,0.0,0.0,0.0,0.0,0.0,0.0,0.0,-3.6007,-3.6,-3.5991,-3.5983,-3.5869,-3.5737,-3.5696,-3.5599,0.0,0.0,0.0,0.0,0.0,0.0,0.0,0.0,0.0,0.0,0.0,0.0,0.0,0.0,0.0,0.0,0.0,0.0,0.0,0.0,0.0,0.0,0.0,0.0,0.0,-4.5541,-4.5577,-4.5594,-4.5594,-4.5594,-4.5594,-4.5594,-4.5594,-4.5594,-4.5594,-4.5594,-4.5594,-4.5594,-4.5594,-4.5594,-4.5594,-4.5594,-4.5594,-4.5594,-4.5594,-4.5594,-4.5594,-4.5594,-4.5594,-4.5594,-4.5594,-4.5594,-4.5594,0.0,0.0,0.0,0.0,0.0,0.0,0.0,0.0,0.0,0.0,0.0,0.0,0.0,0.0,0.0,0.0,0.0,0.0,0.0,-3.5918,-3.5937,-3.5996,-3.5996,-3.5996,-3.5996,-3.5996,-3.5996,-3.5996,-3.5996,-3.5996,-3.5996,-3.5948,-3.5917,-3.5896,-3.5843,-3.5802,-3.5802,-3.5884,-3.5877,-3.5802,-3.5949,0.0,0.0,0.0,0.0,0.0,0.0,0.0,0.0,0.0,0.0,0.0,0.0,0.0,-3.5991,-3.5991,-3.6003,-3.5986,-3.5929,-3.5908,-3.5833,-3.565,-3.5553,0.0,-3.55,-3.4872,0.0,-3.4302,0.0,0.0,0.0,0.0,0.0,0.0,0.0,0.0,0.0,0.0,0.0,0.0,0.0,0.0,0.0,0.0,0.0,0.0,0.0,0.0,-4.5586,-4.5594,-4.5594,-4.5594,-4.5594,-4.5594,-4.5594,-4.5594,-4.5594,-4.5594,-4.5594,-4.5594,-4.5594,-4.5594,-4.5594,-4.5594,-4.5594,-4.5594,-4.5594,-4.5594,-4.5594,-4.5594,-4.5594,-4.5594,-4.5594,-4.5594,-4.5594,-4.5594,0.0,0.0,0.0,0.0,0.0,0.0,0.0,0.0,0.0,0.0,0.0,0.0,0.0,0.0,0.0,0.0,0.0,0.0,0.0,-3.5996,-3.5996,-3.5996,-3.5996,-3.5996,-3.5996,-3.5996,-3.5996,-3.5996,-3.5996,-3.5996,-3.5996,-3.5975,-3.5953,-3.5953,-3.5948,-3.5925,-3.5925,-3.5951,-3.5951,-3.5926,-3.5975,-3.5976,0.0,0.0,0.0,0.0,0.0,0.0,0.0,0.0,-3.5996,-3.5996,-3.5996,-3.5995,-3.5993,-3.5993,-3.6009,-3.5999,-3.5968,-3.5877,-3.5753,-3.5683,-3.5168,0.0,0.0,-3.443,-3.4205,-3.4205,-3.3782,0.0,0.0,0.0,0.0,0.0,0.0,0.0,0.0,0.0,0.0,0.0,0.0,0.0,0.0,0.0,0.0,0.0,0.0,0.0,-4.5594,-4.5594,-4.5594,-4.5594,-4.5594,-4.5594,-4.5594,-4.5594,-4.5594,-4.5594,-4.5594,-4.5594,-4.5594,-4.5594,-4.5594,-4.5594,-4.5594,-4.5594,-4.5594,-4.5594,-4.5594,-4.5594,-4.5594,-4.5594,-4.5594,-4.5594,-4.5594,-4.5594,0.0,0.0,0.0,0.0,0.0,0.0,0.0,0.0,0.0,0.0,0.0,0.0,0.0,0.0,0.0,0.0,0.0,0.0,-3.5996,-3.5996,-3.5996,-3.5996,-3.5996,-3.5996,-3.5996,-3.5996,-3.5996,-3.5996,-3.5996,-3.5996,-3.5996,-3.5996,-3.5996,-3.5996,-3.5996,-3.5996,-3.5996,-3.5996,-3.5996,-3.5996,-3.5996,-3.5996,0.0,0.0,0.0,0.0,0.0,0.0,0.0,0.0,-3.5996,-3.5996,-3.5996,-3.5996,-3.5995,-3.5994,-3.5987,-3.5971,-3.597,-3.5844,-3.5689,-3.5663,0.0,0.0,-3.4193,-3.3994,-3.3801,-3.3801,-3.3757,0.0,0.0,0.0,0.0,0.0,0.0,0.0,0.0,0.0,0.0,0.0,0.0,0.0,0.0,0.0,0.0,0.0,0.0,0.0,0.0,-4.5594,-4.5594,-4.5594,-4.5594,-4.5594,-4.5594,-4.5594,-4.5594,-4.5594,-4.5594,-4.5594,-4.5594,-4.5594,-4.5594,-4.5594,-4.5594,-4.5594,-4.5594,-4.5594,-4.5594,-4.5594,-4.5594,-4.5594,-4.5594,-4.5594,-4.5594,-4.5594,0.0,0.0,0.0,0.0,0.0,0.0,0.0,0.0,0.0,0.0,0.0,0.0,0.0,0.0,0.0,0.0,0.0,0.0,-3.5996,-3.5996,-3.5996,-3.5996,-3.5996,-3.5996,-3.5996,-3.5996,-3.5996,-3.5996,-3.5996,-3.5996,-3.5996,-3.5996,-3.5996,-3.5996,-3.5996,-3.5996,-3.5996,-3.5996,-3.5996,-3.5996,-3.5996,-3.5996,-3.5996,0.0,0.0,0.0,0.0,0.0,0.0,0.0,-3.5996,-3.5996,-3.5996,-3.5996,-3.5994,-3.5992,-3.5952,-3.5907,-3.5894,-3.5801,-3.5676,0.0,0.0,0.0,-3.4218,-3.3526,-3.2891,-3.291,0.0,0.0,0.0,0.0,0.0,0.0,0.0,0.0,0.0,0.0,0.0,0.0,0.0,0.0,0.0,0.0,0.0,0.0,0.0,0.0,0.0,-4.5594,-4.5594,-4.5594,-4.5594,-4.5594,-4.5594,-4.5594,-4.5594,-4.5594,-4.5594,-4.5594,-4.5594,-4.5594,-4.5594,-4.5594,-4.5594,-4.5594,-4.5594,-4.5594,-4.5594,-4.5594,-4.5594,-4.5594,-4.5594,-4.5594,-4.5594,-4.5594,0.0,0.0,0.0,0.0,0.0,0.0,0.0,0.0,0.0,0.0,0.0,0.0,0.0,0.0,0.0,0.0,0.0,0.0,-3.5996,-3.5996,-3.5996,-3.5996,-3.5996,-3.5996,-3.5996,-3.5996,-3.5996,-3.5996,-3.5996,-3.5996,-3.5996,-3.5996,-3.5996,-3.5996,-3.5996,-3.5996,-3.5996,-3.5996,-3.5996,-3.5996,-3.5996,-3.5996,-3.5996,0.0,0.0,0.0,0.0,0.0,0.0,0.0,0.0,0.0,-3.5996,-3.5996,-3.5996,-3.5996,-3.5991,-3.5957,-3.5916,-3.5807,0.0,0.0,0.0,0.0,0.0,-3.3526,0.0,0.0,0.0,0.0,0.0,0.0,0.0,0.0,0.0,0.0,0.0,0.0,0.0,0.0,0.0,0.0,0.0,0.0,0.0,0.0,0.0,0.0,0.0,-4.5594,-4.5594,-4.5594,-4.5594,-4.5594,-4.5594,-4.5594,-4.5594,-4.5594,-4.5594,-4.5594,-4.5594,-4.5594,-4.5594,-4.5594,-4.5594,-4.5594,-4.5594,-4.5594,-4.5594,-4.5594,-4.5594,-4.5594,-4.5594,-4.5594,-4.5594,-4.5594,0.0,0.0,0.0,0.0,0.0,0.0,0.0,0.0,0.0,0.0,-3.5996,0.0,0.0,0.0,0.0,0.0,0.0,0.0,0.0,-3.5996,-3.5996,-3.5996,-3.5996,-3.5996,-3.5996,-3.5996,-3.5996,-3.5996,-3.5996,-3.5996,-3.5996,-3.5996,-3.5996,-3.5996,-3.5996,-3.5996,-3.5996,-3.5996,-3.5996,-3.5996,-3.5996,-3.5996,-3.5996,0.0,0.0,0.0,0.0,0.0,0.0,0.0,0.0,0.0,-3.5996,-3.5996,-3.5996,-3.5972,-3.5919,-3.5873,-3.5797,0.0,0.0,0.0,0.0,0.0,0.0,0.0,0.0,0.0,0.0,0.0,0.0,0.0,0.0,0.0,0.0,0.0,0.0,0.0,0.0,0.0,0.0,0.0,0.0,0.0,0.0,0.0,0.0,0.0,0.0,-4.5594,-4.5594,-4.5594,-4.5594,-4.5594,-4.5594,-4.5594,-4.5594,-4.5594,-4.5594,-4.5594,-4.5594,-4.5594,-4.5594,-4.5594,-4.5594,-4.5594,-4.5594,-4.5594,-4.5594,-4.5594,-4.5594,-4.5594,-4.5594,-4.5594,-4.5594,-4.5594,0.0,0.0,0.0,0.0,0.0,0.0,0.0,0.0,0.0,0.0,-3.5996,-3.5996,0.0,0.0,0.0,0.0,0.0,0.0,0.0,-3.5996,-3.5996,-3.5996,-3.5996,-3.5996,-3.5996,-3.5996,-3.5996,-3.5996,-3.5996,-3.5996,-3.5996,-3.5996,-3.5996,-3.5996,-3.5996,-3.5996,-3.5996,-3.5996,-3.5996,-3.5996,-3.5996,-3.5996,-3.5996,-3.5996,0.0,0.0,0.0,0.0,0.0,0.0,0.0,0.0,-3.5996,-3.5996,-3.5995,-3.5931,-3.5824,-3.5693,-3.5641,0.0,0.0,0.0,0.0,0.0,0.0,0.0,0.0,0.0,0.0,0.0,0.0,0.0,0.0,0.0,0.0,0.0,0.0,0.0,0.0,0.0,0.0,0.0,0.0,0.0,0.0,0.0,0.0,0.0,0.0,-4.5364,-4.5364,-4.5364,-4.5364,-4.5421,-4.5479,-4.5479,-4.5518,-4.5594,-4.5594,-4.5594,-4.5594,-4.5594,-4.5594,-4.5594,-4.5594,-4.5594,-4.5594,-4.5594,-4.5594,-4.5594,-4.5594,-4.5594,-4.5594,-4.5594,-4.5594,-4.5594,0.0,0.0,0.0,0.0,0.0,0.0,0.0,0.0,0.0,0.0,0.0,0.0,0.0,0.0,0.0,0.0,0.0,0.0,0.0,-3.5996,-3.5996,-3.5996,-3.5996,-3.5996,-3.5996,-3.5996,-3.5996,-3.5996,-3.5996,-3.5996,-3.5996,-3.5996,-3.5996,-3.5996,-3.5996,-3.5996,-3.5996,-3.5996,-3.5996,-3.5996,-3.5996,-3.5996,-3.5996,-3.5996,-3.5996,0.0,0.0,0.0,0.0,0.0,0.0,0.0,-3.5996,-3.5996,-3.5996,-3.5975,-3.5916,-3.5844,0.0,-3.5664,0.0,0.0,0.0,0.0,0.0,0.0,0.0,0.0,0.0,0.0,0.0,0.0,0.0,0.0,0.0,0.0,0.0,0.0,0.0,0.0,0.0,0.0,0.0,0.0,0.0,0.0,0.0,0.0,-4.3623,-4.3643,-4.3646,-4.3643,-4.3643,-4.3932,-4.4566,-4.4586,-4.4913,-4.5594,-4.5594,-4.5594,-4.5594,-4.5594,-4.5594,-4.5594,-4.5594,-4.5594,-4.5594,-4.5594,-4.5594,-4.5594,-4.5594,-4.5594,-4.5594,-4.5594,-4.5594,-4.5594,0.0,0.0,0.0,0.0,0.0,0.0,0.0,0.0,0.0,0.0,0.0,0.0,0.0,0.0,0.0,0.0,0.0,0.0,0.0,0.0,-3.5996,-3.5996,-3.5996,-3.5996,-3.5996,-3.5996,-3.5996,-3.5996,-3.5996,-3.5996,-3.5996,-3.5996,-3.5996,-3.5996,-3.5996,-3.5996,-3.5996,-3.5996,-3.5996,-3.5996,-3.5996,-3.5996,-3.5996,-3.5996,-3.5996,-3.5996,-3.5996,0.0,0.0,0.0,0.0,0.0,0.0,0.0,-3.5996,-3.5951,-3.5935,-3.586,0.0,0.0,0.0,0.0,0.0,0.0,0.0,0.0,0.0,0.0,0.0,0.0,0.0,0.0,0.0,0.0,0.0,0.0,0.0,0.0,0.0,0.0,0.0,0.0,0.0,0.0,0.0,0.0,0.0,-4.2733,-4.3142,-4.3154,-4.3146,-4.3142,-4.3142,-4.3354,-4.3778,-4.4163,-4.4586,-4.5029,-4.5442,-4.5654,-4.5654,-4.5612,-4.5594,-4.5594,-4.5594,-4.5594,-4.5594,-4.5594,-4.5594,-4.5594,-4.5594,-4.5594,-4.5594,-4.5594,-4.5594,-4.5594,0.0,0.0,0.0,0.0,0.0,0.0,0.0,0.0,0.0,0.0,0.0,0.0,0.0,0.0,0.0,0.0,0.0,0.0,0.0,0.0,0.0,-3.5996,-3.5996,-3.5996,-3.5996,-3.5996,-3.5996,-3.5996,-3.5996,-3.5996,-3.5996,-3.5996,-3.5996,-3.5996,-3.5996,-3.5996,-3.5996,-3.5996,-3.5996,-3.5996,-3.5996,-3.5996,-3.5996,-3.5996,-3.5996,-3.5996,-3.5996,-3.5996,-3.5996,-3.5996,0.0,0.0,0.0,0.0,-3.5996,-3.5922,-3.5908,-3.5864,0.0,0.0,0.0,0.0,0.0,0.0,0.0,0.0,0.0,0.0,0.0,0.0,0.0,0.0,0.0,0.0,0.0,0.0,0.0,0.0,0.0,0.0,0.0,0.0,0.0,0.0,0.0,0.0,0.0,-4.2022,-4.2729,-4.2768,-4.2768,-4.2741,-4.2741,-4.2818,-4.2972,-4.3647,-4.4052,-4.4207,-4.5063,-4.5545,-4.57,-4.5635,-4.5612,-4.5622,-4.5622,-4.5622,-4.5594,-4.5594,-4.5594,-4.5594,-4.5594,-4.5594,-4.5594,-4.5594,-4.5594,-4.5594,0.0,0.0,0.0,0.0,0.0,0.0,0.0,0.0,0.0,0.0,0.0,0.0,0.0,0.0,0.0,0.0,0.0,0.0,0.0,0.0,0.0,-3.5996,-3.5996,-3.5996,-3.5996,-3.5996,-3.5996,-3.5996,-3.5996,-3.5996,-3.5996,-3.5996,-3.5996,-3.5996,-3.5996,-3.5996,-3.5996,-3.5996,-3.5996,-3.5996,-3.5996,-3.5996,-3.5996,-3.5996,-3.5996,-3.5996,-3.5996,-3.5996,-3.5996,-3.5996,-3.5996,0.0,0.0,0.0,-3.5996,-3.5996,-3.5947,-3.59,0.0,0.0,0.0,0.0,0.0,0.0,0.0,0.0,0.0,0.0,0.0,0.0,0.0,0.0,0.0,0.0,0.0,0.0,0.0,0.0,0.0,0.0,0.0,0.0,0.0,0.0,0.0,0.0,-4.0952,-4.0978,-4.1041,-4.1034,-4.1008,-4.0961,-4.0954,-4.1301,-4.2066,-4.2182,-4.2606,-4.3377,-4.4187,-4.4967,-4.5708,-4.5692,-4.5687,-4.5693,-4.5693,-4.5648,-4.5594,-4.5594,-4.5594,-4.5594,-4.5594,-4.5594,-4.5594,-4.5594,-4.5594,-4.5594,0.0,0.0,0.0,0.0,0.0,0.0,0.0,0.0,0.0,0.0,0.0,0.0,0.0,0.0,0.0,0.0,0.0,0.0,0.0,0.0,0.0,-3.5996,-3.5996,-3.5996,-3.5996,-3.5996,-3.5996,-3.5996,-3.5996,-3.5996,-3.5996,-3.5996,-3.5996,-3.5996,-3.5996,-3.5996,-3.5996,-3.5996,-3.5996,-3.5996,-3.5996,-3.5975,-3.5951,-3.5995,-3.5975,-3.5951,-3.5996,-3.5996,-3.5996,-3.5996,-3.5996,-3.5996,-3.5996,0.0,0.0,0.0,0.0,0.0,0.0,0.0,0.0,0.0,0.0,0.0,0.0,0.0,0.0,0.0,0.0,0.0,0.0,0.0,0.0,0.0,0.0,0.0,0.0,0.0,0.0,0.0,0.0,0.0,0.0,0.0,0.0,0.0,-4.0797,-4.079,-4.0752,-4.0752,-4.0746,-4.0713,-4.0713,-4.09,-4.1286,-4.1724,-4.2381,-4.325,-4.3617,-4.4235,-4.5073,-4.5073,-4.5314,-4.5695,-4.5695,-4.5671,-4.5648,-4.5648,-4.564,-4.5594,-4.5594,-4.5594,-4.5594,-4.5594,-4.5594,-4.5594,0.0,0.0,0.0,0.0,0.0,0.0,0.0,0.0,0.0,0.0,0.0,0.0,0.0,0.0,0.0,0.0,0.0,0.0,0.0,0.0,0.0,-3.6348,-3.6328,-3.623,-3.5996,-3.5996,-3.5996,-3.5996,-3.5996,-3.5996,-3.5996,-3.5996,-3.5996,-3.5996,-3.5996,-3.5996,-3.5996,-3.5996,-3.6133,-3.6328,-3.6307,-3.6418,-3.656,-3.6591,-3.6588,-3.6561,-3.6616,-3.666,-3.666,-3.666,-3.666,-3.6621,-3.6406,-3.6328,0.0,0.0,0.0,0.0,0.0,0.0,0.0,0.0,0.0,0.0,0.0,0.0,0.0,0.0,0.0,0.0,0.0,0.0,0.0,0.0,0.0,0.0,0.0,0.0,0.0,0.0,0.0,0.0,0.0,0.0,0.0,0.0,-4.0797,-4.0797,-4.0797,-4.0797,-4.0797,-4.0797,-4.0797,-4.0797,-4.0797,-4.1408,-4.2156,-4.3001,-4.3019,-4.3465,-4.4272,-4.4286,-4.4717,-4.5422,-4.5646,-4.5719,-4.5698,-4.5698,-4.5682,-4.5629,-4.5629,-4.562,-4.5631,-4.5631,-4.5603,-4.5594,0.0,0.0,0.0,0.0,0.0,0.0,0.0,0.0,0.0,0.0,0.0,0.0,-3.8457,-3.8457,-3.8457,-3.8457,-3.8457,0.0,0.0,0.0,0.0,-3.7266,-3.7226,0.0,-3.6016,-3.5996,-3.5996,-3.5996,-3.5996,-3.5996,-3.5996,-3.5996,-3.5996,-3.5996,-3.5996,-3.5996,-3.5996,-3.5996,-3.6484,-3.7226,-3.7155,-3.7632,-3.8369,-3.8305,-3.8317,-3.8373,-3.8375,-3.841,-3.8457,-3.8457,-3.8457,-3.832,0.0,0.0,0.0,0.0,0.0,0.0,0.0,0.0,0.0,0.0,0.0,0.0,0.0,0.0,0.0,0.0,0.0,0.0,0.0,0.0,0.0,0.0,0.0,0.0,0.0,0.0,0.0,0.0,0.0,0.0,0.0,0.0,0.0,0.0,-4.0797,-4.0797,-4.0797,-4.0797,-4.0797,-4.0797,-4.0797,-4.0797,-4.0797,-4.0906,-4.1364,-4.2155,-4.2229,-4.2645,-4.3363,-4.3422,-4.3895,-4.4703,-4.5467,-4.5758,-4.57,-4.57,-4.57,-4.57,-4.57,-4.5695,-4.5693,-4.5693,-4.5648,-4.5594,0.0,0.0,0.0,0.0,0.0,0.0,0.0,0.0,0.0,0.0,0.0,0.0,0.0,-3.8594,-3.8594,-3.8594,-3.8594,0.0,0.0,0.0,0.0,-3.8144,-3.8125,-3.7988,-3.7676,-3.7676,-3.7676,-3.7676,-3.7676,-3.7676,-3.7676,-3.7676,-3.7676,-3.7637,-3.707,-3.6836,-3.6875,-3.7422,0.0,0.0,0.0,0.0,-3.8432,0.0,0.0,0.0,0.0,0.0,0.0,0.0,0.0,0.0,0.0,0.0,0.0,0.0,0.0,0.0,0.0,0.0,0.0,0.0,0.0,0.0,0.0,0.0,0.0,0.0,0.0,0.0,0.0,0.0,0.0,0.0,0.0,0.0,0.0,0.0,0.0,0.0,0.0,0.0,0.0,0.0,0.0,0.0,0.0,-4.0797,-4.0797,-4.0797,-4.0797,-4.0797,-4.0797,-4.0797,-4.0797,-4.082,-4.0997,-4.133,-4.1347,-4.1776,-4.2535,-4.26,-4.3044,-4.3827,-4.4718,-4.5357,-4.5765,-4.5765,-4.575,-4.5708,-4.5708,-4.57,-4.5703,-4.5703,-4.5679,-4.5657,0.0,0.0,0.0,0.0,0.0,0.0,0.0,0.0,0.0,-3.9434,0.0,0.0,0.0,0.0,-3.9473,-3.9473,-3.9473,-3.9473,-3.9473,-3.9473,-3.9336,-3.9043,-3.9043,-3.8906,-3.8613,-3.8301,-3.8301,-3.8594,-3.8301,-3.8301,-3.8594,-3.8594,-3.8594,-3.8594,-3.8301,-3.8008,0.0,0.0,0.0,-3.9023,0.0,0.0,-3.9312,0.0,0.0,0.0,0.0,0.0,0.0,0.0,0.0,0.0,0.0,0.0,0.0,0.0,0.0,0.0,0.0,0.0,0.0,0.0,0.0,0.0,0.0,0.0,0.0,0.0,0.0,0.0,0.0,0.0,0.0,0.0,0.0,0.0,0.0,0.0,0.0,0.0,0.0,0.0,0.0,0.0,0.0,0.0,0.0,0.0,-4.0877,-4.0877,-4.0877,-4.0877,-4.0877,-4.0877,-4.0877,-4.0877,-4.0893,-4.0937,-4.0964,-4.1233,-4.173,-4.1792,-4.2225,-4.2967,-4.3562,-4.4412,-4.5416,-4.5687,-4.5769,-4.5727,-4.5727,-4.5739,-4.5723,-4.5723,-4.5719,-4.5706,0.0,0.0,0.0,0.0,0.0,0.0,0.0,0.0,-4.0234,-4.1094,0.0,0.0,0.0,0.0,0.0,-4.1191,-4.1191,-4.1191,-4.1191,-4.1191,-4.082,-3.998,0.0,0.0,-3.8691,-3.7851,-3.7832,-3.8672,-3.7832,-3.7851,-3.8672,-3.8672,-3.8672,-3.8711,-3.9551,-3.9473,-3.8672,0.0,-3.916,-3.9922,0.0,-4.0348,-4.1085,0.0,0.0,0.0,-4.1109,-4.1144,0.0,-4.1191,0.0,0.0,0.0,0.0,0.0,0.0,0.0,0.0,0.0,0.0,0.0,0.0,0.0,0.0,0.0,0.0,0.0,0.0,0.0,0.0,0.0,0.0,0.0,0.0,0.0,0.0,0.0,0.0,0.0,0.0,0.0,0.0,0.0,0.0,0.0,0.0,-4.0953,-4.099,-4.099,-4.099,-4.099,-4.099,-4.099,-4.099,-4.099,-4.099,-4.0994,-4.0997,-4.107,-4.1068,-4.1016,-4.1072,-4.1497,-4.2156,-4.2114,-4.3039,-4.4588,-4.542,-4.5768,-4.5768,-4.5787,-4.5805,-4.5807,-4.5807,-4.5765,-4.5708,0.0,0.0,0.0,0.0,0.0,0.0,-4.0778,-4.08,-4.0937,0.0,0.0,0.0,-4.1191,-4.1191,-4.1191,-4.1191,-4.1191,-4.1191,-4.1191,-4.1191,-4.1094,-4.0859,-4.084,-4.0723,-4.0488,-4.0234,-4.0234,-4.0488,-4.0234,-4.0234,-4.0488,-4.0488,-4.0488,-4.0488,-4.0723,-4.0703,-4.0488,-4.0488,0.0,0.0,-4.0819,-4.093,0.0,0.0,0.0,0.0,0.0,-4.1144,-4.1191,0.0,-4.1191,-4.1152,0.0,0.0,0.0,0.0,0.0,0.0,-3.8242,0.0,0.0,0.0,0.0,0.0,0.0,0.0,0.0,0.0,0.0,0.0,0.0,0.0,0.0,0.0,0.0,0.0,0.0,0.0,0.0,0.0,0.0,0.0,0.0,0.0,0.0,0.0,-4.0981,-4.099,-4.099,-4.099,-4.099,-4.099,-4.099,-4.099,-4.099,-4.099,-4.1014,-4.1074,-4.1085,-4.1085,-4.1074,-4.1144,-4.1229,-4.1364,-4.1972,-4.2474,-4.2974,-4.4369,-4.4929,-4.4987,-4.5568,-4.58,-4.5812,-4.5812,-4.5783,-4.5773,0.0,0.0,0.0,0.0,0.0,-4.1092,-4.1092,-4.1152,-4.1191,0.0,0.0,0.0,-4.1191,-4.1191,-4.1191,-4.1191,-4.1191,-4.1191,-4.1191,-4.1191,-4.1191,-4.1191,-4.1191,-4.1191,-4.1191,-4.084,-4.084,-4.1191,-4.084,-4.084,-4.1191,-4.1191,-4.1191,-4.1191,-4.1191,0.0,0.0,0.0,0.0,0.0,-4.1191,0.0,0.0,-4.1144,-4.1144,0.0,0.0,0.0,-4.1191,-4.1191,-4.1191,0.0,0.0,0.0,0.0,0.0,0.0,0.0,0.0,0.0,0.0,0.0,0.0,0.0,-3.5953,-3.5828,0.0,0.0,0.0,0.0,0.0,0.0,0.0,0.0,0.0,0.0,0.0,0.0,0.0,0.0,0.0,0.0,0.0,-3.9939,-4.0111,-4.0465,-4.0522,-4.0707,-4.1058,-4.1078,-4.1078,-4.1078,-4.1078,-4.107,-4.103,-4.103,-4.1066,-4.1109,-4.1109,-4.1115,-4.1144,-4.1171,-4.1167,-4.1117,-4.1591,-4.1766,-4.1799,-4.3028,-4.3981,-4.4698,-4.5169,-4.5525,-4.5807,-4.5807,-4.5793,-4.5791,0.0,0.0,0.0,-4.1108,-4.111,-4.1112,-4.1112,-4.1152,-4.1191,0.0,-4.1191,-4.1191,-4.1191,-4.1191,-4.1191,-4.1191,-4.1191,-4.1191,-4.1191,-4.1191,-4.1191,-4.1191,-4.1191,-4.1191,-4.1191,-4.0449,-4.043,-4.1191,-4.043,-4.0449,-4.1191,-4.1191,-4.1191,-4.1191,0.0,0.0,0.0,0.0,0.0,-4.1191,-4.1191,-4.1191,0.0,0.0,-4.1191,-4.1191,-4.1191,-4.1191,-4.1191,-4.1191,-4.1191,0.0,0.0,0.0,0.0,0.0,-4.0644,0.0,0.0,0.0,0.0,0.0,0.0,0.0,-3.6181,-3.5968,-3.5916,0.0,0.0,0.0,0.0,0.0,0.0,0.0,0.0,0.0,0.0,0.0,0.0,0.0,0.0,0.0,-3.8291,-3.8339,-3.8651,-3.9336,-3.9606,-4.0137,-4.1016,-4.1152,-4.1191,-4.1191,-4.1191,-4.117,-4.1114,-4.1114,-4.1114,-4.1114,-4.1114,-4.1144,-4.1191,-4.1191,-4.1191,-4.1191,-4.1121,-4.1072,-4.1067,-4.1727,-4.2932,-4.4416,-4.4505,-4.5006,-4.5671,-4.5685,-4.5724,-4.5807,0.0,0.0,0.0,-4.1171,-4.1172,-4.1172,-4.1172,-4.1191,-4.1191,-4.1191,-4.1191,-4.1191,-4.1191,-4.1191,-4.1191,-4.1191,-4.1191,-4.1191,-4.1191,-4.1191,-4.1191,-4.1191,-4.1191,-4.1191,-4.1191,-4.1035,-4.1035,-4.1191,-4.1035,-4.1035,-4.1191,-4.1191,-4.1191,-4.1191,-4.1191,0.0,0.0,0.0,0.0,-4.1191,-4.1191,0.0,-4.1191,-4.1191,-4.1191,-4.1191,-4.1191,-4.1191,-4.1191,0.0,-4.1191,-4.1191,0.0,0.0,0.0,0.0,0.0,0.0,0.0,0.0,0.0,0.0,0.0,0.0,-3.7205,-3.7011,-3.6796,0.0,0.0,0.0,0.0,0.0,0.0,0.0,0.0,0.0,0.0,0.0,0.0,0.0,0.0,0.0,-3.7574,-3.7537,-3.7304,-3.6776,-3.8047,-3.9238,-4.0117,-4.082,-4.1191,-4.1191,-4.1191,-4.1191,-4.1171,-4.1171,-4.1171,-4.1171,-4.1171,-4.1191,-4.1191,-4.1191,-4.1191,-4.1191,-4.1121,-4.1119,-4.1167,-4.1257,-4.177,-4.2601,-4.3366,-4.4147,-4.4846,-4.489,-4.5292,-4.5807,0.0,0.0,0.0,-4.1146,-4.1171,-4.1348,-4.1738,-4.1797,-4.1953,-4.2383,-4.2441,-4.2441,-4.2441,-4.2441,-4.2441,-4.2441,-4.2441,-4.2266,-4.1836,-4.1797,-4.1621,-4.1211,-4.1191,-4.1191,-4.1191,-4.1191,-4.1191,-4.1191,-4.1191,-4.1191,-4.1191,-4.1191,-4.1191,-4.1191,-4.1191,0.0,0.0,0.0,-4.1191,-4.1191,-4.1191,0.0,-4.1191,-4.1191,-4.1191,-4.1191,-4.1191,-4.1191,-4.1191,-4.1191,-4.1191,0.0,0.0,-4.1172,-4.1152,0.0,-4.113,-4.1106,0.0,0.0,0.0,-3.9963,0.0,0.0,0.0,-3.7557,-3.7109,-3.6607,0.0,0.0,0.0,0.0,0.0,0.0,0.0,0.0,0.0,0.0,0.0,0.0,0.0,0.0,-3.6699,-3.6269,-3.582,-3.5371,-3.6973,-3.8144,-3.8574,-3.9844,-4.0547,-4.0547,-4.0976,-4.1191,-4.1191,-4.1191,-4.1191,-4.1191,-4.1191,-4.1191,-4.1191,-4.1191,-4.1191,-4.1191,-4.1169,-4.1146,-4.1146,-4.1115,-4.1268,-4.1592,-4.2494,-4.3292,-4.4021,-4.4555,-4.4935,-4.5272,-4.1459,0.0,0.0,0.0,-4.1633,-4.1894,-4.2558,-4.2656,-4.2891,-4.3613,-4.3691,-4.3691,-4.3691,-4.3691,-4.3691,-4.3691,-4.3691,-4.3398,-4.2695,-4.2656,-4.2285,-4.1465,-4.1426,-4.1367,-4.1191,-4.1191,-4.1191,-4.1191,-4.1191,-4.1191,-4.1191,-4.1191,-4.1191,-4.1191,-4.1191,0.0,0.0,0.0,0.0,-4.1191,0.0,-4.1191,-4.1191,-4.1191,-4.1191,-4.1191,-4.1191,-4.1191,-4.1191,-4.1191,0.0,-4.1172,-4.1172,-4.1132,0.0,0.0,0.0,0.0,0.0,0.0,0.0,0.0,0.0,-3.9826,0.0,0.0,0.0,-3.7213,0.0,0.0,0.0,0.0,0.0,0.0,0.0,0.0,0.0,0.0,0.0,0.0,0.0,0.0,-3.5762,-3.4961,-3.4453,-3.4453,-3.5918,-3.6875,-3.7031,-3.8535,-3.9551,-3.9883,-4.0586,-4.1035,-4.1191,-4.1191,-4.1191,-4.1191,-4.1191,-4.1191,-4.1191,-4.1191,-4.1191,-4.1191,-4.1191,-4.1168,-4.1117,-4.1111,-4.107,-4.1092,-4.1796,-4.2489,-4.3181,-4.4012,-4.4447,-4.4737,-4.3102,-4.3183,0.0,0.0,-4.3315,-4.3385,-4.3535,-4.3555,-4.3594,-4.3691,-4.3691,-4.3691,-4.3691,0.0,0.0,0.0,0.0,0.0,-4.3555,0.0,-4.3164,-4.2305,-4.2266,-4.1933,-4.1211,-4.1191,-4.1191,-4.1191,-4.1191,-4.1191,-4.1191,-4.1191,-4.1191,0.0,-4.1191,0.0,0.0,0.0,-4.1191,0.0,-4.1191,-4.1191,0.0,-4.1191,-4.1191,-4.1191,-4.1191,-4.1191,-4.1191,0.0,-4.1152,-4.1112,0.0,-4.111,-4.1108,0.0,0.0,0.0,0.0,0.0,0.0,0.0,-4.0953,0.0,0.0,0.0,-3.9085,-3.7585,0.0,0.0,0.0,0.0,0.0,0.0,0.0,0.0,0.0,0.0,0.0,0.0,0.0,0.0,0.0,-3.4062,-3.3555,-3.3555,-3.4453,-3.5332,-3.6113,-3.707,-3.8301,-3.9844,-4.0,-4.043,-4.1191,-4.1191,-4.1191,-4.1191,-4.1191,-4.1191,-4.1191,-4.1191,-4.1191,-4.1191,-4.1142,-4.1144,-4.1171,-4.1119,-4.1106,-4.1103,-4.1205,-4.1646,-4.2267,-4.2504,-4.3484,-4.4709,-4.3536,-4.3393,0.0,0.0,0.0,0.0,-4.4302,-4.4861,-4.5215,-4.5215,-4.5215,-4.5215,0.0,0.0,0.0,0.0,0.0,-4.498,0.0,0.0,-4.4062,-4.3183,0.0,0.0,-4.2656,-4.2656,-4.2402,-4.1894,-4.1894,-4.166,-4.1191,-4.1191,-4.1191,0.0,-4.1191,0.0,-4.1191,0.0,-4.1191,0.0,0.0,0.0,0.0,-4.1191,-4.1191,-4.1191,-4.1191,-4.1172,-4.1132,0.0,-4.1111,0.0,0.0,0.0,0.0,0.0,0.0,0.0,0.0,0.0,0.0,0.0,0.0,0.0,-4.0639,0.0,-3.9468,0.0,0.0,0.0,0.0,0.0,0.0,0.0,-3.6,0.0,0.0,0.0,0.0,0.0,0.0,0.0,0.0,0.0,0.0,-3.3437,-3.373,-3.4101,-3.4473,-3.5801,-3.6875,-3.7617,-3.9101,-4.0078,-4.0449,-4.0957,-4.1191,-4.1191,-4.1191,-4.1191,-4.1191,-4.1191,-4.1191,-4.1191,-4.117,-4.117,-4.1191,-4.117,-4.1168,-4.1168,-4.1168,-4.1289,-4.1528,-4.2145,-4.306,-4.4086,-4.4247,0.0,0.0,0.0,0.0,0.0,0.0,0.0,0.0,0.0,0.0,0.0,-4.6308,-4.6308,0.0,0.0,-4.6308,-4.6035,0.0,0.0,-4.4961,0.0,0.0,0.0,0.0,0.0,-4.3398,-4.2754,-4.2754,-4.2461,-4.1875,-4.1641,-4.1523,-4.1523,0.0,-4.1191,-4.1191,0.0,0.0,-4.1191,-4.1191,-4.1191,-4.1191,-4.1191,-4.1191,-4.1191,-4.1172,-4.1132,-4.1092,-4.1091,-4.1108,0.0,-4.1105,0.0,0.0,0.0,0.0,0.0,-4.1109,0.0,0.0,0.0,0.0,0.0,0.0,0.0,0.0,0.0,0.0,0.0,0.0,0.0,0.0,0.0,0.0,-3.6,0.0,0.0,0.0,0.0,0.0,0.0,0.0,0.0,0.0,0.0,0.0,-3.3652,-3.3418,-3.4609,-3.5508,-3.5976,-3.8066,-3.9414,-3.9902,-4.0762,-4.1191,-4.1191,-4.1191,-4.1191,-4.1191,-4.1191,-4.1191,-4.1191,-4.1191,-4.1191,-4.1191,-4.1191,-4.1191,-4.1191,-4.1191,-4.1143,-4.1146,-4.1813,-4.2545,-4.3304,-4.5796,-4.593,0.0,0.0,0.0,0.0,0.0,0.0,0.0,0.0,0.0,0.0,0.0,0.0,0.0,0.0,0.0,-4.6289,-4.6269,0.0,-4.5879,0.0,0.0,-4.4551,0.0,0.0,0.0,-4.3652,-4.3652,-4.3652,-4.3594,-4.2754,-4.2363,-4.2324,-4.1543,-4.1191,-4.1191,-4.1191,-4.1191,-4.1191,-4.1191,-4.1191,-4.1191,0.0,-4.1191,-4.1191,-4.1132,0.0,0.0,-4.1108,-4.1104,0.0,0.0,0.0,0.0,0.0,0.0,0.0,0.0,0.0,0.0,-4.1109,0.0,0.0,0.0,0.0,-4.0816,0.0,0.0,0.0,0.0,0.0,-3.5992,-3.5992,-3.5992,0.0,0.0,0.0,0.0,0.0,0.0,0.0,0.0,0.0,0.0,0.0,0.0,-3.4296,-3.3457,-3.3457,-3.4258,-3.5957,-3.6894,-3.8184,-3.9883,-4.0762,-4.1191,-4.1191,-4.1191,-4.1191,-4.1191,-4.1191,-4.1191,-4.1191,-4.1191,-4.1191,-4.1191,-4.1191,-4.1191,-4.1191,-4.1191,-4.1191,-4.1191,-4.123,-4.1714,-4.2479,0.0,0.0,0.0,0.0,0.0,0.0,0.0,-4.6267,0.0,0.0,0.0,0.0,0.0,0.0,-4.6308,0.0,0.0,-4.6308,-4.6308,-4.6308,0.0,0.0,0.0,-4.5723,0.0,0.0,0.0,0.0,0.0,-4.4277,-4.3691,-4.3398,-4.3262,-4.3242,0.0,-4.2539,0.0,0.0,0.0,0.0,0.0,-4.1523,-4.1933,0.0,-4.1172,-4.1132,-4.1112,-4.1109,0.0,-4.1102,-4.1098,-4.1093,-4.1093,-4.1091,-4.1109,-4.1109,-4.1109,-4.1109,0.0,0.0,-4.1109,-4.1109,0.0,0.0,0.0,0.0,0.0,0.0,0.0,0.0,0.0,0.0,-3.5992,-3.5992,-3.5992,-3.5992,0.0,0.0,0.0,0.0,0.0,0.0,0.0,0.0,0.0,0.0,0.0,0.0,-3.4277,-3.3711,-3.3926,-3.5098,-3.6543,-3.7851,-3.9023,-4.0488,-4.1191,-4.1191,-4.1191,-4.1191,-4.1191,-4.1191,-4.1191,-4.1191,-4.1191,-4.1191,-4.1191,-4.1191,-4.1191,-4.1191,-4.1191,-4.1191,-4.1191,-4.1191,-4.1699,-4.2575,-4.5789,0.0,0.0,0.0,0.0,0.0,0.0,0.0,0.0,0.0,-4.6308,0.0,-4.6308,0.0,-4.6308,0.0,-4.6308,-4.6308,-4.6308,-4.6308,0.0,-4.6308,-4.6308,0.0,0.0,0.0,0.0,0.0,0.0,-4.5176,-4.4629,-4.4316,-4.416,-4.4141,0.0,-4.3398,-4.2851,0.0,-4.2558,0.0,0.0,-4.2207,0.0,0.0,-4.1601,-4.1521,0.0,-4.1104,-4.1098,-4.1097,-4.1093,-4.1109,-4.1109,-4.1109,-4.1109,-4.1109,-4.1109,-4.1109,-4.1109,-4.1109,0.0,-4.1109,-4.1109,0.0,-4.1109,0.0,0.0,0.0,0.0,0.0,0.0,0.0,-3.6363,-3.6051,-3.5992,-3.5992,0.0,-3.5992,0.0,0.0,0.0,0.0,0.0,0.0,0.0,0.0,0.0,0.0,0.0,-3.3867,-3.3809,-3.4668,-3.6094,-3.7402,-3.8594,-4.0332,-4.1191,-4.1191,-4.1191,-4.1191,-4.1191,-4.1191,-4.1191,-4.1191,-4.1191,-4.1191,-4.1191,-4.1191,-4.1191,-4.1191,-4.1191,-4.1191,-4.1191,-4.1191,-4.1914,-4.3027,0.0,0.0,0.0,0.0,-4.6199,0.0,0.0,0.0,-4.6289,0.0,-4.6308,-4.6308,-4.6308,-4.6308,-4.6308,-4.6308,-4.6308,0.0,-4.6308,-4.6308,0.0,0.0,-4.6308,-4.6308,-4.6308,0.0,0.0,0.0,0.0,0.0,-4.6289,-4.5449,-4.5058,-4.5039,-4.4199,0.0,-4.3769,-4.3769,-4.373,-4.3691,-4.3691,-4.3222,-4.2517,-4.2478,-4.2498,-4.2399,-4.1434,-4.1098,-4.1097,-4.1091,-4.1109,-4.1109,-4.1109,-4.1109,-4.1109,-4.1109,-4.1109,-4.1109,-4.1109,-4.1109,-4.1109,-4.1109,-4.1109,0.0,0.0,0.0,-4.1109,0.0,0.0,0.0,0.0,0.0,0.0,-3.6148,-3.5992,-3.5992,-3.5992,0.0,0.0,0.0,0.0,0.0,0.0,0.0,0.0,0.0,0.0,0.0,0.0,-3.3945,-3.3867,-3.4746,-3.5605,-3.6875,-3.8574,-4.0332,-4.1191,-4.1191,-4.1191,-4.1191,-4.1191,-4.1191,-4.1191,-4.1191,-4.1191,-4.1191,-4.1191,-4.1191,-4.1191,-4.1191,-4.1191,-4.1191,-4.1191,-4.1191,-4.2266,-4.3691,-4.5635,-4.5737,-4.584,0.0,-4.5974,-4.6039,0.0,0.0,0.0,0.0,-4.6308,-4.6308,-4.6308,-4.6308,-4.6308,-4.6308,-4.6308,0.0,0.0,0.0,0.0,-4.6308,-4.6308,-4.6308,-4.6308,-4.6308,0.0,-4.6308,0.0,0.0,-4.6308,-4.6074,-4.5976,0.0,0.0,0.0,-4.4668,-4.4668,-4.4297,-4.3691,-4.3691,-4.3944,0.0,0.0,-4.3777,-4.4051,-4.188,-4.1095,-4.1091,-4.1109,-4.1109,-4.1109,-4.1109,-4.1109,-4.1109,-4.1109,-4.1109,-4.1109,-4.1109,-4.1109,-4.1109,-4.1109,-4.1109,-4.1109,0.0,0.0,0.0,0.0,0.0,0.0,0.0,0.0,0.0,0.0,-3.5992,0.0,0.0,0.0,0.0,-3.5992,0.0,0.0,0.0,0.0,0.0,0.0,0.0,0.0,0.0,0.0,-3.4765,-3.5644,-3.6504,-3.748,-3.8594,-4.0332,-4.1191,-4.1191,-4.1191,-4.1191,-4.1191,-4.1191,-4.1191,-4.1191,-4.1191,-4.1191,-4.1191,-4.1191,-4.1191,-4.1191,-4.1191,-4.1191,-4.1191,-4.1191,-4.2266,-4.3691,-4.5594,0.0,0.0,-4.5751,0.0,0.0,-4.6075,0.0,0.0,-4.6289,-4.6308,0.0,-4.6308,-4.6308,-4.6308,-4.6308,-4.6308,0.0,-4.6308,0.0,0.0,-4.6308,-4.6308,-4.6308,-4.6308,-4.6308,0.0,-4.6308,0.0,0.0,-4.6308,-4.6308,0.0,0.0,0.0,-4.6035,0.0,-4.5566,-4.5293,-4.4843,-4.4842,0.0,0.0,-4.446,-4.4338,-4.4239,-4.2753,-4.1991,-4.1674,-4.1674,-4.142,-4.1109,-4.1109,-4.1109,-4.1109,-4.1109,-4.1109,-4.1109,-4.1109,-4.1109,-4.1109,-4.1109,-4.1109,-4.1109,-4.1109,-4.1109,-4.1109,0.0,-4.0717,-4.0015,0.0,0.0,0.0,0.0,0.0,0.0,0.0,0.0,0.0,0.0,0.0,0.0,0.0,0.0,0.0,0.0,0.0,0.0,0.0,0.0,-3.5097,-3.5976,-3.6484,-3.7324,-3.8594,-3.9941,-4.082,-4.1191,-4.1191,-4.1191,-4.1191,-4.1191,-4.1191,-4.1191,-4.1191,-4.1191,-4.1191,-4.1191,-4.1191,-4.1191,-4.1191,-4.1191,-4.1191,-4.1191,-4.2012,-4.3183,0.0,0.0,0.0,0.0,0.0,0.0,0.0,-4.6198,0.0,-4.6308,0.0,-4.6308,-4.6308,-4.6308,-4.6308,-4.6308,0.0,-4.6308,-4.6308,-4.6308,-4.6308,-4.6308,-4.6308,-4.6308,-4.6308,-4.6308,0.0,0.0,0.0,0.0,-4.6308,0.0,0.0,0.0,0.0,0.0,0.0,-4.6308,-4.6308,-4.6307,-4.6306,-4.5853,-4.518,-4.5178,-4.4706,-4.4037,-4.4037,-4.3411,-4.2552,-4.2435,-4.1908,-4.1246,-4.1148,-4.1109,-4.1109,-4.1109,-4.1109,-4.1109,-4.1109,-4.1109,-4.1109,-4.1109,-4.1109,-4.1109,-4.1109,-4.1109,-4.1109,-4.1109,-4.1109,-4.0621,-3.906,0.0,0.0,0.0,0.0,0.0,0.0,0.0,0.0,0.0,0.0,0.0,0.0,0.0,0.0,0.0,0.0,0.0,0.0,0.0,-3.5214,-3.5976,-3.6211,-3.7012,-3.8418,-3.9512,-4.0391,-4.1035,-4.1152,-4.1191,-4.1191,-4.1191,-4.1191,-4.1191,-4.1191,-4.1191,-4.1191,-4.1191,-4.1191,-4.1191,-4.1191,-4.1191,-4.1191,-4.1191,-4.1719,-4.2519,0.0,0.0,0.0,0.0,0.0,-4.5881,-4.5924,-4.6045,-4.6174,-4.6289,-4.6308,-4.6308,-4.6308,-4.6308,-4.6308,-4.6308,-4.6308,0.0,0.0,0.0,0.0,-4.6308,-4.6308,-4.6308,-4.6308,-4.6308,-4.6308,0.0,0.0,0.0,-4.6308,0.0,0.0,0.0,0.0,0.0,-4.6308,-4.6308,0.0,-4.6307,-4.6304,-4.6202,-4.6078,-4.6071,-4.5989,-4.5831,-4.5831,-4.4816,-4.3352,-4.265,-4.2298,-4.2045,-4.1324,-4.1109,-4.1109,-4.1109,-4.1109,-4.1109,-4.1109,-4.1109,-4.1109,-4.1109,-4.1109,-4.1109,-4.1109,-4.1109,-4.1109,-4.1109,-4.1109,-4.0797,-3.978,0.0,0.0,0.0,0.0,0.0,0.0,0.0,0.0,0.0,0.0,0.0,0.0,0.0,0.0,0.0,0.0,0.0,0.0,0.0,-3.5837,0.0,-3.7383,-3.7949,0.0,0.0,-4.0684,-4.0137,-4.0859,-4.1191,-4.1191,-4.1191,-4.1191,-4.1191,-4.1191,-4.1191,-4.1191,-4.1191,-4.1191,-4.1191,-4.1191,-4.1191,-4.1191,-4.1191,-4.1719,-4.2519,0.0,0.0,0.0,0.0,0.0,0.0,0.0,-4.6368,0.0,-4.6347,-4.6308,-4.6308,-4.6308,-4.6308,-4.6308,-4.6308,-4.6308,-4.6308,-4.6308,-4.6308,-4.6308,-4.6308,-4.6308,0.0,-4.6308,-4.6308,-4.6308,-4.6308,0.0,0.0,-4.6243,0.0,0.0,0.0,0.0,-4.6308,0.0,0.0,0.0,-4.6305,-4.63,-4.6294,-4.6306,-4.6302,-4.63,-4.63,-4.63,-4.5753,-4.4914,-4.4036,-4.345,-4.2923,-4.2045,-4.1771,-4.1693,-4.1226,-4.1109,-4.1109,-4.1109,-4.1109,-4.1109,-4.1109,-4.1109,-4.1109,-4.1109,-4.1109,-4.1109,-4.1109,-4.1109,-4.0836,-3.9956,-3.8804,0.0,0.0,0.0,0.0,0.0,0.0,0.0,0.0,0.0,0.0,0.0,0.0,0.0,0.0,0.0,0.0,0.0,0.0,-3.6205,0.0,0.0,0.0,-3.8631,0.0,-4.0527,-4.0527,-4.0976,-4.1191,-4.1191,-4.1191,-4.1191,-4.1191,-4.1191,-4.1191,-4.1191,-4.1191,-4.1191,-4.1191,-4.1191,-4.1191,-4.125,-4.168,-4.207,-4.2519,0.0,-4.5648,0.0,0.0,-4.5956,0.0,-4.6185,-4.6979,-4.7326,-4.6637,-4.6698,-4.6815,-4.6855,-4.6699,-4.6582,-4.6582,-4.6406,-4.6308,-4.6308,-4.6308,-4.6308,-4.6308,-4.6308,-4.6308,-4.6308,-4.6308,-4.6308,0.0,0.0,0.0,0.0,0.0,0.0,0.0,0.0,0.0,0.0,0.0,-4.6305,-4.6301,-4.6295,-4.6308,-4.63,-4.63,-4.63,-4.63,-4.63,-4.63,-4.6202,-4.5519,-4.4699,-4.3821,-4.2942,-4.2552,-4.2279,-4.1576,-4.1246,-4.1109,-4.1109,-4.1109,-4.1109,-4.1109,-4.1109,-4.1109,-4.1109,-4.1109,-4.1109,-4.1109,-4.1109,-4.0894,-4.019,-3.9409,0.0,0.0,0.0,0.0,0.0,0.0,0.0,0.0,0.0,0.0,0.0,0.0,0.0,0.0,0.0,0.0,-3.6002,0.0,0.0,0.0,0.0,-3.8236,-3.9603,0.0,-4.0388,-4.0857,-4.1074,-4.1191,-4.1191,-4.1191,-4.1191,-4.1191,-4.1191,-4.1191,-4.1191,-4.1191,-4.1191,-4.1211,-4.1387,-4.1465,-4.1543,-4.2363,-4.2793,-4.3047,0.0,0.0,0.0,0.0,0.0,0.0,-4.7078,-4.7889,-4.8224,-4.7471,-4.8021,-4.852,-4.8633,-4.7949,-4.748,-4.748,-4.6758,-4.6308,-4.6308,-4.6308,-4.6308,-4.6308,-4.6308,-4.6308,-4.6308,-4.6308,-4.6308,0.0,0.0,-4.6266,0.0,0.0,0.0,0.0,0.0,0.0,0.0,-4.6307,-4.6305,-4.6301,-4.6295,-4.6308,-4.63,-4.63,-4.63,-4.63,-4.63,-4.63,-4.628,-4.6202,-4.5597,-4.4738,-4.384,-4.304,-4.2376,-4.2298,-4.1713,-4.1109,-4.1109,-4.1109,-4.1109,-4.1109,-4.1109,-4.1109,-4.1109,-4.1109,-4.1109,-4.1109,-4.1109,-4.109,-4.0992,-4.0268,-3.9429,0.0,0.0,0.0,0.0,0.0,0.0,0.0,0.0,0.0,0.0,-3.5992,0.0,0.0,0.0,0.0,0.0,0.0,0.0,-3.7272,-3.8078,-3.8567,-3.8724,-4.0228,-4.066,-4.0018,-4.076,-4.1132,-4.1191,-4.1191,-4.1191,-4.1191,-4.1191,-4.1191,-4.1191,-4.1191,-4.1191,-4.1269,-4.1992,-4.2285,-4.2383,-4.3262,-4.4082,-4.4766,0.0,0.0,0.0,0.0,0.0,0.0,0.0,-4.8687,-4.9225,-4.8961,-4.8799,-4.8751,-4.8886,-4.8594,-4.8164,-4.7656,-4.7285,-4.6855,-4.6328,-4.6308,-4.6308,-4.6308,-4.6308,-4.6308,-4.6308,-4.6308,-4.6308,0.0,0.0,0.0,0.0,0.0,0.0,0.0,0.0,-4.6308,-4.6308,-4.6306,-4.6301,-4.6296,-4.6309,-4.6303,-4.63,-4.63,-4.63,-4.63,-4.63,-4.63,-4.63,-4.63,-4.6066,-4.5636,-4.4758,-4.4231,-4.3741,-4.2708,-4.2142,-4.1771,-4.1246,-4.1109,-4.1109,-4.1109,-4.1109,-4.1109,-4.1109,-4.1109,-4.1109,-4.1109,-4.1109,-4.1109,-4.1109,-4.0816,-4.0307,-3.9468,0.0,0.0,0.0,0.0,0.0,0.0,0.0,0.0,0.0,0.0,0.0,0.0,0.0,0.0,0.0,0.0,0.0,-3.8049,0.0,-3.9087,-4.0081,-4.0769,-4.0947,-4.0617,-4.0951,-4.1086,-4.1074,-4.1129,-4.1152,-4.1191,-4.1191,-4.1191,-4.123,-4.1719,-4.1914,-4.1992,-4.2851,-4.3183,-4.3281,-4.416,-4.4707,-4.5078,-4.8105,0.0,-4.8188,0.0,-4.845,-4.8662,-4.8662,-4.9488,-5.0149,-5.0208,-4.977,-4.9481,-4.9629,-4.9414,-4.8926,-4.8066,-4.7754,-4.7226,-4.6367,-4.6308,-4.6308,-4.6308,-4.6308,0.0,-4.6308,-4.6308,-4.6308,-4.6308,-4.6238,0.0,0.0,0.0,0.0,0.0,-4.6287,-4.6308,-4.6307,-4.6302,-4.6297,-4.6293,-4.6303,-4.63,-4.63,-4.63,-4.63,-4.63,-4.63,-4.63,-4.63,-4.63,-4.63,-4.6183,-4.5578,-4.5207,-4.4756,-4.3528,-4.2806,-4.2279,-4.1654,-4.1304,-4.1109,-4.1109,-4.1109,-4.1109,-4.1109,-4.1109,-4.1109,-4.1109,-4.1109,-4.1109,-4.1109,-4.1109,-4.0816,-3.9937,0.0,0.0,0.0,0.0,0.0,0.0,-3.5992,-3.5992,-3.5992,0.0,0.0,0.0,0.0,0.0,0.0,0.0,0.0,0.0,0.0,0.0,-4.109,-4.1083,-4.1064,-4.1065,-4.1023,-4.0988,-4.0939,-4.1003,-4.1078,-4.1122,-4.1377,-4.1495,-4.1553,-4.2398,-4.2751,-4.2849,-4.373,-4.4082,-4.4199,-4.5058,-4.5371,-4.5469,-4.8105,-4.8142,-4.8188,-4.8188,-4.8906,-4.9491,-4.9491,-5.0276,-5.0906,-5.0985,-5.1094,-5.1219,-5.1366,-5.0664,-4.9824,-4.8965,-4.8105,-4.7226,-4.6367,-4.6308,-4.6308,0.0,0.0,-4.6308,-4.6308,-4.6308,-4.6308,-4.6308,0.0,0.0,-4.6202,0.0,-4.6238,-4.6308,-4.6307,-4.6307,-4.6306,-4.6299,-4.6293,-4.6293,-4.6303,-4.63,-4.63,-4.63,-4.63,-4.63,-4.63,-4.63,-4.63,-4.63,-4.63,-4.63,-4.628,-4.5695,-4.499,-4.4971,-4.3741,-4.2396,-4.2396,-4.1752,-4.1109,-4.1109,-4.1109,-4.1109,-4.1109,-4.1109,-4.1109,-4.1109,-4.1109,-4.1109,-4.1109,-4.1109,-4.0816,-3.9937,0.0,0.0,0.0,0.0,0.0,0.0,-3.5992,-3.5992,-3.5992,0.0,0.0,0.0,0.0,0.0,0.0,0.0,0.0,-3.8572,-3.937,0.0,-4.109,-4.1025,-4.1003,-4.0998,-4.0871,-4.0805,-4.0801,-4.0863,-4.0893,-4.0954,-4.1805,-4.2182,-4.2263,-4.3197,-4.3585,-4.3686,-4.4627,-4.498,-4.5098,-4.5957,-4.6289,-4.6287,-4.9875,-4.9894,-4.9904,-4.9904,-5.0133,-5.0315,-5.0315,-5.0653,-5.0903,-5.0933,-5.1044,-5.1145,-5.1193,-5.1081,-5.0683,0.0,-4.9531,-4.875,0.0,-4.7144,-4.6869,-4.6328,-4.6209,-4.6195,-4.6237,-4.6195,-4.616,-4.616,0.0,0.0,0.0,-4.6056,-4.6072,-4.6106,-4.61,-4.6111,-4.6165,-4.6158,-4.6228,-4.6305,-4.6302,-4.63,-4.63,-4.63,-4.63,-4.63,-4.63,-4.63,-4.63,-4.63,-4.63,-4.63,-4.63,-4.6105,-4.5773,-4.5168,-4.46,-4.3917,-4.2728,-4.2201,-4.1849,-4.1246,-4.1109,-4.1109,-4.1109,-4.1109,-4.1109,-4.1109,-4.1109,-4.1109,-4.1109,-4.1109,-4.1012,-4.0738,-4.019,0.0,0.0,0.0,0.0,0.0,-3.5992,-3.5992,-3.5992,-3.5992,0.0,0.0,0.0,0.0,0.0,0.0,0.0,0.0,-3.9663,0.0,-4.1022,-4.1003,-4.0951,-4.0867,-4.0818,-4.0794,-4.0816,-4.1393,-4.1665,-4.1778,-4.2634,-4.3031,-4.3089,-4.4027,-4.4412,-4.4512,-4.5457,-4.582,-4.586,-4.6185,-4.6305,-4.6304,-5.0712,-5.0712,-5.0712,-5.0712,-5.0693,-5.0692,-5.0692,-5.0778,-5.0809,-5.0809,-5.094,-5.1019,-5.1019,-5.1171,0.0,-5.019,-5.0105,-4.9522,-4.8183,-4.7723,-4.7286,-4.6773,-4.6368,-4.6145,-4.6158,-4.6122,0.0,-4.6098,-4.6067,-4.6022,-4.6002,-4.5993,-4.5992,-4.599,-4.5974,-4.5982,-4.6029,-4.6089,-4.6153,-4.6238,-4.6275,-4.63,-4.63,-4.63,-4.63,-4.63,-4.63,-4.63,-4.63,-4.63,-4.63,-4.63,-4.63,-4.63,-4.6183,-4.5656,-4.5265,-4.4756,-4.3663,-4.3138,-4.2689,-4.181,-4.1596,-4.1498,-4.1168,-4.1109,-4.1109,-4.1109,-4.1109,-4.1109,-4.1109,-4.1109,-4.1109,-4.1109,-4.0639,-3.9995,-3.9177,0.0,0.0,0.0,0.0,0.0,0.0,-3.6989,-3.7204,0.0,0.0,0.0,0.0,0.0,-3.8701,-3.9739,-4.0088,-4.0474,-4.0914,-4.0902,-4.0854,-4.077,-4.1031,-4.1197,-4.1237,-4.2054,-4.2441,-4.251,-4.341,-4.379,-4.3853,-4.4821,-4.5218,-4.5265,-4.5881,-4.615,-4.6208,-4.6223,-4.6254,-4.6299,-5.0712,-5.0712,-5.0712,-5.0712,-5.0712,-5.0712,-5.0712,-5.0702,-5.0692,-5.0692,-5.0805,-5.0879,-5.0879,-5.0992,-5.0801,-5.0125,0.0,0.0,-4.9002,-4.8146,-4.76,-4.7489,-4.6704,-4.6214,-4.6095,-4.6087,-4.6084,-4.6084,-4.6084,-4.6044,-4.5986,-4.5983,-4.5974,-4.5985,-4.5901,-4.5886,-4.5896,-4.6041,-4.6091,-4.6105,-4.624,-4.6298,-4.63,-4.63,-4.63,-4.63,-4.63,-4.63,-4.63,-4.63,-4.63,-4.63,-4.63,-4.63,-4.63,-4.63,-4.5734,-4.5088,-4.501,-4.4406,-4.3587,-4.2708,-4.2435,-4.2181,-4.1382,-4.1148,-4.1109,-4.1109,-4.1109,-4.1109,-4.1109,-4.1109,-4.1109,-4.1109,-4.1109,-4.0797,-3.9917,0.0,0.0,0.0,0.0,0.0,-3.8591,-3.8591,-3.8611,0.0,0.0,0.0,0.0,0.0,-3.9858,-3.9779,-4.0555,-4.0929,-4.0781,-4.0734,-4.0732,-4.0797,-4.1539,-4.1913,-4.2009,-4.2811,-4.3188,-4.3227,-4.4106,-4.4488,-4.4562,-4.5506,-4.5883,-4.5894,-4.5963,-4.6063,-4.6175,-4.6128,-4.6189,-4.629,0.0,0.0,-5.0712,-5.0712,-5.0712,-5.0712,-5.0712,-5.0702,-5.0702,-5.0702,-5.0729,-5.0743,-5.0743,-5.0827,-5.0826,-5.0697,-5.0801,-5.0532,-4.9728,-4.9465,-4.8737,-4.7408,-4.7104,-4.6668,-4.6037,-4.5914,-4.5866,-4.5866,-4.5866,-4.5854,-4.5852,-4.5841,-4.5827,-4.5771,-4.5749,-4.5773,-4.5829,-4.5854,-4.5954,-4.6102,-4.6138,-4.6211,-4.63,-4.63,-4.63,-4.63,-4.63,-4.63,-4.63,-4.63,-4.63,-4.63,-4.63,-4.63,-4.63,-4.63,-4.6144,-4.5851,-4.5187,-4.4855,-4.4484,-4.3606,-4.2884,-4.2357,-4.2142,-4.1576,-4.1109,-4.1109,-4.1109,-4.1109,-4.1109,-4.1109,-4.1109,-4.1109,-4.1109,-4.0797,-3.9917,-3.98,-3.9507,0.0,-3.8591,-3.8591,-3.8591,-3.8591,-3.8845,0.0,0.0,-3.9875,-4.0725,-4.0773,-4.0703,-4.0535,-4.0745,-4.0815,-4.0723,-4.0712,-4.099,-4.1543,-4.239,-4.2794,-4.2834,-4.3657,-4.4025,-4.4064,-4.4999,-4.5382,-4.5409,-4.565,-4.5757,-4.5752,-4.5828,-4.5869,-4.5914,-4.6057,-4.6122,-4.6156,-5.0712,-5.0712,-5.0712,-5.0712,-5.0712,-5.0712,-5.0712,-5.0712,-5.0827,-5.1202,-5.0943,-5.0837,-5.1203,-5.0942,-5.0763,-5.0816,-5.0959,-5.0892,-5.0477,-5.0086,-4.9425,-4.8487,-4.7646,-4.6985,-4.6518,-4.6041,-4.5807,-4.5807,-4.5807,-4.5805,-4.5807,-4.5765,-4.5727,-4.5701,-4.5676,-4.5671,-4.5704,-4.5778,-4.5854,-4.5964,-4.6053,-4.6141,-4.6214,-4.6275,-4.63,-4.63,-4.63,-4.63,-4.63,-4.63,-4.63,-4.63,-4.63,-4.6298,-4.6294,-4.6294,-4.6296,-4.6202,-4.5728,-4.5594,-4.5382,-4.4504,-4.3645,-4.2884,-4.2494,-4.2025,-4.1576,-4.1187,-4.1109,-4.1109,-4.1109,-4.1109,-4.1109,-4.1109,-4.1109,-4.0934,-4.0464,-4.0385,-4.0229,-3.9782,-3.9743,-3.9743,-3.9743,-3.9743,-3.9918,-4.0366,-4.0385,0.0,-4.1022,-4.104,-4.098,-4.0815,-4.081,-4.0929,-4.1193,-4.1598,-4.2015,-4.2456,-4.3253,-4.3684,-4.3767,-4.4542,-4.4893,-4.4921,-4.5428,-4.5648,-4.5657,-4.5698,-4.5695,-4.5703,-4.5734,-4.5802,-4.5894,-4.5958,-4.606,-4.6184,-5.0712,-5.0712,-5.0712,-5.0712,-5.0712,-5.0712,-5.0712,-5.0712,-5.0991,-5.1788,-5.1202,-5.101,-5.1808,-5.1183,-5.0711,-5.0711,-5.0793,-5.0932,-5.1049,-5.0378,-4.991,-4.9774,-4.8369,-4.7487,-4.7296,-4.6445,-4.5923,-4.5807,-4.5807,-4.5805,-4.5807,-4.5723,-4.5703,-4.5701,-4.5631,-4.5594,-4.5603,-4.5712,-4.5786,-4.5808,-4.5998,-4.608,-4.6105,-4.6238,-4.6277,-4.63,-4.63,-4.63,-4.63,-4.63,-4.63,-4.6298,-4.6298,-4.6292,-4.6282,-4.6282,-4.6288,-4.6275,-4.6284,-4.629,-4.6101,-4.5377,-4.4538,-4.3681,-4.2957,-4.2685,-4.2355,-4.1477,-4.1303,-4.1265,-4.1129,-4.1109,-4.1109,-4.1109,-4.1109,-4.1109,-4.1109,0.0,-4.1109,-4.1109,-4.1109,-4.1109,-4.1109,-4.1109,-4.1109,-4.1109,-4.1109,-4.1074,-4.1028,-4.1142,-4.1146,-4.1005,-4.1005,-4.1313,-4.2009,-4.2871,-4.3304,-4.3373,-4.4132,-4.4564,-4.4679,-4.5307,-4.5594,-4.5594,-4.5594,-4.5594,-4.5594,-4.5657,-4.5673,-4.5673,-4.5673,-4.5786,-4.5931,-4.5835,-4.5983,-4.6238,-5.0712,-5.0712,-5.0712,-5.0712,-5.0712,-5.0712,-5.0712,-5.0712,-5.0991,-5.1788,-5.1202,-5.101,-5.1808,-5.1174,-5.0702,-5.0702,-5.0711,-5.0764,-5.0847,-5.0761,-5.0395,-4.966,-4.9433,-4.8962,-4.8198,-4.7347,-4.6542,-4.5807,-4.5807,-4.5805,-4.5807,-4.5723,-4.5703,-4.5701,-4.5631,-4.5594,-4.5594,-4.562,-4.57,-4.5807,-4.5835,-4.5958,-4.6102,-4.6112,-4.6209,-4.63,-4.63,-4.63,-4.63,-4.63,-4.6294,-4.6308,-4.6308,-4.626,-4.6211,-4.6211,-4.6211,-4.6214,-4.6211,-4.6211,-4.6175,-4.6058,-4.5353,-4.469,-4.4534,-4.3994,-4.3242,-4.2383,-4.2194,-4.1967,-4.1246,-4.1109,-4.1109,-4.1109,-4.1109,-4.1109,-4.1109,0.0,-4.1109,-4.1109,-4.1109,-4.1109,-4.1109,-4.1109,-4.1109,-4.1109,-4.1109,-4.1106,-4.1081,-4.1782,-4.2109,-4.1898,-4.1903,-4.2255,-4.2975,-4.3736,-4.4122,-4.4146,-4.4987,-4.5411,-4.5436,-4.5545,-4.5594,-4.5594,-4.5594,-4.5594,-4.5594,-4.5603,-4.5622,-4.5622,-4.5622,-4.5637,-4.5665,-4.5771,-4.5859,-4.5983,-5.0712,-5.0712,-5.0712,-5.0712,-5.0712,-5.0712,-5.0712,-5.0712,-5.0991,-5.1788,-5.1202,-5.101,-5.1808,-5.1183,-5.0712,-5.0712,-5.0712,-5.0712,-5.074,-5.0805,-5.0689,-5.032,-4.9877,-4.926,-4.8411,-4.8005,-4.7366,-4.6503,-4.6503,-4.6235,-4.575,-4.5715,-4.5668,-4.564,-4.5603,-4.5594,-4.5594,-4.5594,-4.5646,-4.5708,-4.5771,-4.5867,-4.5933,-4.5973,-4.6087,-4.6184,-4.6184,-4.6243,-4.63,-4.63,-4.6294,-4.6303,-4.6303,-4.6253,-4.6195,-4.6195,-4.6195,-4.6198,-4.6206,-4.6201,-4.6198,-4.6206,-4.5894,-4.5484,-4.5014,-4.4609,-4.4107,-4.3268,-4.3103,-4.2838,-4.1958,-4.1807,-4.1654,-4.1187,-4.1109,-4.1109,-4.1109,-4.1109,-4.1109,-4.1109,-4.1109,-4.1109,-4.1109,-4.1109,-4.1109,-4.1109,-4.1537,-4.1791,-4.1791,-4.2568,-4.2958,-4.2868,-4.3127,-4.345,-4.3782,-4.4589,-4.4998,-4.5017,-4.5421,-4.5594,-4.5594,-4.5594,-4.5594,-4.5594,-4.5594,-4.5594,-4.5594,-4.5594,-4.5594,-4.5594,-4.5594,-4.5635,-4.5723,-4.5778,-4.5902,-4.6028,-5.0712,-5.0712,-5.0712,-5.0712,-5.0712,-5.0712,-5.0712,-5.0856,-5.1202,-5.1808,-5.1356,-5.1202,-5.1827,-5.1183,-5.0712,-5.0712,-5.0712,-5.0712,-5.0712,-5.074,-5.0803,-5.0846,-5.0226,-4.9489,-4.8671,-4.8651,-4.8234,-4.7371,-4.717,-4.6715,-4.6032,-4.5796,-4.5679,-4.5631,-4.5614,-4.5594,-4.5594,-4.5594,-4.5594,-4.5603,-4.5704,-4.5771,-4.5821,-4.5865,-4.5949,-4.6057,-4.6095,-4.6173,-4.6269,-4.6294,-4.629,-4.6279,-4.6277,-4.624,-4.62,-4.62,-4.62,-4.6203,-4.6195,-4.6209,-4.6203,-4.6195,-4.6198,-4.6022,-4.5357,-4.5203,-4.4972,-4.4153,-4.399,-4.3747,-4.2867,-4.2701,-4.2474,-4.1812,0.0,-4.1402,-4.1402,-4.1226,-4.1109,-4.1109,-4.1109,-4.1109,-4.1109,-4.1285,-4.1402,-4.1402,-4.2201,-4.2708,-4.2708,-4.3404,-4.3876,-4.4031,-4.4233,-4.4432,-4.4652,-4.5285,-4.5594,-4.5594,-4.5594,-4.5594,-4.5594,-4.5594,-4.5594,-4.5594,-4.5594,-4.5594,-4.5594,-4.5594,-4.5594,-4.5594,-4.5594,-4.566,-4.5749,-4.5749,-4.5872,-4.6024,-5.0712,-5.0712,-5.0712,-5.0712,-5.0712,-5.0712,-5.0712,-5.1337,-5.1827,-5.1885,-5.1846,-5.1827,-5.1885,-5.1183,-5.0712,-5.0712,-5.0712,-5.0712,-5.0712,-5.0693,-5.0702,-5.071,-5.0698,-5.0319,-4.9442,-4.9423,-4.9024,-4.8203,-4.7402,-4.6997,-4.6978,-4.6108,-4.5701,-4.5693,-4.5631,-4.5594,-4.5594,-4.5594,-4.5594,-4.5594,-4.5612,-4.5692,-4.5807,-4.5814,-4.5847,-4.5925,-4.6053,-4.6102,-4.6135,-4.6255,-4.6258,-4.6206,-4.6212,-4.6196,-4.6199,-4.6199,-4.6199,-4.6199,-4.6203,-4.6199,-4.6199,-4.6203,-4.6203,-4.6183,-4.6125,-4.6096,-4.5855,-4.4994,-4.486,-4.4643,-4.3767,-4.3601,-4.3588,-4.353,0.0,0.0,-4.2298,-4.1615,-4.1109,-4.1109,-4.1109,-4.1109,-4.1109,-4.183,-4.2298,-4.2298,-4.3118,-4.3606,-4.3606,-4.4301,-4.4991,-4.5609,-4.4884,-4.4863,-4.567,-4.564,-4.5594,-4.5594,-4.5594,-4.5594,-4.5594,-4.5594,-4.5594,-4.5594,-4.5594,-4.5594,-4.5594,-4.5594,-4.5594,-4.5594,-4.5594,-4.5603,-4.5612,-4.5612,-4.5696,-4.5835,-5.0712,-5.0712,-5.0712,-5.0712,-5.0712,-5.0712,-5.0712,-5.0952,-5.1164,-5.1164,-5.1164,-5.1164,-5.1164,-5.0875,-5.0712,-5.0712,-5.0712,-5.0712,-5.0712,-5.0712,-5.0693,-5.0701,-5.0756,-5.0647,-5.031,-5.031,-4.9894,-4.9035,-4.8216,-4.7524,-4.6957,-4.6095,-4.5684,-4.564,-4.5603,-4.5594,-4.5594,-4.5594,-4.5594,-4.5594,-4.5594,-4.5637,-4.5676,-4.5676,-4.5737,-4.5847,-4.5944,-4.6037,-4.6128,-4.6243,-4.6288,-4.6255,-4.6203,-4.6209,-4.6193,-4.6203,-4.6199,-4.6199,-4.6199,-4.6199,-4.6199,-4.6199,-4.6199,-4.6199,-4.6199,-4.6203,-4.6109,-4.5777,-4.5738,-4.5479,-4.4599,-4.4436,-4.4289,-4.3782,0.0,-4.3012,-4.2483,-4.2119,-4.1908,-4.1908,-4.1908,-4.2123,-4.2651,-4.3001,-4.3216,-4.3216,-4.3931,-4.4379,-4.4379,-4.5035,-4.5506,-4.5665,-4.5359,-4.534,-4.5676,-4.5629,-4.5594,-4.5594,-4.5594,-4.5594,-4.5594,-4.5594,-4.5594,-4.5594,-4.5594,-4.5594,-4.5594,-4.5594,-4.5594,-4.5594,-4.5594,-4.5594,-4.5603,-4.57,-4.5757,-4.5808,-5.0712,-5.0712,-5.0712,-5.0712,-5.0712,-5.0712,-5.0712,-5.0914,-5.0991,-5.0731,-5.0914,-5.0971,-5.0731,-5.0712,-5.0712,-5.0712,-5.0712,-5.0712,-5.0712,-5.0712,-5.0702,-5.0692,-5.0739,-5.0776,-5.0776,-5.0776,-5.0487,-4.9879,-4.8771,-4.7925,-4.7292,-4.6185,-4.564,-4.5594,-4.5594,-4.5594,-4.5594,-4.5594,-4.5594,-4.5594,-4.5594,-4.5594,-4.5594,-4.5594,-4.5651,-4.5749,-4.5841,-4.5938,-4.6011,-4.6102,-4.6186,-4.6231,-4.617,-4.617,-4.6193,-4.6203,-4.6199,-4.6199,-4.6199,-4.6199,-4.6199,-4.6199,-4.6199,-4.6199,-4.6199,-4.6199,-4.6199,-4.6199,-4.6193,-4.6027,-4.5423,-4.5318,-4.5133,-4.4568,-4.4263,-4.388,-4.3296,-4.2973,-4.2802,-4.2806,-4.2806,-4.304,-4.3647,-4.3957,-4.4114,-4.4114,-4.4788,-4.5177,-4.5122,-4.5556,-4.5734,-4.5594,-4.5594,-4.5594,-4.5594,-4.5594,-4.5594,-4.5594,-4.5594,-4.5594,-4.5594,-4.5594,-4.5594,-4.5594,-4.5594,-4.5594,-4.5594,-4.5594,-4.5594,-4.5594,-4.5594,-4.5594,-4.5612,-4.5688,-4.5734,-4.5718,-5.0712,-5.0712,-5.0712,-5.0712,-5.0712,-5.0712,-5.0712,-5.1375,-5.1606,-5.0808,-5.1395,-5.1587,-5.0789,-5.0712,-5.0712,-5.0712,-5.0712,-5.0712,-5.0712,-5.0712,-5.0712,-5.0712,-5.0712,-5.0712,-5.0712,-5.0712,-5.0693,-5.0701,-4.8951,-4.8133,-4.8167,-4.6429,-4.5594,-4.5594,-4.5594,-4.5594,-4.5594,-4.5594,-4.5594,-4.5594,-4.5594,-4.5594,-4.5594,-4.5594,-4.5594,-4.562,-4.5749,-4.5807,-4.5794,-4.5809,-4.5933,-4.6089,-4.6017,-4.6089,-4.6199,-4.6199,-4.6199,-4.6199,-4.6199,-4.6199,-4.6199,-4.6199,-4.6199,-4.6199,-4.6199,-4.6199,-4.6199,-4.6199,-4.6193,-4.6203,-4.6203,-4.6198,-4.6206,-4.6206,-4.5465,-4.4921,-4.4992,-4.4255,-4.3712,-4.3704,-4.3704,-4.3704,-4.3723,-4.4504,-4.501,-4.501,-4.5688,-4.6007,-4.5821,-4.58,-4.5734,-4.5594,-4.5594,-4.5594,-4.5594,-4.5594,-4.5594,-4.5594,-4.5594,-4.5594,-4.5594,-4.5594,-4.5594,-4.5594,-4.5594,-4.5594,-4.5594,-4.5594,-4.5594,-4.5594,-4.5594,-4.5594,-4.5594,-4.5594,-4.5594,-4.5486,-5.0712,-5.0712,-5.0712,-5.0712,-5.0712,-5.0712,-5.0712,-5.0894,-5.0971,-5.0731,-5.0914,-5.0971,-5.0731,-5.0712,-5.0712,-5.0712,-5.0712,-5.0712,-5.0712,-5.0712,-5.0712,-5.0712,-5.0712,-5.0712,-5.0712,-5.0712,-5.0693,-5.0693,-4.8961,-4.8115,-4.8085,-4.6383,-4.5594,-4.5594,-4.5594,-4.5594,-4.5594,-4.5594,-4.5594,-4.5594,-4.5594,-4.5594,-4.5594,-4.5594,-4.5594,-4.562,-4.5749,-4.5807,-4.5801,-4.5853,-4.5906,-4.5963,-4.5983,-4.6083,-4.6199,-4.6199,-4.6199,-4.6199,-4.6199,-4.6199,-4.6199,-4.6199,-4.6199,-4.6199,-4.6199,-4.6199,-4.6199,-4.6199,-4.6203,-4.6206,-4.6206,-4.619,-4.6193,-4.6193,-4.5988,-4.5607,-4.5006,-4.4702,-4.4534,-4.4538,-4.4586,-4.4844,-4.5471,-4.5769,-4.5909,-4.5909,-4.5935,-4.5869,-4.5676,-4.5651,-4.5646,-4.5594,-4.5594,-4.5594,-4.5594,-4.5594,-4.5594,-4.5594,-4.5594,-4.5594,-4.5594,-4.5594,-4.5594,-4.5594,-4.5594,-4.5594,-4.5594,-4.5594,-4.5594,-4.5594,-4.5594,-4.5594,-4.5594,-4.5594,-4.521,-4.4652,-5.0673,-5.0712,-5.0712,-5.0712,-5.0712,-5.0712,-5.0712,-5.0712,-5.0712,-5.0712,-5.0712,-5.0712,-5.0712,-5.0712,-5.0712,-5.0712,-5.0712,-5.0712,-5.0712,-5.0712,-5.0712,-5.0712,-5.0712,-5.0712,-5.0712,-5.0712,-5.0712,-5.0712,-4.8952,-4.8105,-4.8067,-4.6374,-4.5594,-4.5594,-4.5594,-4.5594,-4.5594,-4.5594,-4.5594,-4.5594,-4.5594,-4.5594,-4.5594,-4.5594,-4.5594,-4.5603,-4.5692,-4.5704,-4.5677,-4.5699,-4.5757,-4.584,-4.5963,-4.6083,-4.6199,-4.6199,-4.6199,-4.6199,-4.6199,-4.6199,-4.6199,-4.6199,-4.6199,-4.6199,-4.6199,-4.6199,-4.6199,-4.6199,-4.6199,-4.6199,-4.6199,-4.6199,-4.6199,-4.6199,-4.6206,-4.6021,-4.5498,-4.5409,-4.5418,-4.5404,-4.5437,-4.5646,-4.6176,-4.6167,-4.6131,-4.6099,-4.5954,-4.5776,-4.5612,-4.5594,-4.5594,-4.5594,-4.5594,-4.5594,-4.5594,-4.5594,-4.5594,-4.5594,-4.5594,-4.5594,-4.5594,-4.5594,-4.5594,-4.5594,-4.5594,-4.5594,-4.5594,-4.5594,-4.5594,-4.5594,-4.5594,-4.5594,-4.5594,-4.5594,-4.5056,-4.4239,-5.0594,-5.0663,-5.0663,-5.0683,-5.0712,-5.0712,-5.0712,-5.0712,-5.0712,-5.0712,-5.0712,-5.0712,-5.0712,-5.0712,-5.0712,-5.0712,-5.0712,-5.0712,-5.0712,-5.0712,-5.0712,-5.0712,-5.0712,-5.0712,-5.0712,-5.0712,-5.0712,-5.0712,-4.8952,-4.8105,-4.8067,-4.6374,-4.5594,-4.5594,-4.5594,-4.5594,-4.5594,-4.5594,-4.5594,-4.5594,-4.5594,-4.5594,-4.5594,-4.5594,-4.5594,-4.5594,-4.5586,-4.5559,-4.5495,-4.5419,-4.5524,-4.571,-4.5896,-4.6051,-4.6189,-4.6189,-4.6192,-4.6199,-4.6199,-4.6199,-4.6199,-4.6199,-4.6199,-4.6199,-4.6199,-4.6199,-4.6199,-4.6199,-4.6199,-4.6199,-4.6199,-4.6199,-4.6199,-4.6199,-4.6199,-4.6203,-4.62,-4.6203,-4.6206,-4.6176,-4.6141,-4.6107,-4.6076,-4.5979,-4.5869,-4.5814,-4.5807,-4.5734,-4.5603,-4.5594,-4.5594,-4.5594,-4.5594,-4.5594,-4.5594,-4.5594,-4.5594,-4.5594,-4.5594,-4.5594,-4.5594,-4.5594,-4.5594,-4.5594,-4.5594,-4.5594,-4.5594,-4.5594,-4.5594,-4.5594,-4.5594,-4.5594,-4.5594,-4.5518,-4.494,-4.4066,-5.0249,-5.0306,-5.038,-5.0644,-5.0712,-5.0712,-5.0712,-5.0712,-5.0712,-5.0712,-5.0712,-5.0712,-5.0712,-5.0712,-5.0712,-5.0712,-5.0712,-5.0712,-5.0712,-5.0712,-5.0712,-5.0712,-5.0712,-5.0712,-5.0712,-5.0712,-5.0712,-5.0712,-4.8952,-4.8105,-4.8067,-4.6374,-4.5594,-4.5594,-4.5594,-4.5594,-4.5594,-4.5594,-4.5594,-4.5594,-4.5594,-4.5594,-4.5594,-4.5594,-4.5594,-4.5586,-4.5531,-4.5513,-4.5485,-4.5419,-4.5466,-4.5558,-4.5599,-4.5803,-4.6037,-4.6037,-4.6126,-4.6199,-4.6199,-4.6199,-4.6199,-4.6199,-4.6199,-4.6199,-4.6199,-4.6199,-4.6199,-4.6199,-4.6199,-4.6199,-4.6199,-4.6199,-4.6199,-4.6199,-4.6199,-4.6199,-4.6203,-4.6203,-4.6165,-4.606,-4.6115,-4.6107,-4.5883,-4.5889,-4.5865,-4.5814,-4.5807,-4.5734,-4.5603,-4.5594,-4.5594,-4.5594,-4.5594,-4.5594,-4.5594,-4.5594,-4.5594,-4.5594,-4.5594,-4.5594,-4.5594,-4.5594,-4.5594,-4.5594,-4.5594,-4.5594,-4.5594,-4.5594,-4.5594,-4.5594,-4.5594,-4.5594,-4.5518,-4.4836,-4.4066,-4.3143,-4.9962,-5.0006,-5.0062,-5.0245,-5.0377,-5.0453,-5.0453,-5.0604,-5.0712,-5.0712,-5.0712,-5.0712,-5.0712,-5.0712,-5.0712,-5.0712,-5.0712,-5.0712,-5.0712,-5.0712,-5.0712,-5.0712,-5.0712,-5.0712,-5.0712,-5.0712,-5.0712,-5.0712,-4.8952,-4.8105,-4.8067,-4.6374,-4.5594,-4.5594,-4.5594,-4.5594,-4.5594,-4.5594,-4.5594,-4.5594,-4.5594,-4.5594,-4.5594,-4.5594,-4.5577,-4.5559,-4.5513,-4.5467,-4.5438,-4.5379,-4.541,-4.549,-4.549,-4.5657,-4.5853,-4.5853,-4.59,-4.5978,-4.6089,-4.6098,-4.613,-4.6189,-4.6199,-4.6199,-4.6199,-4.6199,-4.6199,-4.6199,-4.6199,-4.6199,-4.6199,-4.6199,-4.6199,-4.6199,-4.6199,-4.6199,-4.6199,-4.6199,-4.615,-4.6012,-4.6008,-4.5906,-4.5638,-4.5661,-4.5696,-4.5665,-4.568,-4.5676,-4.5594,-4.5594,-4.5594,-4.5594,-4.5594,-4.5594,-4.5594,-4.5594,-4.5594,-4.5594,-4.5594,-4.5594,-4.5594,-4.5594,-4.5594,-4.5594,-4.5594,-4.5594,-4.5594,-4.5594,-4.5594,-4.5594,-4.5594,-4.5594,-4.5498,-4.4624,-4.3528,-4.2297,-4.9665,-4.9735,-4.9749,-4.9803,-4.9981,-5.0135,-5.0135,-5.041,-5.0614,-5.0614,-5.0663,-5.0712,-5.0712,-5.0712,-5.0712,-5.0712,-5.0712,-5.0712,-5.0712,-5.0712,-5.0712,-5.0712,-5.0712,-5.0712,-5.0712,-5.0712,-5.0712,-5.0712,-4.9106,-4.8259,-4.8067,-4.6528,-4.5748,-4.5594,-4.5594,-4.5594,-4.5594,-4.5594,-4.5594,-4.5594,-4.5594,-4.5594,-4.5594,-4.5586,-4.5559,-4.5495,-4.5485,-4.5438,-4.5369,-4.5317,-4.5361,-4.5464,-4.5464,-4.5555,-4.5667,-4.5667,-4.5689,-4.5731,-4.5902,-4.595,-4.5972,-4.6098,-4.6119,-4.6123,-4.6154,-4.6189,-4.6199,-4.6199,-4.6199,-4.6199,-4.6199,-4.6199,-4.6199,-4.6199,-4.6199,-4.6199,-4.6199,-4.6185,-4.6106,-4.5966,-4.5803,-4.5638,-4.5447,-4.5457,-4.5495,-4.5504,-4.5568,-4.5594,-4.5594,-4.5594,-4.5594,-4.5594,-4.5594,-4.5594,-4.5594,-4.5594,-4.5594,-4.5594,-4.5594,-4.5594,-4.5594,-4.5594,-4.5594,-4.5594,-4.5594,-4.5594,-4.5594,-4.5594,-4.5594,-4.5594,-4.5594,-4.5518,-4.5267,-4.4239,-4.2893,-4.147,-4.9396,-4.9457,-4.9529,-4.9762,-4.9844,-4.9838,-4.9838,-5.0099,-5.0272,-5.0272,-5.0514,-5.0712,-5.0712,-5.0712,-5.0712,-5.0712,-5.0712,-5.0712,-5.0712,-5.0712,-5.0712,-5.0712,-5.0712,-5.0712,-5.0712,-5.0712,-5.0712,-5.0712,-4.9702,-4.8836,-4.8086,-4.7163,-4.6317,-4.5594,-4.5594,-4.5594,-4.5594,-4.5594,-4.5594,-4.5594,-4.5594,-4.5594,-4.5586,-4.555,-4.5504,-4.5485,-4.5419,-4.5369,-4.5317,-4.5307,-4.5298,-4.5329,-4.5329,-4.5419,-4.5533,-4.5533,-4.5619,-4.571,-4.5731,-4.5737,-4.5737,-4.5757,-4.5764,-4.5815,-4.5982,-4.6126,-4.6199,-4.6199,-4.6199,-4.6199,-4.6199,-4.6199,-4.6199,-4.6199,-4.6199,-4.6199,-4.6199,-4.6098,-4.5961,-4.5751,-4.5526,-4.541,-4.5563,-4.5485,-4.5438,-4.5495,-4.5568,-4.5594,-4.5594,-4.5594,-4.5594,-4.5594,-4.5594,-4.5594,-4.5594,-4.5594,-4.5594,-4.5594,-4.5594,-4.5594,-4.5594,-4.5594,-4.5594,-4.5594,-4.5594,-4.5594,-4.5594,-4.5594,-4.5594,-4.5594,-4.5594,-4.5152,-4.4297,-4.272,-4.1527,-4.0669,-4.8923,-4.8939,-4.9006,-4.922,-4.937,-4.9491,-4.9554,-4.9803,-5.0019,-5.0183,-5.0336,-5.0493,-5.0673,-5.0712,-5.0712,-5.0712,-5.0712,-5.0712,-5.0712,-5.0712,-5.0712,-5.0712,-5.0712,-5.0712,-5.0712,-5.0712,-5.0712,-5.0712,-4.9817,-4.9202,-4.8798,-4.7509,-4.6701,-4.6297,-4.5825,-4.5594,-4.5594,-4.5594,-4.5594,-4.5594,-4.5594,-4.5594,-4.5594,-4.5568,-4.5522,-4.5485,-4.5429,-4.5348,-4.5307,-4.5307,-4.5307,-4.5307,-4.5307,-4.533,-4.539,-4.539,-4.5428,-4.5481,-4.5563,-4.5595,-4.5611,-4.5682,-4.5703,-4.5724,-4.5809,-4.5883,-4.5978,-4.6162,-4.6199,-4.6199,-4.6199,-4.6199,-4.6185,-4.6098,-4.6089,-4.6051,-4.5933,-4.5877,-4.577,-4.5611,-4.541,-4.5329,-4.5429,-4.541,-4.54,-4.5438,-4.5504,-4.5568,-4.5594,-4.5594,-4.5594,-4.5594,-4.5594,-4.5594,-4.5594,-4.5594,-4.5594,-4.5594,-4.5594,-4.5594,-4.5594,-4.5594,-4.5594,-4.5594,-4.5594,-4.5594,-4.5594,-4.5594,-4.5594,-4.5594,-4.5594,-4.4786,-4.3489,-4.2258,-4.1258,-4.0496]},{"header":{"parameterUnit":"m.s-1","parameterCategory":1,"la1":30.6,"la2":28.766,"lo1":-90.7593,"lo2":-88.6598,"dy":0.0162,"dx":0.0183,"nx":116,"ny":114,"refTime":"2023-05-04T12:00:00:Z","depth":0,"parameterNumber":3,"parameterNumberName":"V-component_of_WINDS"},"data":[0.0,0.0,0.0,0.0,0.0,0.0,0.0,0.0,0.0,0.0,0.0,0.0,0.0,0.0,0.0,0.0,0.0,0.0,0.0,0.0,0.0,0.0,0.0,0.0,0.0,0.0,0.0,0.0,0.0,0.0,0.0,0.0,0.0,0.0,0.0,0.0,0.0,0.0,0.0,0.0,0.0,0.0,0.0,0.0,0.0,0.0,0.0,0.0,0.0,0.0,0.0,0.0,0.0,0.0,0.0,0.0,0.0,0.0,0.0,0.0,0.0,0.0,0.0,0.0,0.0,0.0,0.0,0.0,0.0,0.0,0.0,0.0,0.0,0.0,0.0,0.0,0.0,0.0,0.0,0.0,0.0,0.0,0.0,0.0,0.0,0.0,0.0,0.0,0.0,0.0,0.0,0.0,0.0,0.0,0.0,0.0,0.0,0.0,0.0,0.0,0.0,0.0,0.0,0.0,0.0,0.0,0.0,0.0,0.0,0.0,0.0,0.0,0.0,0.0,0.0,0.0,0.0,0.0,0.0,0.0,0.0,0.0,0.0,0.0,0.0,0.0,0.0,0.0,0.0,0.0,0.0,0.0,0.0,0.0,0.0,0.0,0.0,0.0,0.0,0.0,0.0,0.0,0.0,0.0,0.0,0.0,0.0,0.0,0.0,0.0,0.0,0.0,0.0,0.0,0.0,0.0,0.0,0.0,0.0,0.0,0.0,0.0,0.0,0.0,0.0,0.0,0.0,0.0,0.0,0.0,0.0,0.0,0.0,0.0,0.0,0.0,0.0,0.0,0.0,0.0,0.0,0.0,0.0,0.0,0.0,0.0,0.0,0.0,0.0,0.0,0.0,0.0,0.0,0.0,0.0,0.0,0.0,0.0,0.0,0.0,0.0,0.0,0.0,0.0,0.0,0.0,0.0,0.0,0.0,0.0,0.0,0.0,0.0,0.0,0.0,0.0,0.0,0.0,0.0,0.0,0.0,0.0,0.0,0.0,0.0,0.0,0.0,0.0,0.0,0.0,0.0,0.0,0.0,0.0,0.0,0.0,0.0,0.0,0.0,0.0,0.0,0.0,0.0,0.0,0.0,0.0,0.0,0.0,0.0,0.0,0.0,0.0,0.0,0.0,0.0,0.0,0.0,0.0,0.0,0.0,0.0,0.0,0.0,0.0,0.0,0.0,0.0,0.0,0.0,0.0,0.0,0.0,0.0,0.0,0.0,0.0,0.0,0.0,0.0,0.0,0.0,0.0,0.0,0.0,0.0,0.0,0.0,0.0,0.0,0.0,0.0,0.0,0.0,0.0,0.0,0.0,0.0,0.0,0.0,0.0,0.0,0.0,0.0,0.0,0.0,0.0,0.0,0.0,0.0,0.0,0.0,0.0,0.0,0.0,0.0,0.0,0.0,0.0,0.0,0.0,0.0,0.0,0.0,0.0,0.0,0.0,0.0,0.0,0.0,0.0,0.0,0.0,0.0,0.0,0.0,0.0,0.0,0.0,0.0,0.0,0.0,0.0,0.0,0.0,0.0,0.0,0.0,0.0,0.0,0.0,0.0,0.0,0.0,0.0,0.0,0.0,0.0,0.0,0.0,0.0,0.0,0.0,0.0,0.0,0.0,0.0,0.0,0.0,0.0,0.0,0.0,0.0,0.0,0.0,0.0,0.0,0.0,0.0,0.0,0.0,0.0,0.0,0.0,0.0,0.0,0.0,0.0,0.0,0.0,0.0,0.0,0.0,0.0,0.0,0.0,0.0,0.0,0.0,0.0,0.0,0.0,0.0,0.0,0.0,0.0,0.0,0.0,0.0,0.0,0.0,0.0,0.0,0.0,0.0,0.0,0.0,0.0,0.0,0.0,0.0,0.0,0.0,0.0,0.0,0.0,0.0,0.0,0.0,0.0,0.0,0.0,0.0,0.0,0.0,0.0,0.0,0.0,0.0,0.0,0.0,0.0,0.0,0.0,0.0,0.0,0.0,0.0,0.0,0.0,0.0,0.0,0.0,0.0,0.0,0.0,0.0,0.0,0.0,0.0,0.0,0.0,0.0,0.0,0.0,0.0,0.0,0.0,0.0,0.0,0.0,0.0,0.0,0.0,0.0,0.0,0.0,0.0,0.0,0.0,0.0,0.0,0.0,0.0,0.0,0.0,0.0,0.0,0.0,0.0,0.0,0.0,0.0,0.0,0.0,0.0,0.0,0.0,0.0,0.0,0.0,0.0,0.0,0.0,0.0,0.0,0.0,0.0,0.0,0.0,0.0,0.0,0.0,0.0,0.0,0.0,0.0,0.0,0.0,0.0,0.0,0.0,0.0,0.0,0.0,0.0,0.0,0.0,0.0,0.0,0.0,0.0,0.0,0.0,0.0,0.0,0.0,0.0,0.0,0.0,0.0,0.0,0.0,0.0,0.0,0.0,0.0,0.0,0.0,0.0,0.0,0.0,0.0,0.0,0.0,0.0,0.0,0.0,0.0,0.0,0.0,0.0,0.0,0.0,0.0,0.0,0.0,0.0,0.0,0.0,0.0,0.0,0.0,0.0,0.0,0.0,0.0,0.0,0.0,0.0,0.0,0.0,0.0,0.0,0.0,0.0,0.0,0.0,0.0,0.0,0.0,0.0,0.0,0.0,0.0,0.0,0.0,0.0,0.0,0.0,0.0,0.0,0.0,0.0,0.0,0.0,0.0,0.0,0.0,0.0,0.0,0.0,0.0,0.0,0.0,0.0,0.0,0.0,0.0,0.0,0.0,0.0,0.0,0.0,0.0,0.0,0.0,0.0,0.0,0.0,0.0,0.0,0.0,0.0,0.0,0.0,0.0,0.0,0.0,0.0,0.0,0.0,0.0,0.0,0.0,0.0,0.0,0.0,0.0,0.0,0.0,0.0,0.0,0.0,0.0,0.0,0.0,0.0,0.0,0.0,0.0,0.0,0.0,0.0,0.0,0.0,0.0,0.0,0.0,0.0,0.0,0.0,0.0,0.0,0.0,0.0,0.0,0.0,0.0,0.0,0.0,0.0,0.0,0.0,0.0,0.0,0.0,0.0,0.0,0.0,0.0,0.0,0.0,0.0,0.0,0.0,0.0,0.0,0.0,0.0,0.0,0.0,0.0,0.0,0.0,0.0,0.0,0.0,0.0,0.0,0.0,0.0,0.0,0.0,0.0,0.0,0.0,0.0,0.0,0.0,0.0,0.0,0.0,0.0,0.0,0.0,0.0,0.0,0.0,0.0,0.0,0.0,0.0,0.0,0.0,0.0,0.0,0.0,0.0,0.0,0.0,0.0,0.0,0.0,0.0,0.0,0.0,0.0,0.0,0.0,0.0,0.0,0.0,0.0,0.0,0.0,0.0,0.0,0.0,0.0,0.0,0.0,0.0,0.0,0.0,0.0,0.0,0.0,0.0,0.0,0.0,0.0,0.0,0.0,0.0,0.0,0.0,0.0,0.0,0.0,0.0,0.0,0.0,0.0,0.0,0.0,0.0,0.0,0.0,0.0,0.0,0.0,0.0,0.0,0.0,0.0,0.0,0.0,0.0,0.0,0.0,0.0,0.0,0.0,0.0,0.0,0.0,0.0,0.0,0.0,0.0,0.0,0.0,0.0,0.0,0.0,0.0,0.0,0.0,0.0,0.0,0.0,0.0,0.0,0.0,0.0,0.0,0.0,0.0,0.0,0.0,0.0,0.0,0.0,0.0,0.0,0.0,0.0,0.0,0.0,0.0,0.0,0.0,0.0,0.0,0.0,0.0,0.0,0.0,0.0,0.0,0.0,0.0,0.0,0.0,0.0,0.0,0.0,0.0,0.0,0.0,0.0,0.0,0.0,0.0,0.0,0.0,0.0,0.0,0.0,0.0,0.0,0.0,0.0,0.0,0.0,0.0,0.0,0.0,0.0,0.0,0.0,0.0,0.0,0.0,0.0,0.0,0.0,0.0,0.0,0.0,0.0,0.0,0.0,0.0,0.0,0.0,0.0,0.0,0.0,0.0,0.0,0.0,0.0,0.0,0.0,0.0,0.0,0.0,0.0,0.0,0.0,0.0,0.0,0.0,0.0,0.0,0.0,0.0,0.0,0.0,0.0,0.0,0.0,0.0,0.0,0.0,0.0,0.0,0.0,0.0,0.0,0.0,0.0,0.0,0.0,0.0,0.0,0.0,0.0,0.0,0.0,0.0,0.0,0.0,0.0,0.0,0.0,0.0,0.0,0.0,0.0,0.0,0.0,0.0,0.0,0.0,0.0,0.0,0.0,0.0,0.0,0.0,0.0,0.0,0.0,0.0,0.0,0.0,0.0,0.0,0.0,0.0,0.0,0.0,0.0,0.0,0.0,0.0,0.0,0.0,0.0,0.0,0.0,0.0,0.0,0.0,0.0,0.0,0.0,0.0,0.0,0.0,0.0,0.0,0.0,0.0,0.0,0.0,0.0,0.0,0.0,0.0,0.0,0.0,0.0,0.0,0.0,0.0,0.0,0.0,0.0,0.0,0.0,0.0,0.0,0.0,0.0,0.0,0.0,0.0,0.0,0.0,0.0,0.0,0.0,0.0,0.0,0.0,0.0,0.0,0.0,0.0,0.0,0.0,0.0,0.0,0.0,0.0,0.0,0.0,0.0,0.0,0.0,0.0,0.0,0.0,0.0,0.0,0.0,0.0,0.0,0.0,0.0,0.0,0.0,0.0,0.0,0.0,0.0,0.0,0.0,0.0,0.0,0.0,0.0,0.0,0.0,0.0,0.0,0.0,0.0,0.0,0.0,0.0,0.0,0.0,0.0,0.0,0.0,0.0,0.0,0.0,0.0,0.0,0.0,0.0,0.0,0.0,0.0,0.0,0.0,0.0,0.0,0.0,0.0,0.0,0.0,0.0,0.0,0.0,0.0,0.0,0.0,0.0,0.0,0.0,0.0,0.0,0.0,0.0,0.0,0.0,0.0,0.0,0.0,0.0,0.0,0.0,0.0,0.0,0.0,0.0,0.0,0.0,0.0,0.0,0.0,0.0,0.0,0.0,0.0,0.0,0.0,0.0,0.0,0.0,0.0,0.0,0.0,0.0,0.0,0.0,0.0,0.0,0.0,0.0,0.0,0.0,0.0,0.0,0.0,0.0,0.0,0.0,0.0,0.0,0.0,0.0,0.0,0.0,0.0,0.0,0.0,0.0,0.0,0.0,0.0,0.0,0.0,0.0,0.0,0.0,0.0,0.0,0.0,0.0,0.0,0.0,0.0,0.0,0.0,0.0,0.0,0.0,0.0,0.0,0.0,0.0,0.0,0.0,0.0,0.0,0.0,0.0,0.0,0.0,0.0,0.0,0.0,0.0,0.0,0.0,0.0,0.0,0.0,0.0,0.0,0.0,0.0,0.0,0.0,0.0,0.0,0.0,0.0,0.0,0.0,0.0,0.0,0.0,0.0,0.0,0.0,0.0,0.0,0.0,0.0,0.0,0.0,0.0,0.0,0.0,0.0,0.0,0.0,0.0,0.0,0.0,0.0,0.0,0.0,0.0,0.0,0.0,0.0,0.0,0.0,0.0,0.0,0.0,0.0,0.0,0.0,0.0,0.0,0.0,0.0,0.0,0.0,0.0,0.0,0.0,0.0,0.0,0.0,0.0,0.0,0.0,0.0,0.0,0.0,0.0,0.0,0.0,0.0,0.0,0.0,0.0,0.0,0.0,0.0,0.0,0.0,0.0,0.0,0.0,0.0,0.0,0.0,0.0,0.0,0.0,0.0,0.0,0.0,0.0,0.0,0.0,0.0,0.0,0.0,0.0,0.0,0.0,0.0,0.0,0.0,0.0,0.0,0.0,0.0,0.0,0.0,0.0,0.0,0.0,0.0,0.0,0.0,0.0,0.0,0.0,0.0,0.0,0.0,0.0,0.0,0.0,0.0,0.0,0.0,0.0,0.0,0.0,0.0,0.0,0.0,0.0,0.0,0.0,0.0,0.0,0.0,0.0,0.0,0.0,0.0,0.0,0.0,0.0,0.0,0.0,0.0,0.0,0.0,0.0,0.0,0.0,0.0,0.0,0.0,0.0,0.0,0.0,0.0,0.0,0.0,0.0,0.0,0.0,0.0,0.0,0.0,0.0,0.0,0.0,0.0,0.0,0.0,0.0,-1.1802,0.0,0.0,0.0,0.0,0.0,0.0,0.0,0.0,0.0,0.0,0.0,0.0,0.0,0.0,0.0,0.0,0.0,0.0,0.0,0.0,0.0,0.0,0.0,0.0,0.0,0.0,0.0,0.0,0.0,0.0,0.0,0.0,0.0,0.0,0.0,0.0,0.0,0.0,0.0,-0.4897,-0.4894,-0.5087,-0.5093,-0.5196,-0.5395,0.0,0.0,0.0,0.0,0.0,0.0,0.0,0.0,0.0,0.0,0.0,0.0,0.0,0.0,0.0,0.0,0.0,0.0,0.0,0.0,0.0,0.0,0.0,0.0,0.0,0.0,0.0,0.0,0.0,0.0,0.0,0.0,0.0,0.0,0.0,0.0,0.0,0.0,0.0,0.0,0.0,0.0,0.0,0.0,0.0,0.0,0.0,0.0,0.0,0.0,0.0,0.0,0.0,0.0,0.0,0.0,0.0,0.0,0.0,0.0,0.0,0.0,0.0,0.0,0.0,0.0,0.0,0.0,0.0,0.0,0.0,-1.2505,0.0,0.0,0.0,0.0,0.0,0.0,0.0,0.0,0.0,0.0,0.0,0.0,0.0,0.0,0.0,0.0,0.0,0.0,0.0,0.0,0.0,0.0,0.0,0.0,-0.3384,-0.3654,-0.4256,-0.4758,0.0,0.0,0.0,0.0,0.0,0.0,0.0,-0.496,-0.503,-0.5395,-0.5063,-0.4994,-0.5156,-0.5326,-0.5395,-0.5395,-0.5395,0.0,0.0,0.0,0.0,0.0,0.0,0.0,0.0,0.0,0.0,0.0,0.0,0.0,0.0,0.0,0.0,0.0,0.0,0.0,0.0,0.0,0.0,0.0,0.0,0.0,0.0,0.0,0.0,0.0,0.0,0.0,0.0,0.0,0.0,0.0,0.0,0.0,0.0,0.0,0.0,0.0,0.0,0.0,0.0,0.0,0.0,0.0,0.0,0.0,0.0,0.0,0.0,0.0,0.0,0.0,0.0,0.0,0.0,0.0,0.0,0.0,0.0,0.0,-1.2484,-1.2516,-1.2508,-1.2632,-1.2391,-1.2005,-1.3122,-1.3509,-1.3321,-1.3329,0.0,0.0,0.0,0.0,0.0,0.0,0.0,0.0,0.0,0.0,0.0,0.0,0.0,0.0,0.0,0.0,0.0,0.0,0.0,0.0,0.0,-0.3251,-0.372,-0.4392,-0.4661,-0.4861,-0.5087,0.0,0.0,0.0,0.0,0.0,-0.5359,-0.5156,-0.5156,-0.5395,-0.5362,-0.5329,-0.5359,-0.5395,-0.5395,-0.5395,-0.5395,-0.5395,-0.5395,0.0,0.0,0.0,0.0,0.0,0.0,0.0,0.0,0.0,0.0,0.0,0.0,0.0,0.0,0.0,0.0,0.0,0.0,0.0,0.0,0.0,0.0,0.0,0.0,0.0,0.0,0.0,0.0,0.0,0.0,0.0,0.0,0.0,0.0,0.0,0.0,0.0,0.0,0.0,0.0,0.0,-1.1341,-1.1498,0.0,0.0,0.0,0.0,0.0,0.0,0.0,0.0,0.0,0.0,0.0,0.0,0.0,-1.1591,-1.1591,-1.1831,-1.2002,-1.2067,-1.2354,-1.2487,-1.2521,-1.3103,-1.3327,-1.3269,-1.386,0.0,-1.2665,-1.323,0.0,0.0,0.0,0.0,0.0,0.0,0.0,0.0,0.0,0.0,0.0,0.0,0.0,0.0,0.0,0.0,0.0,0.0,0.0,0.0,0.0,-0.382,-0.4323,-0.4824,-0.4924,-0.5057,-0.5259,-0.5259,0.0,0.0,0.0,-0.5326,-0.5395,-0.5326,-0.5326,-0.5395,-0.5395,-0.5395,-0.5395,-0.5395,-0.5395,-0.5395,-0.5395,-0.5395,-0.5395,-0.5395,0.0,0.0,0.0,0.0,0.0,0.0,0.0,0.0,0.0,0.0,0.0,0.0,0.0,0.0,0.0,0.0,0.0,0.0,0.0,0.0,0.0,0.0,0.0,0.0,0.0,0.0,0.0,0.0,0.0,0.0,0.0,0.0,0.0,0.0,0.0,0.0,0.0,0.0,0.0,-1.1021,-1.1373,-1.1591,-1.1498,-1.1435,0.0,0.0,0.0,0.0,0.0,0.0,0.0,0.0,0.0,-1.1823,-1.1823,-1.1919,-1.2094,-1.2207,-1.2465,-1.2854,-1.3007,-1.3076,-1.3076,-1.3801,-1.3933,-1.3684,-1.4656,-1.4757,-1.4173,-1.3975,-1.3229,-1.2228,0.0,0.0,0.0,0.0,-1.2405,-1.2712,0.0,0.0,0.0,0.0,0.0,0.0,0.0,0.0,0.0,0.0,0.0,0.0,-0.3754,-0.4356,-0.4824,-0.5087,-0.5156,-0.5223,-0.5395,-0.5395,0.0,0.0,-0.5395,-0.5395,-0.5395,-0.5395,-0.5395,-0.5395,-0.5354,-0.5337,-0.5334,-0.53,-0.5279,-0.5283,-0.532,-0.5358,-0.5395,-0.5395,-0.5395,-0.5395,0.0,0.0,0.0,0.0,0.0,0.0,0.0,0.0,0.0,0.0,0.0,0.0,0.0,0.0,0.0,0.0,0.0,0.0,0.0,0.0,0.0,0.0,0.0,0.0,0.0,0.0,0.0,0.0,0.0,0.0,0.0,0.0,0.0,0.0,0.0,0.0,0.0,-1.1021,-1.1341,-1.156,-1.1435,-1.1334,0.0,0.0,0.0,0.0,0.0,0.0,-1.1558,-1.1599,-1.1783,-1.212,-1.2094,-1.2214,-1.254,-1.2586,-1.29,-1.3451,-1.3542,-1.3588,-1.3588,-1.4135,-1.4143,-1.3778,-1.4993,-1.5364,-1.5055,-1.4859,-1.4002,-1.2868,-1.3219,-1.2954,-1.2428,-1.3048,-1.3515,-1.3894,0.0,0.0,0.0,0.0,0.0,0.0,0.0,0.0,0.0,0.0,0.0,-0.3754,-0.4459,-0.4858,-0.5087,-0.5087,-0.5292,-0.5395,-0.5395,-0.5395,-0.5395,-0.5395,-0.5395,-0.5395,-0.5395,-0.5395,-0.5395,-0.5395,-0.5213,-0.511,-0.5106,-0.4972,-0.4911,-0.4918,-0.5049,-0.5223,-0.5395,-0.5395,-0.5395,-0.5395,-0.5395,0.0,0.0,0.0,0.0,0.0,0.0,0.0,0.0,0.0,0.0,0.0,0.0,0.0,0.0,0.0,0.0,0.0,0.0,0.0,0.0,0.0,0.0,0.0,0.0,0.0,0.0,0.0,0.0,0.0,0.0,0.0,0.0,0.0,0.0,0.0,0.0,0.0,0.0,-1.156,-1.1435,0.0,0.0,0.0,0.0,-1.1122,-1.1357,-1.1486,-1.1493,-1.2107,-1.2448,-1.2463,-1.2287,-1.2342,-1.2692,-1.2812,-1.3028,-1.3323,-1.3617,-1.3797,-1.3797,-1.3836,-1.3836,-1.3843,-1.4534,-1.4479,-1.4014,-1.5617,-1.5785,-1.5018,-1.493,-1.4466,-1.395,-1.4426,-1.4622,-1.4752,0.0,0.0,0.0,0.0,0.0,0.0,0.0,0.0,-0.3625,-0.3859,-0.4092,-0.4325,-0.4694,-0.4957,-0.5156,-0.5292,-0.5359,-0.5395,-0.5395,-0.5395,-0.5395,-0.5395,-0.5395,-0.5395,-0.5395,-0.5264,-0.5213,-0.5213,-0.5127,-0.5182,-0.5281,-0.5328,-0.5352,-0.5352,-0.5403,-0.5345,-0.522,-0.5351,-0.5395,-0.5395,-0.5395,-0.5395,0.0,0.0,0.0,0.0,0.0,0.0,0.0,0.0,0.0,0.0,0.0,0.0,0.0,0.0,0.0,0.0,0.0,0.0,0.0,0.0,0.0,0.0,0.0,0.0,0.0,0.0,0.0,0.0,0.0,0.0,0.0,0.0,0.0,0.0,0.0,0.0,0.0,-1.1373,-1.1323,0.0,-1.1707,-1.1568,-1.1514,-1.1614,-1.1611,-1.1674,-1.1734,-1.2067,-1.2396,-1.2742,-1.2869,-1.3086,-1.3395,-1.347,-1.3544,-1.3617,-1.3722,-1.3817,-1.3817,-1.4279,-1.4506,-1.4545,-1.5258,-1.5385,-1.5156,-1.5746,-1.5315,-1.4255,-1.4665,-1.4674,-1.4477,-1.4649,-1.4967,-1.5398,0.0,0.0,0.0,0.0,0.0,0.0,0.0,0.0,-0.4334,-0.4398,-0.4561,-0.4728,-0.4894,-0.5093,-0.5259,-0.5395,-0.5395,-0.5395,-0.5395,-0.5395,-0.5395,-0.5395,-0.5395,-0.5371,-0.5284,-0.5233,-0.5209,-0.5209,-0.5209,-0.5287,-0.5474,-0.5525,-0.5545,-0.5549,-0.5566,-0.545,-0.5216,-0.5351,-0.5365,-0.532,-0.5375,-0.5395,-0.5395,0.0,0.0,0.0,0.0,0.0,0.0,0.0,0.0,0.0,0.0,0.0,0.0,0.0,0.0,0.0,0.0,0.0,0.0,0.0,0.0,0.0,0.0,0.0,0.0,0.0,0.0,0.0,0.0,0.0,0.0,0.0,0.0,0.0,0.0,0.0,-1.1149,-1.1333,-1.1381,-1.1502,-1.18,-1.1756,-1.1772,-1.1944,-1.1977,-1.208,-1.2254,-1.2544,-1.2843,-1.3201,-1.3328,-1.3507,-1.3819,-1.3779,-1.3787,-1.389,-1.389,-1.389,-1.3931,-1.4405,-1.4638,-1.4678,-1.5441,-1.5654,-1.549,-1.5794,-1.525,-1.4337,-1.4798,-1.4972,-1.4963,-1.4873,-1.5138,-1.5501,0.0,0.0,0.0,0.0,0.0,0.0,0.0,-0.3322,-0.4331,-0.4561,-0.4728,-0.4861,-0.509,-0.5292,-0.5395,-0.5395,-0.5395,-0.5395,-0.5395,-0.5395,-0.5395,-0.5395,-0.5388,-0.5287,-0.511,-0.5281,-0.5388,-0.5395,-0.5399,-0.5481,-0.5593,-0.5484,-0.5416,-0.5423,-0.5573,-0.5549,-0.5402,-0.5405,-0.5284,-0.5117,-0.5327,-0.5388,-0.5388,0.0,0.0,0.0,0.0,0.0,0.0,0.0,0.0,0.0,0.0,0.0,0.0,0.0,0.0,0.0,0.0,0.0,0.0,0.0,0.0,0.0,0.0,0.0,0.0,0.0,0.0,0.0,0.0,0.0,0.0,0.0,0.0,0.0,-1.102,-1.1048,-1.1141,-1.1476,-1.1647,-1.1765,-1.1908,-1.182,-1.1846,-1.2097,-1.2426,-1.2719,-1.3006,-1.35,-1.3791,-1.3791,-1.3601,-1.3633,-1.3899,-1.3702,-1.376,-1.4088,-1.4088,-1.4088,-1.4088,-1.4088,-1.4088,-1.413,-1.4985,-1.5143,-1.486,-1.5688,-1.5803,-1.5443,-1.5496,-1.5488,-1.5449,-1.5194,-1.5149,-1.5165,0.0,0.0,0.0,0.0,0.0,0.0,0.0,-0.2883,-0.3756,-0.4492,-0.4728,-0.4861,-0.509,-0.5292,-0.5395,-0.5395,-0.5395,-0.5395,-0.5395,-0.5395,-0.5395,-0.5395,-0.5254,-0.5226,-0.5327,-0.523,-0.525,-0.5395,-0.5504,-0.5599,-0.5745,-0.5813,-0.5847,-0.5847,-0.5891,-0.5766,-0.5569,-0.5637,-0.5532,-0.5324,-0.5223,-0.5196,-0.5206,0.0,0.0,0.0,0.0,0.0,0.0,0.0,0.0,0.0,0.0,0.0,0.0,0.0,0.0,0.0,0.0,0.0,0.0,0.0,0.0,0.0,0.0,0.0,0.0,0.0,0.0,0.0,0.0,0.0,0.0,0.0,0.0,-1.0824,-1.1012,-1.1289,-1.1621,-1.1909,-1.2062,-1.2297,-1.2674,-1.2743,-1.2829,-1.2871,-1.299,-1.3077,-1.3151,-1.348,-1.3642,-1.3642,-1.3851,-1.3964,-1.4045,-1.401,-1.4008,-1.4088,-1.4088,-1.4088,-1.4088,-1.4088,-1.4088,-1.413,-1.4334,-1.4413,-1.4296,-1.4539,-1.4566,-1.4563,-1.5225,-1.5488,-1.5481,-1.5424,-1.578,-1.6442,0.0,0.0,0.0,0.0,0.0,0.0,0.0,-0.2714,-0.3551,-0.4558,-0.4761,-0.4894,-0.5193,-0.5326,-0.5395,-0.5395,-0.5395,-0.5395,-0.5395,-0.5395,-0.5365,-0.5267,-0.5301,-0.5304,-0.5267,-0.5359,-0.5457,-0.5579,-0.5698,-0.585,-0.5996,-0.6084,-0.6125,-0.6125,-0.6125,-0.5996,-0.5776,-0.5793,-0.5667,-0.5484,-0.5359,-0.5214,-0.511,-0.523,-0.5264,-0.5274,-0.5371,-0.5395,-0.5428,-0.5719,0.0,0.0,0.0,0.0,0.0,0.0,0.0,0.0,0.0,0.0,0.0,0.0,0.0,0.0,0.0,0.0,0.0,0.0,0.0,0.0,0.0,0.0,0.0,0.0,-1.1093,-1.1543,-1.1543,-1.1795,-1.2046,-1.2344,-1.2573,-1.279,-1.3056,-1.3146,-1.326,-1.3347,-1.3353,-1.346,-1.3748,-1.388,-1.4026,-1.4195,-1.4362,-1.4499,-1.4499,-1.4499,-1.4499,-1.4499,-1.4499,-1.4499,-1.4449,-1.4329,-1.4269,-1.4262,-1.4142,-1.4088,-1.4088,-1.4088,-1.4088,0.0,0.0,0.0,0.0,0.0,-1.5164,-1.598,0.0,0.0,0.0,0.0,0.0,0.0,0.0,-0.2648,-0.3485,-0.4661,-0.4797,-0.4964,-0.5362,-0.5395,-0.5395,-0.5395,-0.5395,-0.5395,-0.5395,-0.5378,-0.5281,-0.513,-0.5399,-0.5426,-0.5154,-0.5589,-0.581,-0.5827,-0.5979,-0.6125,-0.63,-0.63,-0.63,-0.63,-0.63,-0.6183,-0.601,-0.5911,-0.5769,-0.5637,-0.562,-0.543,-0.5123,-0.5123,-0.5123,-0.514,-0.5324,-0.5382,-0.5491,-0.6174,0.0,0.0,0.0,0.0,0.0,0.0,0.0,0.0,0.0,0.0,0.0,0.0,0.0,0.0,0.0,0.0,0.0,0.0,0.0,0.0,0.0,0.0,0.0,0.0,-1.179,-1.2338,-1.2438,-1.2452,-1.2552,-1.2857,-1.3093,-1.3273,-1.3307,-1.334,-1.3467,-1.368,-1.3733,-1.3979,-1.4543,0.0,0.0,0.0,0.0,-1.5008,-1.5008,-1.5008,-1.5008,-1.5008,-1.5008,-1.5008,-1.5001,-1.4689,-1.4569,-1.4556,-1.4295,-1.4168,-1.4135,-1.4135,-1.4115,-1.4088,-1.4088,-1.4088,-1.4097,-1.387,-1.4193,-1.4851,0.0,0.0,0.0,0.0,0.0,0.0,0.0,-0.2213,-0.2917,-0.4595,-0.4797,-0.4964,-0.5362,-0.5395,-0.5395,-0.5395,-0.5395,-0.5395,-0.5395,-0.5243,-0.5216,-0.5347,-0.5254,-0.5308,-0.5498,-0.5698,-0.5861,-0.5949,-0.6139,-0.6269,-0.63,-0.63,-0.63,-0.63,-0.63,-0.6282,-0.6252,-0.6224,-0.6084,-0.5899,-0.581,-0.5583,-0.5351,-0.5351,-0.5351,-0.5337,-0.5209,-0.5254,-0.5491,-0.6174,-0.64,-0.6531,-0.7186,-0.7321,0.0,0.0,0.0,0.0,0.0,0.0,0.0,0.0,0.0,0.0,0.0,0.0,0.0,0.0,0.0,0.0,0.0,0.0,0.0,-1.1935,-1.2191,-1.2559,-1.324,-1.334,-1.3367,-1.3427,-1.3487,-1.3613,-1.3895,-1.4128,-1.4289,-1.4299,-1.4576,-1.4756,-1.4914,-1.4877,-1.4948,-1.5008,-1.5008,-1.5008,-1.5008,-1.5008,-1.5008,-1.5008,0.0,0.0,-1.5008,-1.4948,-1.4877,-1.4921,-1.4861,-1.4656,-1.4436,-1.4436,-1.4302,-1.4088,-1.4088,-1.4088,-1.4159,-1.4837,-1.5584,-1.6419,0.0,0.0,0.0,0.0,0.0,0.0,0.0,-0.1879,-0.2616,-0.4092,-0.4595,-0.4964,-0.5362,-0.5395,-0.5395,-0.5395,-0.5395,-0.5395,-0.5395,-0.5216,-0.5199,-0.5388,-0.5362,-0.5467,-0.5691,-0.5915,-0.6067,-0.6146,-0.6262,-0.63,-0.63,-0.63,-0.63,-0.63,-0.63,-0.63,-0.63,-0.63,-0.6255,-0.6139,-0.6064,-0.5898,-0.5661,-0.5362,-0.5247,-0.5237,-0.5127,-0.5179,-0.5419,-0.6535,-0.6892,-0.7088,-0.8134,-0.8236,-0.7804,0.0,0.0,0.0,0.0,0.0,0.0,0.0,0.0,0.0,0.0,0.0,0.0,0.0,0.0,-1.0736,0.0,0.0,-1.2011,-1.2489,-1.2779,-1.3087,-1.354,-1.3733,-1.3868,-1.3868,-1.3868,-1.3981,-1.4275,-1.4436,-1.4583,-1.473,-1.4921,-1.5075,-1.517,-1.5177,-1.5251,-1.5391,-1.5398,-1.5398,-1.5398,-1.5398,-1.5398,-1.5398,-1.5398,-1.5398,-1.5391,-1.5244,-1.5177,-1.517,-1.5068,-1.4877,-1.473,-1.4583,-1.4436,-1.4289,-1.4142,-1.4088,-1.413,-1.458,-1.5318,-1.6124,0.0,0.0,0.0,0.0,0.0,0.0,0.0,-0.1678,-0.2482,-0.3589,-0.4325,-0.4894,-0.5292,-0.5326,-0.5348,-0.5351,-0.5378,-0.5371,-0.5313,-0.5159,-0.5159,-0.5344,-0.5498,-0.5627,-0.5796,-0.6143,-0.63,-0.63,-0.63,-0.63,-0.63,-0.63,-0.63,-0.63,-0.63,-0.63,-0.63,-0.63,-0.63,-0.63,-0.63,-0.6186,-0.601,-0.5403,-0.5143,-0.5137,-0.5076,-0.5076,-0.5343,-0.6895,-0.7386,-0.7647,-0.9055,-0.9049,-0.8361,-0.7614,-0.7027,0.0,0.0,0.0,0.0,0.0,0.0,0.0,0.0,0.0,-0.9546,-1.0803,-1.1356,-1.167,-1.1946,-1.2245,-1.2579,-1.2911,-1.3327,-1.362,-1.368,-1.3935,-1.4088,-1.4088,-1.4135,-1.4262,-1.4496,-1.4623,-1.479,-1.5075,-1.5149,-1.5237,-1.5471,-1.5478,-1.5585,-1.5771,-1.5784,-1.5784,-1.5784,-1.5784,-1.5784,-1.5784,-1.5784,-1.5784,-1.5771,-1.5585,-1.5478,-1.5464,-1.517,-1.5095,-1.5068,-1.473,-1.4603,-1.4583,-1.4349,-1.4255,-1.4242,-1.4128,-1.4664,-1.5394,0.0,0.0,0.0,0.0,0.0,0.0,0.0,0.0,-0.2449,-0.342,-0.4156,-0.4758,-0.509,-0.5123,-0.5137,-0.5137,-0.5281,-0.5283,-0.4986,-0.4921,-0.4975,-0.5117,-0.5304,-0.5549,-0.5796,-0.6143,-0.63,-0.63,-0.63,-0.63,-0.63,-0.63,-0.63,-0.63,-0.63,-0.63,-0.63,-0.63,-0.63,-0.63,-0.63,-0.6289,-0.6207,-0.56,-0.5368,-0.5334,-0.5036,-0.4992,-0.5343,-0.6895,-0.7386,-0.7647,-0.9055,-0.9049,-0.8361,-0.7614,0.0,-0.6268,-0.5624,-0.6629,-0.804,-0.8615,-0.9236,-0.9968,0.0,0.0,-1.0439,-1.1206,-1.1817,-1.2211,-1.2245,-1.2726,-1.32,-1.3453,-1.356,-1.3693,-1.4001,-1.4068,-1.4088,-1.4088,-1.4315,-1.4482,-1.4516,-1.499,-1.5311,-1.5344,-1.5585,-1.5698,-1.5731,-1.5785,-1.5751,-1.5784,-1.5784,-1.5784,-1.5784,-1.5784,-1.5784,-1.5784,-1.5784,-1.5784,-1.5784,-1.5751,-1.5785,-1.5718,-1.5478,-1.5351,-1.5324,-1.5082,-1.4961,-1.4955,-1.4921,-1.4908,-1.4847,-1.4282,-1.4664,-1.5394,0.0,0.0,0.0,0.0,0.0,0.0,0.0,0.0,0.0,-0.2751,-0.3487,-0.4223,-0.4861,-0.4954,-0.4977,-0.4988,-0.5067,-0.505,-0.4897,-0.4836,-0.4891,-0.509,-0.5114,-0.5325,-0.5789,-0.5925,-0.6119,-0.63,-0.63,-0.63,-0.63,-0.63,-0.63,-0.63,-0.63,-0.63,-0.63,-0.63,-0.63,-0.6293,-0.6162,-0.6074,-0.5939,-0.5423,-0.5176,-0.5077,-0.4863,-0.4823,0.0,-0.6746,-0.7299,-0.7482,-0.8581,-0.8721,-0.8291,-0.7153,-0.6699,0.0,-0.7198,-0.7864,0.0,0.0,-1.0003,-1.0346,-1.0739,-1.0868,-1.1098,-1.1787,-1.2412,-1.2886,-1.3014,-1.3253,-1.352,0.0,-1.3901,-1.3948,-1.4068,-1.4229,-1.4342,-1.4342,-1.475,-1.4963,-1.4796,-1.515,-1.5464,-1.5631,-1.5758,-1.5784,-1.5784,-1.5784,-1.5784,-1.5784,-1.5784,-1.5784,-1.5784,-1.5784,-1.5784,-1.5784,-1.5784,-1.5784,-1.5784,-1.5784,-1.5784,-1.5771,-1.5698,-1.5651,-1.5625,-1.5337,-1.5217,-1.5197,-1.5075,-1.5008,-1.4955,-1.4496,-1.4543,-1.4851,0.0,0.0,0.0,0.0,0.0,0.0,0.0,0.0,0.0,0.0,-0.285,-0.3744,-0.4581,-0.4785,-0.4833,-0.4807,-0.4864,-0.4884,-0.4799,-0.4728,-0.4785,-0.4968,-0.4921,-0.5138,-0.5606,-0.5657,-0.5825,-0.605,-0.6132,-0.617,-0.6173,-0.6259,-0.63,-0.63,-0.63,-0.63,-0.6293,-0.6207,-0.617,-0.6156,-0.5922,-0.5779,-0.5637,-0.5194,-0.4978,-0.487,-0.4745,-0.4691,-0.494,-0.6415,-0.6921,-0.7078,-0.7933,-0.8064,-0.7707,-0.6691,-0.6407,-0.6681,-0.7991,0.0,0.0,-1.0212,-1.0724,-1.0939,-1.1049,-1.1439,-1.198,-1.2439,-1.2966,-1.3353,-1.356,-1.3666,-1.3834,-1.4055,-1.4088,-1.4088,-1.4088,-1.4335,-1.4522,-1.4522,-1.5037,-1.5311,-1.5149,-1.5344,-1.5605,-1.5764,-1.5784,-1.5784,-1.5784,-1.5784,-1.5784,-1.5784,-1.5784,-1.5784,-1.5784,-1.5784,-1.5784,-1.5784,-1.5784,-1.5784,-1.5784,-1.5784,-1.5784,-1.5784,-1.5784,-1.5784,-1.5764,-1.5605,-1.5518,-1.5491,-1.5284,-1.5204,-1.5164,-1.487,-1.471,-1.4616,0.0,0.0,0.0,0.0,0.0,0.0,0.0,0.0,0.0,0.0,0.0,0.0,0.0,-0.4578,-0.4649,-0.4533,-0.474,-0.4792,-0.4525,-0.4641,-0.4694,-0.4704,-0.4843,-0.4961,-0.5117,-0.5298,-0.5412,-0.5423,-0.5674,-0.5817,-0.5823,-0.616,-0.63,-0.63,-0.63,-0.63,-0.6279,-0.5942,-0.5817,-0.5789,-0.5532,-0.5412,-0.5375,-0.504,-0.4891,-0.487,-0.4745,-0.4691,-0.4852,-0.5868,-0.6238,-0.6366,-0.7191,-0.699,0.0,-0.64,-0.603,-0.5889,0.0,0.0,-0.8951,-1.0408,-1.1507,-1.2314,-1.2639,-1.2953,-1.314,-1.3186,-1.338,-1.3593,-1.36,-1.3881,-1.4075,-1.4088,-1.4088,-1.4088,-1.4088,-1.4335,-1.4522,-1.4522,-1.5037,-1.5391,0.0,-1.5645,-1.5771,-1.5784,-1.5784,-1.5784,-1.5784,-1.5784,-1.5784,-1.5784,-1.5784,-1.5784,-1.5784,-1.5784,-1.5784,-1.5784,-1.5784,-1.5784,-1.5784,-1.5784,-1.5784,-1.5784,-1.5784,-1.5784,-1.5784,-1.5771,-1.5764,-1.5764,-1.5758,-1.5758,-1.5718,-1.5478,-1.519,-1.4995,0.0,0.0,0.0,0.0,0.0,0.0,0.0,0.0,0.0,0.0,0.0,0.0,0.0,0.0,0.0,0.0,-0.4017,-0.4292,-0.4307,-0.4347,-0.4429,-0.4566,-0.4617,-0.4731,-0.4955,-0.504,-0.5165,-0.5395,-0.5494,-0.5542,-0.5545,-0.5651,-0.5699,-0.5699,-0.5699,-0.5699,-0.5692,-0.5586,-0.5542,-0.5525,-0.5291,-0.5152,-0.5047,-0.4843,-0.4704,-0.4638,0.0,-0.4566,-0.4724,-0.5723,-0.6057,-0.6137,-0.6597,-0.6597,-0.6325,-0.5981,-0.6222,-0.6863,-0.8165,0.0,-0.9621,-1.1645,-1.1948,-1.198,-1.2863,-1.328,-1.346,-1.346,-1.3226,-1.2993,-1.2993,-1.3117,-1.3179,-1.3179,-1.3701,-1.4088,-1.4088,-1.4509,-1.4816,-1.4816,-1.5331,0.0,0.0,0.0,0.0,-1.5784,-1.5784,-1.5784,-1.5784,-1.5784,-1.5784,-1.5784,-1.5784,-1.5784,-1.5784,-1.5784,-1.5784,-1.5784,-1.5784,-1.5784,-1.5784,-1.5784,-1.5784,-1.5784,-1.5784,-1.5784,-1.5784,-1.5784,-1.5784,-1.5784,-1.5784,-1.5784,-1.5771,-1.5718,-1.5618,-1.5484,0.0,0.0,0.0,0.0,0.0,0.0,0.0,0.0,0.0,0.0,0.0,0.0,0.0,0.0,0.0,0.0,0.0,-0.3405,-0.3491,-0.3741,-0.3935,-0.4098,-0.4349,-0.4583,-0.4752,-0.4755,-0.485,-0.5071,-0.518,-0.5235,-0.5238,-0.5344,-0.5395,-0.5395,-0.5395,-0.5395,-0.5388,-0.5279,-0.5203,-0.5122,-0.4883,-0.472,-0.4631,-0.4503,-0.4464,0.0,-0.4408,-0.4473,-0.4667,-0.5363,-0.5608,-0.5666,-0.5938,-0.6084,-0.6123,-0.6135,-0.6665,-0.7526,-0.8905,-0.9432,-1.0034,-1.1965,-1.2114,-1.208,-1.3114,-1.3467,-1.3573,-1.3467,-1.2807,-1.2235,-1.2194,-1.2307,-1.2445,-1.25,-1.337,-1.4088,-1.4088,-1.464,-1.5008,-1.5008,-1.5478,-1.5784,0.0,0.0,0.0,-1.5784,-1.5784,-1.5784,-1.5784,-1.5784,-1.5784,-1.5784,-1.5784,-1.5784,-1.5784,-1.5784,-1.5784,-1.5784,-1.5784,-1.5784,-1.5784,-1.5784,-1.5784,-1.5784,-1.5784,-1.5784,-1.5784,-1.5784,-1.5784,-1.5784,-1.5784,-1.5784,-1.5784,-1.5784,-1.5784,-1.5724,0.0,0.0,0.0,0.0,0.0,0.0,0.0,0.0,0.0,0.0,0.0,0.0,0.0,0.0,0.0,0.0,0.0,0.0,-0.2176,-0.2843,-0.3262,-0.3345,-0.4042,-0.4436,-0.4436,-0.4463,-0.4463,-0.4463,-0.4722,-0.4864,-0.487,-0.5182,-0.5315,-0.5315,-0.5315,-0.5315,-0.5298,-0.4985,-0.4773,-0.4623,-0.4327,-0.4193,-0.4166,-0.4052,-0.4215,-0.4463,-0.4276,-0.4424,-0.4714,-0.4867,-0.4897,-0.4992,-0.5313,-0.5542,-0.5866,-0.6834,-0.7335,-0.7884,-0.9246,-0.9738,-1.0163,-1.1461,-1.1956,-1.2395,-1.3313,-1.3505,-1.3412,-1.3167,-1.2187,-1.1325,0.0,0.0,-1.1824,-1.1981,-1.3175,-1.4055,-1.4082,-1.464,-1.5008,0.0,0.0,0.0,0.0,0.0,0.0,-1.5784,0.0,-1.5784,-1.5784,-1.5784,-1.5784,-1.5784,-1.5784,-1.5784,-1.5784,-1.5784,-1.5784,-1.5784,-1.5784,-1.5784,-1.5784,-1.5784,-1.5784,-1.5784,-1.5784,-1.5784,-1.5784,-1.5784,-1.5784,-1.5784,-1.5784,-1.5784,-1.5784,-1.5784,-1.5784,-1.5784,0.0,0.0,0.0,0.0,0.0,0.0,0.0,0.0,0.0,0.0,0.0,0.0,0.0,0.0,0.0,0.0,0.0,0.0,-0.204,-0.2237,-0.2374,-0.251,-0.3125,-0.3463,-0.3463,-0.391,-0.4132,-0.4132,-0.4204,-0.4241,-0.4241,-0.4311,-0.4345,-0.4345,-0.4345,-0.4345,-0.4342,-0.427,-0.4213,-0.4175,-0.4079,-0.4052,-0.4052,-0.4024,-0.4107,-0.4276,-0.4221,-0.4424,-0.4714,0.0,0.0,0.0,0.0,-0.6002,-0.6629,-0.7204,-0.807,-0.8992,-0.9627,-0.9622,-0.965,-1.0821,-1.0762,-1.0721,-1.2106,-1.2325,-1.2138,-1.1784,-1.0852,-0.9872,0.0,0.0,0.0,-1.0829,-1.2348,0.0,-1.4028,-1.464,0.0,0.0,0.0,-1.5784,-1.5784,-1.5784,0.0,0.0,-1.5784,-1.5784,-1.5784,-1.5784,-1.5784,-1.5784,-1.5784,-1.5784,-1.5784,-1.5784,-1.5784,-1.5784,-1.5784,-1.5784,-1.5784,-1.5784,-1.5784,-1.5784,-1.5784,-1.5784,-1.5784,-1.5784,-1.5784,-1.5784,-1.5784,-1.5784,-1.5784,-1.5784,-1.5784,-1.5784,0.0,0.0,0.0,0.0,0.0,0.0,0.0,0.0,0.0,0.0,0.0,0.0,0.0,0.0,0.0,0.0,0.0,0.0,0.0,-0.1427,-0.1648,-0.1703,-0.2345,-0.2822,-0.3102,-0.3436,-0.3744,-0.3996,-0.3996,-0.3996,-0.3996,-0.3996,-0.3996,-0.3996,-0.3996,-0.3996,-0.3996,-0.3996,-0.3965,0.0,0.0,-0.391,-0.391,-0.3858,-0.3944,-0.4116,-0.4179,0.0,0.0,0.0,0.0,-0.5423,-0.5542,-0.6183,-0.7057,-0.7847,0.0,-0.9498,-0.9874,-0.966,-0.9511,-1.0266,-0.9997,-0.99,-1.1084,-1.1072,-1.07,-1.0333,-0.9378,0.0,0.0,0.0,0.0,0.0,0.0,0.0,-1.3828,-1.4509,-1.5008,0.0,-1.5478,0.0,-1.5784,-1.5784,-1.5784,0.0,-1.5784,-1.5784,-1.5784,-1.5784,-1.5784,-1.5784,-1.5784,-1.5784,-1.5784,-1.5784,-1.5784,-1.5784,-1.5784,-1.5784,-1.5784,-1.5784,-1.5784,-1.5784,0.0,-1.5784,-1.5784,-1.5784,-1.5784,-1.5784,-1.5784,-1.5784,-1.5784,-1.5784,-1.5784,-1.5784,0.0,0.0,0.0,0.0,0.0,0.0,0.0,0.0,0.0,0.0,0.0,0.0,0.0,0.0,0.0,0.0,0.0,0.0,0.0,0.0,-0.095,-0.095,-0.1647,-0.2261,-0.2796,-0.288,-0.3213,-0.3827,-0.3827,-0.3855,-0.3941,-0.3941,-0.3941,-0.3941,-0.3941,-0.3941,-0.3941,-0.3941,-0.3882,-0.3769,-0.3769,-0.3769,-0.3771,0.0,-0.3758,-0.4014,0.0,0.0,0.0,0.0,-0.5395,-0.5426,-0.5562,-0.6257,-0.7223,-0.8349,-0.9027,-0.9488,-0.9842,-0.9622,-0.9383,-0.9643,-0.949,-0.9443,-1.0055,-0.9745,-0.9215,-0.8895,0.0,-0.7223,-0.7131,0.0,-0.9012,-0.9545,0.0,-1.3088,-1.35,-1.4349,-1.4961,-1.5001,-1.5444,-1.5738,-1.5778,-1.5784,-1.5784,-1.5784,-1.5784,-1.5784,-1.5784,-1.5784,-1.5784,-1.5784,-1.5784,-1.5784,-1.5784,-1.5784,-1.5784,-1.5784,-1.5784,-1.5784,-1.5784,-1.5784,-1.5784,-1.5784,-1.5784,-1.5784,-1.5784,-1.5784,-1.5784,-1.5784,-1.5784,-1.5784,-1.5784,-1.5784,-1.5784,-1.5784,0.0,0.0,0.0,0.0,0.0,0.0,0.0,0.0,0.0,0.0,0.0,0.0,0.0,0.0,0.0,0.0,0.0,0.0,0.0,0.0,0.0,-0.0196,-0.0784,-0.1177,-0.1289,-0.1762,-0.232,-0.2931,-0.2931,-0.3186,-0.3666,-0.3666,-0.3666,-0.3666,-0.3666,-0.3666,-0.3666,-0.3666,-0.3666,-0.3638,-0.3638,-0.3638,-0.3638,-0.3613,0.0,0.0,0.0,0.0,0.0,0.0,-0.5395,-0.5443,-0.5681,-0.6347,-0.714,-0.778,-0.823,-0.862,-0.8987,-0.8759,-0.8472,-0.8775,-0.8638,-0.8535,-0.8711,-0.8602,0.0,0.0,0.0,-0.6908,-0.619,-0.6801,0.0,-0.9033,0.0,0.0,0.0,0.0,-1.4689,0.0,0.0,0.0,0.0,0.0,0.0,0.0,0.0,-1.5784,-1.5784,-1.5784,-1.5784,-1.5784,-1.5784,-1.5784,-1.5784,-1.5784,-1.5784,-1.5784,-1.5784,-1.5784,-1.5784,-1.5784,-1.5784,-1.5784,-1.5784,0.0,-1.5784,-1.5784,-1.5784,-1.5784,-1.5784,-1.5784,-1.5784,-1.5784,-1.5784,-1.5784,0.0,0.0,0.0,0.0,0.0,0.0,0.0,0.0,0.0,0.0,0.0,0.0,0.0,0.0,0.0,0.0,0.0,0.0,0.0,0.0,0.0,0.0,0.0,0.0,-0.0898,-0.1177,0.0,0.0,0.0,-0.285,-0.313,0.0,0.0,-0.3613,-0.3613,-0.3613,-0.3613,-0.3613,-0.3613,-0.3613,-0.3613,-0.3613,-0.3613,0.0,0.0,0.0,0.0,0.0,0.0,0.0,-0.5395,-0.5446,-0.5708,-0.6369,-0.7077,-0.7522,-0.7965,-0.8332,-0.8541,-0.8318,-0.8049,-0.8095,-0.7858,-0.7639,-0.7494,0.0,0.0,0.0,0.0,-0.6419,-0.6135,0.0,0.0,0.0,0.0,0.0,0.0,0.0,0.0,0.0,0.0,0.0,0.0,0.0,0.0,0.0,0.0,-1.5784,-1.5784,-1.5784,-1.5784,-1.5784,-1.5784,-1.5784,-1.5784,-1.5784,-1.5784,-1.5784,-1.5784,-1.5784,-1.5784,-1.5784,-1.5784,-1.5784,-1.5784,-1.5784,-1.5784,-1.5784,-1.5784,-1.5784,-1.5784,-1.5784,-1.5778,-1.5683,-1.5635,-1.5635,0.0,0.0,0.0,0.0,0.0,0.0,0.0,0.0,0.0,0.0,0.0,0.0,0.0,0.0,0.0,0.0,0.0,0.0,0.0,0.0,0.0,0.0,0.0,0.0,0.0,0.0,0.0,0.0,0.0,0.0,0.0,0.0,0.0,0.0,0.0,0.0,-0.3613,-0.3613,-0.3613,0.0,0.0,0.0,0.0,0.0,0.0,0.0,0.0,0.0,0.0,0.0,-0.5416,-0.5491,-0.5718,-0.6226,-0.6793,-0.7147,-0.7545,-0.791,-0.7951,-0.7854,-0.7718,-0.7584,-0.7344,-0.7027,-0.6666,-0.6353,0.0,0.0,-0.602,-0.6115,-0.6276,0.0,0.0,0.0,0.0,0.0,0.0,0.0,0.0,0.0,0.0,0.0,0.0,0.0,0.0,0.0,0.0,0.0,-1.5493,-1.5493,-1.5391,-1.5146,-1.5146,-1.5146,-1.5146,-1.5146,-1.5146,-1.5146,-1.5146,-1.5146,-1.5146,-1.5146,-1.5146,-1.5153,-1.5397,-1.5493,-1.5493,-1.573,-1.5784,-1.573,-1.573,-1.5689,-1.5642,-1.5452,-1.5404,-1.5356,0.0,0.0,0.0,0.0,0.0,0.0,0.0,0.0,0.0,0.0,0.0,0.0,0.0,0.0,0.0,0.0,0.0,0.0,0.0,0.0,0.0,0.0,0.0,0.0,0.0,0.0,0.0,0.0,0.0,0.0,0.0,0.0,0.0,0.0,0.0,0.0,0.0,-0.3613,0.0,0.0,0.0,0.0,0.0,0.0,0.0,0.0,0.0,0.0,0.0,0.0,0.0,-0.5596,-0.5752,-0.5835,-0.5969,-0.6322,0.0,0.0,-0.69,-0.7067,-0.7194,-0.739,-0.7263,-0.7009,-0.6677,0.0,0.0,-0.6057,-0.6142,-0.6282,-0.6296,-0.6363,-0.6563,0.0,0.0,0.0,0.0,0.0,0.0,0.0,0.0,0.0,0.0,0.0,0.0,0.0,0.0,0.0,-1.4442,-1.4442,-1.3998,-1.3022,-1.2969,-1.2969,-1.2969,-1.2969,-1.2969,-1.2969,-1.2969,-1.2969,-1.2969,-1.2969,-1.2969,-1.3017,-1.3998,-1.4442,0.0,-1.5397,-1.5689,-1.554,-1.554,-1.5363,-1.5178,-1.5131,-1.5131,-1.5131,0.0,0.0,0.0,0.0,0.0,0.0,0.0,0.0,0.0,0.0,0.0,0.0,0.0,0.0,0.0,0.0,0.0,0.0,0.0,0.0,0.0,0.0,0.0,0.0,0.0,0.0,0.0,0.0,0.0,0.0,0.0,0.0,0.0,0.0,0.0,0.0,0.0,0.0,0.0,0.0,0.0,0.0,0.0,0.0,0.0,0.0,0.0,0.0,0.0,0.0,0.0,0.0,-0.5719,-0.5939,0.0,0.0,-0.6402,-0.6511,-0.6595,-0.6749,-0.684,-0.6871,-0.6801,-0.6672,-0.6486,0.0,-0.6356,-0.6221,-0.6255,-0.63,-0.63,-0.63,-0.6343,-0.6412,0.0,0.0,0.0,0.0,0.0,0.0,0.0,0.0,0.0,0.0,0.0,0.0,0.0,0.0,-1.249,-1.3022,-1.3119,-1.2732,-1.2678,-1.2678,-1.2678,-1.2678,-1.2678,-1.2678,-1.2678,-1.2678,-1.2678,-1.2678,-1.2678,-1.2727,-1.3167,-1.3709,0.0,-1.4729,-1.5159,-1.5493,-1.5493,-1.5356,-1.5083,-1.4939,-1.4838,-1.4838,0.0,0.0,0.0,0.0,0.0,0.0,0.0,0.0,0.0,0.0,0.0,0.0,0.0,0.0,0.0,0.0,0.0,0.0,0.0,0.0,0.0,0.0,0.0,0.0,0.0,0.0,0.0,0.0,-0.0427,0.0,0.0,0.0,0.0,0.0,0.0,0.0,0.0,0.0,0.0,0.0,0.0,0.0,0.0,0.0,0.0,0.0,0.0,0.0,0.0,0.0,0.0,0.0,0.0,0.0,0.0,0.0,-0.6371,-0.645,-0.645,-0.6528,-0.6542,-0.6477,-0.645,-0.6422,0.0,0.0,-0.63,-0.63,-0.63,-0.63,-0.63,-0.63,-0.6248,-0.6016,0.0,-0.7265,0.0,0.0,0.0,0.0,0.0,0.0,0.0,0.0,0.0,0.0,0.0,0.0,-1.0788,-1.1419,-1.176,-1.176,-1.176,-1.176,-1.176,-1.176,-1.176,-1.176,-1.176,-1.176,-1.176,-1.176,-1.176,-1.1663,-1.1999,-1.2533,0.0,-1.3463,-1.3896,-1.4328,-1.4328,-1.419,-1.3908,-1.3709,-1.3859,-1.41,0.0,0.0,0.0,0.0,0.0,0.0,0.0,0.0,0.0,0.0,0.0,0.0,0.0,0.0,0.0,0.0,0.0,0.0,0.0,0.0,0.0,0.0,0.0,0.0,0.0,0.0,0.0,0.0,0.0,-0.0308,-0.0923,-0.1663,0.0,0.0,0.0,0.0,0.0,0.0,0.0,0.0,0.0,0.0,0.0,0.0,0.0,0.0,0.0,0.0,0.0,0.0,0.0,0.0,0.0,0.0,0.0,0.0,-0.6303,-0.6303,-0.6303,-0.6303,-0.6303,-0.6303,-0.6303,-0.6303,0.0,0.0,-0.63,-0.63,-0.63,-0.63,-0.63,-0.63,-0.6248,-0.6016,-0.5993,0.0,0.0,0.0,0.0,0.0,0.0,0.0,0.0,0.0,0.0,0.0,0.0,0.0,-0.9677,-0.9628,-0.9628,-0.9628,-0.9628,-0.9628,-0.9628,-0.9628,-0.9628,-0.9628,-0.9628,-0.9628,-0.9628,-0.9628,-0.948,-0.9282,-1.0346,-1.0685,0.0,-1.1507,-1.1804,-1.1658,-1.1658,-1.1463,-1.1219,-1.1219,-1.1853,-1.2727,0.0,0.0,0.0,0.0,0.0,0.0,0.0,0.0,0.0,0.0,0.0,0.0,0.0,0.0,0.0,0.0,0.0,0.0,0.0,0.0,0.0,0.0,0.0,0.0,0.0,0.0,0.0,0.0,0.0,-0.0101,-0.0304,-0.1031,-0.1351,-0.1351,0.0,0.0,0.0,0.0,0.0,0.0,0.0,0.0,0.0,0.0,0.0,0.0,0.0,0.0,0.0,0.0,0.0,0.0,0.0,0.0,0.0,-0.5395,-0.5828,0.0,-0.63,-0.63,-0.63,-0.63,-0.63,-0.63,-0.63,0.0,-0.63,-0.63,-0.63,-0.63,-0.63,-0.63,-0.6282,-0.6235,-0.6098,0.0,0.0,0.0,0.0,0.0,0.0,0.0,0.0,0.0,0.0,0.0,0.0,0.0,-0.9076,-0.9076,-0.9225,-0.9579,-0.9579,-0.9579,-0.9579,-0.9579,-0.9579,-0.9579,-0.943,-0.9335,-0.9331,-0.913,-0.9027,0.0,-0.9266,-0.9805,-1.0435,-1.073,-1.117,-1.1609,-1.1609,-1.1414,-1.1219,-1.1219,-1.1414,-1.1755,0.0,0.0,0.0,0.0,0.0,0.0,0.0,0.0,0.0,0.0,0.0,0.0,0.0,0.0,0.0,0.0,0.0,0.0,0.0,0.0,0.0,0.0,0.0,0.0,0.0,0.0,0.0,0.0,0.0,0.0,0.0,-0.076,-0.0948,-0.0728,-0.136,-0.2094,0.0,0.0,0.0,0.0,0.0,0.0,-0.427,0.0,0.0,0.0,0.0,0.0,0.0,0.0,0.0,0.0,0.0,0.0,0.0,0.0,-0.5631,-0.63,0.0,-0.63,-0.63,-0.63,-0.63,0.0,0.0,0.0,-0.63,-0.63,-0.63,-0.63,-0.63,-0.63,-0.63,-0.63,0.0,0.0,0.0,0.0,0.0,0.0,0.0,0.0,0.0,0.0,0.0,0.0,0.0,0.0,-0.8977,-0.8874,-0.8973,-0.9278,-0.9381,-0.943,-0.943,-0.9529,-0.9529,-0.943,-0.9286,-0.9133,-0.9031,-0.8874,-0.8726,0.0,-0.8627,-0.897,0.0,-0.9509,-0.9801,-1.0243,-1.0243,-1.0145,-0.9998,-0.9998,-1.0243,-1.073,0.0,0.0,0.0,0.0,0.0,0.0,0.0,0.0,0.0,0.0,0.0,0.0,0.0,0.0,0.0,0.0,0.0,0.0,0.0,0.0,0.0,0.0,0.0,0.0,0.0,0.0,0.0,0.0,0.0,0.0,0.0,-0.0696,-0.066,-0.0037,-0.0733,-0.1464,-0.2334,-0.368,-0.3804,-0.3117,-0.3931,-0.4361,0.0,0.0,0.0,0.0,0.0,0.0,0.0,0.0,0.0,0.0,0.0,0.0,0.0,0.0,0.0,0.0,0.0,-0.6261,0.0,0.0,0.0,0.0,0.0,0.0,0.0,-0.63,-0.63,-0.63,-0.63,-0.63,0.0,0.0,0.0,0.0,0.0,0.0,0.0,0.0,0.0,0.0,0.0,0.0,0.0,0.0,0.0,0.0,-0.9137,-0.8878,-0.8726,-0.8726,-0.8981,-0.9133,-0.9183,-0.943,-0.943,-0.9183,-0.9133,-0.9031,-0.8775,-0.8775,-0.8627,0.0,-0.8382,-0.8233,-0.7988,-0.7988,-0.7988,-0.7988,-0.7988,-0.7988,-0.7988,-0.7988,-0.8627,-0.9657,0.0,0.0,0.0,0.0,0.0,0.0,0.0,0.0,0.0,0.0,0.0,0.0,0.0,0.0,0.0,0.0,0.0,0.0,0.0,0.0,0.0,0.0,0.0,0.0,0.0,0.0,0.0,0.0,0.0,0.0,0.0,-0.0191,-0.0154,0.0,-0.0193,-0.0733,-0.1655,-0.323,-0.374,-0.3495,-0.3679,-0.4121,0.0,0.0,0.0,0.0,-0.2002,-0.1437,0.0,0.0,0.0,0.0,0.0,0.0,0.0,0.0,-0.4148,-0.5318,-0.5318,0.0,-0.63,-0.63,-0.63,-0.63,0.0,0.0,0.0,0.0,0.0,0.0,0.0,0.0,0.0,0.0,0.0,0.0,0.0,0.0,0.0,0.0,0.0,0.0,0.0,0.0,0.0,0.0,0.0,-0.8829,-0.8581,-0.8336,-0.8187,-0.8187,-0.8432,-0.868,-0.8878,-0.8973,-0.8973,-0.8878,-0.868,-0.8531,-0.8482,-0.8283,-0.8137,-0.8088,-0.8088,-0.8038,-0.7988,-0.7988,-0.7988,-0.7988,-0.7988,-0.7988,-0.7988,-0.7988,-0.8137,-0.8531,0.0,0.0,0.0,0.0,0.0,0.0,0.0,0.0,0.0,0.0,0.0,0.0,0.0,0.0,0.0,0.0,0.0,0.0,0.0,0.0,0.0,0.0,0.0,0.0,0.0,0.0,0.0,0.0,0.0,0.0,0.0,0.0,0.0,0.0,-0.0432,-0.0862,-0.137,-0.2591,-0.3344,-0.3681,-0.3642,0.0,0.0,0.0,0.0,0.0,-0.1599,-0.1058,0.0,-0.0157,-0.0118,-0.0353,0.0,0.0,0.0,0.0,-0.3444,-0.4455,-0.4455,-0.5356,-0.63,-0.63,-0.63,-0.63,-0.63,0.0,0.0,0.0,0.0,0.0,0.0,0.0,0.0,0.0,0.0,0.0,0.0,0.0,0.0,0.0,0.0,0.0,0.0,0.0,0.0,0.0,0.0,-0.8627,-0.8577,-0.8237,-0.7988,-0.7988,-0.8137,-0.8333,-0.8627,-0.8726,-0.8726,-0.8627,-0.8482,-0.8333,-0.8237,-0.8088,-0.7988,-0.7988,-0.7988,-0.7988,-0.7988,-0.7988,-0.7988,-0.7988,-0.7988,-0.7988,-0.7988,-0.7988,-0.7988,-0.8137,0.0,0.0,0.0,0.0,0.0,0.0,0.0,0.0,0.0,0.0,0.0,0.0,0.0,0.0,0.0,0.0,0.0,0.0,0.0,0.0,0.0,0.0,0.0,0.0,0.0,0.0,0.0,0.0,0.0,0.0,0.0,0.0,-0.0079,-0.0235,-0.1254,-0.1606,-0.1526,-0.207,-0.2881,-0.3785,-0.3406,0.0,0.0,0.0,0.0,0.0,0.0,0.0,0.0,0.0,-0.0118,-0.0275,-0.0471,0.0,0.0,0.0,0.0,0.0,-0.3752,-0.4927,-0.6103,-0.6103,-0.6222,-0.63,-0.63,0.0,0.0,0.0,0.0,0.0,0.0,0.0,0.0,0.0,0.0,0.0,0.0,0.0,0.0,0.0,0.0,0.0,0.0,0.0,0.0,0.0,0.0,-0.8482,-0.8726,-0.8283,-0.7988,-0.7988,-0.7988,-0.8088,-0.8333,-0.8577,-0.8577,-0.8333,-0.8333,-0.8237,-0.7988,-0.7988,-0.7988,-0.7988,0.0,0.0,-0.7988,-0.7988,-0.7988,-0.7988,-0.7988,-0.7988,-0.7988,-0.7988,-0.7988,-0.8137,0.0,0.0,0.0,0.0,0.0,0.0,0.0,0.0,0.0,0.0,0.0,0.0,0.0,0.0,0.0,0.0,0.0,0.0,0.0,0.0,0.0,0.0,0.0,0.0,0.0,0.0,0.0,0.0,0.0,0.0,0.0,0.0,-0.0392,-0.1176,-0.2738,-0.301,-0.2308,-0.2417,-0.3002,-0.3673,-0.2222,0.0,0.0,0.0,0.0,0.0,0.0,0.0,0.0,0.0,-0.0039,-0.0079,-0.0275,0.0,0.0,0.0,0.0,0.0,-0.3599,-0.4494,-0.5198,-0.5198,-0.5747,-0.63,-0.63,0.0,0.0,0.0,0.0,0.0,0.0,0.0,0.0,0.0,0.0,0.0,0.0,0.0,0.0,0.0,0.0,0.0,0.0,0.0,0.0,0.0,0.0,-0.8432,-0.8482,-0.8187,-0.7988,-0.7988,-0.7988,-0.8041,-0.8038,-0.8088,-0.8088,-0.8038,-0.8038,-0.8038,-0.7988,-0.7988,-0.7988,-0.7988,0.0,-0.7988,-0.7988,-0.7988,-0.7988,-0.7988,-0.7988,-0.7988,-0.7988,-0.7988,-0.7988,-0.8038,0.0,0.0,0.0,0.0,0.0,0.0,0.0,0.0,0.0,0.0,0.0,0.0,0.0,0.0,0.0,0.0,0.0,0.0,0.0,0.0,0.0,0.0,0.0,0.0,0.0,0.0,0.0,0.0,0.0,0.0,0.0,0.0,-0.0196,-0.0628,-0.141,-0.1801,-0.184,-0.1332,-0.1918,-0.301,0.0,0.0,0.0,0.0,0.0,0.0,0.0,0.0,0.0,0.0,0.0,-0.0039,-0.0236,0.0,0.0,0.0,0.0,0.0,-0.2352,-0.3365,-0.4338,-0.4338,-0.5318,-0.63,0.0,0.0,0.0,0.0,0.0,0.0,0.0,0.0,0.0,0.0,0.0,0.0,0.0,0.0,0.0,0.0,0.0,0.0,0.0,0.0,0.0,0.0,0.0,0.0,-0.8382,-0.8137,-0.7988,-0.7988,-0.7988,-0.7988,-0.7988,-0.7988,-0.7988,-0.7988,-0.7988,-0.7988,-0.7988,-0.7988,-0.7988,-0.7988,0.0,-0.7988,-0.7988,-0.7988,-0.7988,-0.7988,-0.7988,-0.7988,-0.7988,-0.7988,-0.7988,-0.7988,0.0,0.0,0.0,0.0,0.0,0.0,0.0,0.0,0.0,0.0,0.0,0.0,0.0,0.0,0.0,0.0,0.0,0.0,0.0,0.0,0.0,0.0,0.0,0.0,0.0,0.0,0.0,0.0,0.0,0.0,0.0,-0.0196,-0.0314,-0.0314,-0.051,-0.0941,-0.1528,-0.0667,-0.1137,-0.2426,0.0,0.0,0.0,0.0,0.0,0.0,0.0,0.0,0.0,0.0,0.0,0.0,0.0,0.0,0.0,-0.0786,-0.1061,-0.1335,-0.1532,-0.2508,-0.3599,-0.3988,-0.5201,0.0,0.0,0.0,0.0,0.0,0.0,0.0,0.0,0.0,0.0,0.0,0.0,0.0,0.0,0.0,0.0,0.0,0.0,0.0,0.0,0.0,0.0,0.0,0.0,0.0,-0.8287,-0.8088,-0.7988,-0.7988,-0.7988,-0.7988,-0.7988,-0.7988,-0.7988,-0.7988,-0.7988,-0.7988,-0.7988,-0.7988,-0.7988,-0.7988,-0.7988,-0.7988,-0.7988,-0.7988,-0.7988,-0.7988,-0.7988,-0.7988,-0.7988,-0.7988,-0.7988,-0.7988,0.0,0.0,0.0,0.0,0.0,0.0,0.0,0.0,0.0,0.0,0.0,0.0,0.0,0.0,0.0,0.0,0.0,0.0,0.0,0.0,0.0,0.0,0.0,0.0,0.0,0.0,0.0,0.0,0.0,0.0,0.0,-0.0824,-0.1215,-0.1254,-0.1996,-0.2347,-0.2347,-0.1567,-0.1723,-0.2347,-0.0745,0.0,0.0,0.0,0.0,0.0,0.0,0.0,0.0,0.0,0.0,0.0,0.0,0.0,-0.0589,-0.0628,-0.0943,-0.1453,-0.2198,-0.2511,-0.2978,-0.4535,-0.5631,0.0,-0.63,-0.6149,0.0,-0.601,0.0,0.0,0.0,0.0,0.0,0.0,0.0,0.0,0.0,0.0,0.0,0.0,0.0,0.0,0.0,0.0,0.0,0.0,0.0,0.0,-0.8038,-0.7988,-0.7988,-0.7988,-0.7988,-0.7988,-0.7988,-0.7988,-0.7988,-0.7988,-0.7988,-0.7988,-0.7988,-0.7988,-0.7988,-0.7988,-0.7988,-0.7988,-0.7988,-0.7988,-0.7988,-0.7988,-0.7988,-0.7988,-0.7988,-0.7988,-0.7988,-0.7988,0.0,0.0,0.0,0.0,0.0,0.0,0.0,0.0,0.0,0.0,0.0,0.0,0.0,0.0,0.0,0.0,0.0,0.0,0.0,0.0,0.0,0.0,0.0,0.0,0.0,0.0,0.0,0.0,0.0,0.0,0.0,-0.0353,-0.051,-0.051,-0.0824,-0.0941,-0.0941,-0.0628,-0.0667,-0.0902,-0.0275,-0.0196,0.0,0.0,0.0,0.0,0.0,0.0,0.0,0.0,0.0,0.0,0.0,-0.0196,-0.0432,-0.0432,-0.0707,-0.11,-0.1413,-0.2391,-0.3443,-0.4105,-0.5177,0.0,0.0,-0.6071,-0.5993,-0.5993,-0.5919,0.0,0.0,0.0,0.0,0.0,0.0,0.0,0.0,0.0,0.0,0.0,0.0,0.0,0.0,0.0,0.0,0.0,0.0,0.0,-0.7988,-0.7988,-0.7988,-0.7988,-0.7988,-0.7988,-0.7988,-0.7988,-0.7988,-0.7988,-0.7988,-0.7988,-0.7988,-0.7988,-0.7988,-0.7988,-0.7988,-0.7988,-0.7988,-0.7988,-0.7988,-0.7988,-0.7988,-0.7988,-0.7988,-0.7988,-0.7988,-0.7988,0.0,0.0,0.0,0.0,0.0,0.0,0.0,0.0,0.0,0.0,0.0,0.0,0.0,0.0,0.0,0.0,0.0,0.0,0.0,0.0,0.0,0.0,0.0,0.0,0.0,0.0,0.0,0.0,0.0,0.0,0.0,0.0,0.0,0.0,0.0,0.0,0.0,0.0,0.0,0.0,0.0,0.0,0.0,0.0,0.0,0.0,0.0,0.0,0.0,0.0,0.0,0.0,0.0,-0.0157,-0.0314,-0.0393,-0.0825,-0.1335,-0.1374,-0.2585,-0.3869,-0.4103,0.0,0.0,-0.5952,-0.5956,-0.5922,-0.5922,-0.5952,0.0,0.0,0.0,0.0,0.0,0.0,0.0,0.0,0.0,0.0,0.0,0.0,0.0,0.0,0.0,0.0,0.0,0.0,0.0,0.0,-0.7988,-0.7988,-0.7988,-0.7988,-0.7988,-0.7988,-0.7988,-0.7988,-0.7988,-0.7988,-0.7988,-0.7988,-0.7988,-0.7988,-0.7988,-0.7988,-0.7988,-0.7988,-0.7988,-0.7988,-0.7988,-0.7988,-0.7988,-0.7988,-0.7988,-0.7988,-0.7988,0.0,0.0,0.0,0.0,0.0,0.0,0.0,0.0,0.0,0.0,0.0,0.0,0.0,0.0,0.0,0.0,0.0,0.0,0.0,0.0,0.0,0.0,0.0,0.0,0.0,0.0,0.0,0.0,0.0,0.0,0.0,0.0,0.0,0.0,0.0,0.0,0.0,0.0,0.0,0.0,0.0,0.0,0.0,0.0,0.0,0.0,0.0,0.0,0.0,0.0,0.0,0.0,0.0,-0.0118,-0.0353,-0.055,-0.1334,-0.2235,-0.2431,-0.3132,-0.3986,0.0,0.0,0.0,-0.5803,-0.5911,-0.58,-0.5803,0.0,0.0,0.0,0.0,0.0,0.0,0.0,0.0,0.0,0.0,0.0,0.0,0.0,0.0,0.0,0.0,0.0,0.0,0.0,0.0,0.0,-0.7988,-0.7988,-0.7988,-0.7988,-0.7988,-0.7988,-0.7988,-0.7988,-0.7988,-0.7988,-0.7988,-0.7988,-0.7988,-0.7988,-0.7988,-0.7988,-0.7988,-0.7988,-0.7988,-0.7988,-0.7988,-0.7988,-0.7988,-0.7988,-0.7988,-0.7988,-0.7988,0.0,0.0,0.0,0.0,0.0,0.0,0.0,0.0,0.0,0.0,0.0,0.0,0.0,0.0,0.0,0.0,0.0,0.0,0.0,0.0,0.0,0.0,0.0,0.0,0.0,0.0,0.0,0.0,0.0,0.0,0.0,0.0,0.0,0.0,0.0,0.0,0.0,0.0,0.0,0.0,0.0,0.0,0.0,0.0,0.0,0.0,0.0,0.0,0.0,0.0,0.0,0.0,0.0,-0.0039,-0.0118,-0.0157,-0.0589,-0.1177,-0.1725,-0.2818,0.0,0.0,0.0,0.0,0.0,-0.5911,0.0,0.0,0.0,0.0,0.0,0.0,0.0,0.0,0.0,0.0,0.0,0.0,0.0,0.0,0.0,0.0,0.0,0.0,0.0,0.0,0.0,0.0,0.0,-0.7988,-0.7988,-0.7988,-0.7988,-0.7988,-0.7988,-0.7988,-0.7988,-0.7988,-0.7988,-0.7988,-0.7988,-0.7988,-0.7988,-0.7988,-0.7988,-0.7988,-0.7988,-0.7988,-0.7988,-0.7988,-0.7988,-0.7988,-0.7988,-0.7988,-0.7988,-0.7988,0.0,0.0,0.0,0.0,0.0,0.0,0.0,0.0,0.0,0.0,0.0079,0.0,0.0,0.0,0.0,0.0,0.0,0.0,0.0,0.0,0.0,0.0,0.0,0.0,0.0,0.0,0.0,0.0,0.0,0.0,0.0,0.0,0.0,0.0,0.0,0.0,0.0,0.0,0.0,0.0,0.0,0.0,0.0,0.0,0.0,0.0,0.0,0.0,0.0,0.0,0.0,0.0,0.0,0.0,-0.0118,-0.0589,-0.1137,-0.1802,-0.2699,0.0,0.0,0.0,0.0,0.0,0.0,0.0,0.0,0.0,0.0,0.0,0.0,0.0,0.0,0.0,0.0,0.0,0.0,0.0,0.0,0.0,0.0,0.0,0.0,0.0,0.0,0.0,0.0,0.0,0.0,-0.7988,-0.7988,-0.7988,-0.7988,-0.7988,-0.7988,-0.7988,-0.7988,-0.7988,-0.7988,-0.7988,-0.7988,-0.7988,-0.7988,-0.7988,-0.7988,-0.7988,-0.7988,-0.7988,-0.7988,-0.7988,-0.7988,-0.7988,-0.7988,-0.7988,-0.7988,-0.7988,0.0,0.0,0.0,0.0,0.0,0.0,0.0,0.0,0.0,0.0,0.0,0.0,0.0,0.0,0.0,0.0,0.0,0.0,0.0,0.0,0.0,0.0,0.0,0.0,0.0,0.0,0.0,0.0,0.0,0.0,0.0,0.0,0.0,0.0,0.0,0.0,0.0,0.0,0.0,0.0,0.0,0.0,0.0,0.0,0.0,0.0,0.0,0.0,0.0,0.0,0.0,0.0,0.0,0.0,-0.0236,-0.1372,-0.2309,-0.324,-0.4455,0.0,0.0,0.0,0.0,0.0,0.0,0.0,0.0,0.0,0.0,0.0,0.0,0.0,0.0,0.0,0.0,0.0,0.0,0.0,0.0,0.0,0.0,0.0,0.0,0.0,0.0,0.0,0.0,0.0,0.0,-0.7948,-0.7948,-0.7948,-0.7948,-0.7958,-0.7968,-0.7968,-0.7975,-0.7988,-0.7988,-0.7988,-0.7988,-0.7988,-0.7988,-0.7988,-0.7988,-0.7988,-0.7988,-0.7988,-0.7988,-0.7988,-0.7988,-0.7988,-0.7988,-0.7988,-0.7988,-0.7988,0.0,0.0,0.0,0.0,0.0,0.0,0.0,0.0,0.0,0.0,0.0,0.0,0.0,0.0,0.0,0.0,0.0,0.0,0.0,0.0,0.0,0.0,0.0,0.0,0.0,0.0,0.0,0.0,0.0,0.0,0.0,0.0,0.0,0.0,0.0,0.0,0.0,0.0,0.0,0.0,0.0,0.0,0.0,0.0,0.0,0.0,0.0,0.0,0.0,0.0,0.0,0.0,0.0,0.0,-0.0039,-0.0314,-0.1254,-0.231,0.0,-0.4261,0.0,0.0,0.0,0.0,0.0,0.0,0.0,0.0,0.0,0.0,0.0,0.0,0.0,0.0,0.0,0.0,0.0,0.0,0.0,0.0,0.0,0.0,0.0,0.0,0.0,0.0,0.0,0.0,-0.7349,-0.7352,-0.7451,-0.7695,-0.7695,-0.7746,-0.7858,-0.7862,-0.7919,-0.7988,-0.7988,-0.7988,-0.7988,-0.7988,-0.7988,-0.7988,-0.7988,-0.7988,-0.7988,-0.7988,-0.7988,-0.7988,-0.7988,-0.7988,-0.7988,-0.7988,-0.7988,-0.7988,0.0,0.0,0.0,0.0,0.0,0.0,0.0,0.0,0.0,0.0,0.0,0.0,0.0,0.0,0.0,0.0,0.0,0.0,0.0,0.0,0.0,0.0,0.0,0.0,0.0,0.0,0.0,0.0,0.0,0.0,0.0,0.0,0.0,0.0,0.0,0.0,0.0,0.0,0.0,0.0,0.0,0.0,0.0,0.0,0.0,0.0,0.0,0.0,0.0,0.0,0.0,0.0,0.0,0.0,-0.0118,-0.0628,-0.1255,-0.2036,0.0,0.0,0.0,0.0,0.0,0.0,0.0,0.0,0.0,0.0,0.0,0.0,0.0,0.0,0.0,0.0,0.0,0.0,0.0,0.0,0.0,0.0,0.0,0.0,0.0,0.0,0.0,0.0,0.0,-0.6864,-0.7026,-0.7076,-0.7123,-0.7268,-0.7268,-0.7304,-0.7375,-0.744,-0.7511,-0.7586,-0.7604,-0.764,-0.764,-0.7889,-0.7988,-0.7988,-0.7988,-0.7988,-0.7988,-0.7988,-0.7988,-0.7988,-0.7988,-0.7988,-0.7988,-0.7988,-0.7988,-0.7988,0.0,0.0,0.0,0.0,0.0,0.0,0.0,0.0,0.0,0.0,0.0,0.0,0.0,0.0,0.0,0.0,0.0,0.0,0.0,0.0,0.0,0.0,0.0,0.0,0.0,0.0,0.0,0.0,0.0,0.0,0.0,0.0,0.0,0.0,0.0,0.0,0.0,0.0,0.0,0.0,0.0,0.0,0.0,0.0,0.0,0.0,0.0,0.0,0.0,0.0,0.0,0.0,0.0,0.0,-0.0157,-0.1058,-0.145,-0.1958,0.0,0.0,0.0,0.0,0.0,0.0,0.0,0.0,0.0,0.0,0.0,0.0,0.0,0.0,0.0,0.0,0.0,0.0,0.0,0.0,0.0,0.0,0.0,0.0,0.0,0.0,0.0,0.0,0.0,-0.6609,-0.6768,-0.6774,-0.6774,-0.6817,-0.6817,-0.683,-0.6854,-0.6962,-0.7026,-0.7051,-0.7137,-0.7214,-0.7238,-0.7637,-0.7889,-0.7942,-0.7942,-0.7942,-0.7988,-0.7988,-0.7988,-0.7988,-0.7988,-0.7988,-0.7988,-0.7988,-0.7988,-0.7988,0.0,0.0,0.0,0.0,0.0,0.0,0.0,0.0,0.0,0.0,0.0,0.0,0.0,0.0,0.0,0.0,0.0,0.0,0.0,0.0,0.0,0.0,0.0,0.0,0.0,0.0,0.0,0.0,0.0,0.0,0.0,0.0,0.0,0.0,0.0,0.0,0.0,0.0,0.0,0.0,0.0,0.0,0.0,0.0,0.0,0.0,0.0,0.0,0.0,0.0,0.0,0.0,0.0,0.0,-0.0039,-0.0157,-0.0863,-0.1646,0.0,0.0,0.0,0.0,0.0,0.0,0.0,0.0,0.0,0.0,0.0,0.0,0.0,0.0,0.0,0.0,0.0,0.0,0.0,0.0,0.0,0.0,0.0,0.0,0.0,0.0,0.0,0.0,-0.5847,-0.5941,-0.6179,-0.6224,-0.6266,-0.6442,-0.6487,-0.6542,-0.671,-0.6728,-0.6796,-0.6919,-0.7048,-0.7122,-0.7188,-0.7288,-0.7441,-0.7646,-0.7646,-0.7793,-0.7988,-0.7988,-0.7988,-0.7988,-0.7988,-0.7988,-0.7988,-0.7988,-0.7988,-0.7988,0.0,0.0,0.0,0.0,0.0,0.0,0.0,0.0,0.0,0.0,0.0,0.0,0.0,0.0,0.0,0.0,0.0,0.0,0.0,0.0,0.0,0.0,0.0,0.0,0.0,0.0,0.0,0.0,0.0,0.0,0.0,0.0,0.0,0.0,0.0,0.0,0.0,0.0,0.0,0.0,0.0,-0.0275,-0.0667,-0.0196,-0.0314,-0.0667,-0.0157,0.0,0.0,0.0,0.0,0.0,0.0,0.0,0.0,0.0,0.0,0.0,0.0,0.0,0.0,0.0,0.0,0.0,0.0,0.0,0.0,0.0,0.0,0.0,0.0,0.0,0.0,0.0,0.0,0.0,0.0,0.0,0.0,0.0,0.0,0.0,0.0,0.0,0.0,0.0,-0.5688,-0.5733,-0.5863,-0.5863,-0.5908,-0.5994,-0.5994,-0.6067,-0.6124,-0.6236,-0.6334,-0.6464,-0.6519,-0.6611,-0.6686,-0.6686,-0.6924,-0.7391,-0.7391,-0.754,-0.7793,-0.7793,-0.7842,-0.7988,-0.7988,-0.7988,-0.7988,-0.7988,-0.7988,-0.7988,0.0,0.0,0.0,0.0,0.0,0.0,0.0,0.0,0.0,0.0,0.0,0.0,0.0,0.0,0.0,0.0,0.0,0.0,0.0,0.0,0.0,0.0,0.0,0.0,0.0,0.0,0.0,0.0,0.0,0.0,0.0,0.0,0.0,0.0,0.0,0.0,0.0,0.0,0.0,-0.004,-0.0277,-0.0755,-0.1277,-0.0878,-0.0998,-0.1237,-0.0599,-0.02,0.0,0.0,0.0,0.0,0.0,0.0,0.0,0.0,0.0,0.0,0.0,0.0,0.0,0.0,0.0,0.0,0.0,0.0,0.0,0.0,0.0,0.0,0.0,0.0,0.0,0.0,0.0,0.0,0.0,0.0,0.0,0.0,0.0,0.0,0.0,0.0,0.0,0.0,-0.5688,-0.5688,-0.5688,-0.5688,-0.5688,-0.5688,-0.5688,-0.5688,-0.5688,-0.5543,-0.555,-0.5709,-0.5425,-0.5626,-0.6222,-0.5978,-0.6285,-0.6991,-0.7077,-0.7241,-0.7494,-0.7494,-0.7593,-0.7789,-0.7789,-0.7839,-0.7892,-0.7892,-0.7939,-0.7988,0.0,0.0,0.0,0.0,0.0,0.0,0.0,0.0,0.0,0.0,0.0,0.0,0.0,0.0,0.0,0.0,0.0,0.0,0.0,0.0,0.0,0.0,0.0,0.0,0.0,0.0,0.0,0.0,0.0,0.0,0.0,0.0,0.0,0.0,0.0,0.0,0.0,0.0,0.0,-0.0081,-0.0973,-0.1355,-0.1508,-0.2385,-0.2176,-0.1382,-0.134,-0.0754,0.0,0.0,0.0,0.0,0.0,0.0,0.0,0.0,0.0,0.0,0.0,0.0,0.0,0.0,0.0,0.0,0.0,0.0,0.0,0.0,0.0,0.0,0.0,0.0,0.0,0.0,0.0,0.0,0.0,0.0,0.0,0.0,0.0,0.0,0.0,0.0,0.0,0.0,-0.5688,-0.5688,-0.5688,-0.5688,-0.5688,-0.5688,-0.5688,-0.5688,-0.5688,-0.4842,-0.4439,-0.457,-0.3602,-0.42,-0.6094,-0.5187,-0.5341,-0.6382,-0.6694,-0.6992,-0.7238,-0.7238,-0.7238,-0.7238,-0.7238,-0.7391,-0.7646,-0.7646,-0.7793,-0.7988,0.0,0.0,0.0,0.0,0.0,0.0,0.0,0.0,0.0,0.0,0.0,0.0,0.0,0.0,0.0,0.0,0.0,0.0,0.0,0.0,0.0,0.0,0.0,0.0,0.0,0.0,0.0,0.0,0.0,0.0,0.0,0.0,0.0,0.0,0.0,0.0,0.0,0.0,0.0,0.0,0.0,0.0,-0.2224,0.0,0.0,0.0,0.0,0.0,0.0,0.0,0.0,0.0,0.0,0.0,0.0,0.0,0.0,0.0,0.0,0.0,0.0,0.0,0.0,0.0,0.0,0.0,0.0,0.0,0.0,0.0,0.0,0.0,0.0,0.0,0.0,0.0,0.0,0.0,0.0,0.0,0.0,0.0,0.0,0.0,0.0,0.0,0.0,-0.5688,-0.5688,-0.5688,-0.5688,-0.5688,-0.5688,-0.5688,-0.5688,-0.5374,-0.4898,-0.439,-0.4027,-0.4253,-0.5034,-0.4055,-0.4524,-0.6159,-0.5689,-0.6072,-0.6942,-0.6942,-0.7042,-0.7188,-0.7188,-0.7238,-0.7341,-0.7341,-0.749,-0.7743,0.0,0.0,0.0,0.0,0.0,0.0,0.0,0.0,0.0,0.0,0.0,0.0,0.0,0.0,0.0,0.0,0.0,0.0,0.0,0.0,0.0,0.0,0.0,0.0,0.0,0.0,0.0,0.0,0.0,0.0,0.0,0.0,0.0,0.0,0.0,0.0,0.0,0.0,0.0,-0.0043,0.0,0.0,-0.2232,0.0,0.0,0.0,0.0,0.0,0.0,0.0,0.0,0.0,0.0,0.0,0.0,0.0,0.0,0.0,0.0,0.0,0.0,0.0,0.0,0.0,0.0,0.0,0.0,0.0,0.0,0.0,0.0,0.0,0.0,0.0,0.0,0.0,0.0,0.0,0.0,0.0,0.0,0.0,0.0,0.0,0.0,0.0,0.0,0.0,-0.4748,-0.4748,-0.4748,-0.4748,-0.4748,-0.4748,-0.4748,-0.4748,-0.4433,-0.3807,-0.3494,-0.3562,-0.3926,-0.2922,-0.3416,-0.5038,-0.4819,-0.5453,-0.6636,-0.6675,-0.6789,-0.6936,-0.6936,-0.6989,-0.7089,-0.7089,-0.7241,-0.7444,0.0,0.0,0.0,0.0,0.0,0.0,0.0,0.0,0.0,0.0,0.0,0.0,0.0,0.0,0.0,0.0,0.0,0.0,0.0,0.0,0.0,0.0,0.0,0.0,0.0,0.0,0.0,0.0,0.0,0.0,0.0,0.0,0.0,0.0,0.0,0.0,0.0,0.0,0.0,-0.0087,0.0,-0.1365,-0.1524,0.0,0.0,0.0,-0.1391,-0.0808,0.0,0.0,0.0,0.0,0.0,0.0,0.0,0.0,0.0,0.0,0.0,0.0,0.0,0.0,0.0,0.0,0.0,0.0,0.0,0.0,0.0,0.0,0.0,0.0,0.0,0.0,0.0,0.0,0.0,0.0,0.0,0.0,0.0,0.0,0.0,0.0,0.0,0.0,-0.3403,-0.2911,-0.2911,-0.2911,-0.2911,-0.2911,-0.2911,-0.2911,-0.2911,-0.2911,-0.2867,-0.2822,-0.1883,-0.1928,-0.2823,-0.1838,-0.1948,-0.304,-0.4009,-0.5094,-0.6217,-0.6333,-0.6381,-0.6381,-0.6384,-0.6539,-0.6795,-0.6795,-0.6942,-0.7188,0.0,0.0,0.0,0.0,0.0,0.0,0.0489,0.0223,0.0,0.0,0.0,0.0,0.0,0.0,0.0,0.0,0.0,0.0,0.0,0.0,0.0,0.0,0.0,0.0,0.0,0.0,0.0,0.0,0.0,0.0,0.0,0.0,0.0,0.0,0.0,0.0,0.0,0.0,0.0,0.0,-0.0267,-0.0804,0.0,0.0,0.0,0.0,0.0,-0.0808,0.0,0.0,0.0,0.0,0.0,0.0,0.0,0.0,0.0,0.0,0.0,0.0,0.0,0.0,0.0,0.0,0.0,0.0,0.0,0.0,0.0,0.0,0.0,0.0,0.0,0.0,0.0,0.0,0.0,0.0,0.0,0.0,0.0,0.0,0.0,0.0,0.0,0.0,-0.3045,-0.2911,-0.2911,-0.2911,-0.2911,-0.2911,-0.2911,-0.2911,-0.2911,-0.2911,-0.2553,-0.1793,-0.1524,-0.1524,-0.1793,-0.0808,-0.1305,-0.2892,-0.2567,-0.297,-0.4043,-0.5644,-0.6314,-0.6323,-0.6404,-0.6437,-0.6489,-0.6489,-0.6689,-0.6892,0.0,0.0,0.0,0.0,0.0,0.0403,0.0403,0.018,0.0,0.0,0.0,0.0,0.0,0.0,0.0,0.0,0.0,0.0,0.0,0.0,0.0,0.0,0.0,0.0,0.0,0.0,0.0,0.0,0.0,0.0,0.0,0.0,0.0,0.0,0.0,0.0,0.0,0.0,0.0,0.0,0.0,0.0,0.0,-0.0808,-0.0808,0.0,0.0,0.0,0.0,0.0,0.0,0.0,0.0,0.0,0.0,0.0,0.0,0.0,0.0,0.0,0.0,0.0,0.0,0.0,-0.1295,-0.1917,0.0,0.0,0.0,0.0,0.0,0.0,0.0,0.0,0.0,0.0,0.0,0.0,0.0,0.0,0.0,0.0,0.0,-0.253,-0.2278,-0.2253,-0.1902,-0.1688,-0.1703,-0.1704,-0.1704,-0.1704,-0.1704,-0.1883,-0.2285,-0.2285,-0.1973,-0.1391,-0.1391,-0.1211,-0.0808,-0.0269,-0.0629,-0.1705,-0.1589,-0.2052,-0.3106,-0.4855,-0.5595,-0.5686,-0.5696,-0.5993,-0.6387,-0.6387,-0.6487,-0.6639,0.0,0.0,0.0,0.0628,0.0493,0.0359,0.0359,0.0135,0.0,0.0,0.0,0.0,0.0,0.0,0.0,0.0,0.0,0.0,0.0,0.0,0.0,0.0,0.0,0.0,0.0,0.0,0.0,0.0,0.0,0.0,0.0,0.0,0.0,0.0,0.0,0.0,0.0,0.0,0.0,0.0,0.0,0.0,0.0,0.0,0.0,0.0,0.0,0.0,0.0,0.0,0.0,0.0,0.0,0.0,0.0,0.0,0.0177,0.0,0.0,0.0,0.0,0.0,0.0,0.0,-0.1461,-0.1846,-0.2393,0.0,0.0,0.0,0.0,0.0,0.0,0.0,0.0,0.0,0.0,0.0,0.0,0.0,0.0,0.0,-0.2594,-0.1758,-0.1265,-0.1245,-0.0475,0.0,0.0,0.0,0.0,0.0,0.0,-0.0404,-0.1256,-0.1256,-0.1256,-0.1256,-0.1256,-0.0808,0.0,0.0,0.0,-0.0045,-0.0987,-0.1838,-0.2647,-0.3742,-0.4465,-0.4913,-0.4825,-0.5426,-0.6368,-0.6268,-0.6274,-0.6387,0.0,0.0,0.0,0.018,0.009,0.009,0.009,0.0045,0.0,0.0,0.0,0.0,0.0,0.0,0.0,0.0,0.0,0.0,0.0,0.0,0.0,0.0,0.0,0.0,0.0,0.0,0.0,0.0,0.0,0.0,0.0,0.0,0.0,0.0,0.0,0.0,0.0,0.0,0.0,0.0,0.0,0.0,0.0,0.0,0.0,0.0,0.0,0.0,0.0,0.0,0.0,0.0,0.0,0.0,0.0,0.0,0.0,0.0,0.0,0.0,0.0,0.0,0.0,0.0,0.0406,0.0242,-0.0161,0.0,0.0,0.0,0.0,0.0,0.0,0.0,0.0,0.0,0.0,0.0,0.0,0.0,0.0,0.0,-0.0574,-0.0369,-0.0285,-0.0281,-0.0083,0.0,0.0,0.0,0.0,0.0,0.0,-0.009,-0.0269,-0.0269,-0.0269,-0.0269,-0.0269,-0.018,0.0,0.0,0.0,-0.0045,-0.0987,-0.1077,-0.0629,-0.1621,-0.3471,-0.5609,-0.4989,-0.5372,-0.6203,-0.5412,-0.5661,-0.6387,0.0,0.0,0.0,0.0718,0.0314,0.0,0.0,0.0,0.0,0.0,0.0,0.0,0.0,0.0,0.0,0.0,0.0,0.0,0.0,0.0,0.0,0.0,0.0,0.0,0.0,0.0,0.0,0.0,0.0,0.0,0.0,0.0,0.0,0.0,0.0,0.0,0.0,0.0,0.0,0.0,0.0,0.0,0.0,0.0,0.0,0.0,0.0,0.0,0.0,0.0,0.0,0.0,0.0,0.009,0.018,0.0,0.0449,0.0762,0.0,0.0,0.0,0.1177,0.0,0.0,0.0,0.0287,-0.0081,-0.0999,0.0,0.0,0.0,0.0,0.0,0.0,0.0,0.0,0.0,0.0,0.0,0.0,0.0,0.0,0.0,0.0,0.0,0.0,0.0,0.0,0.0,0.0,0.0,0.0,0.0,0.0,0.0,0.0,0.0,0.0,0.0,0.0,0.0,0.0,0.0,-0.0045,-0.0494,-0.0718,-0.0718,-0.1211,-0.2569,-0.4326,-0.3484,-0.4407,-0.604,-0.4536,-0.502,-0.6262,0.3445,0.0,0.0,0.0,0.0818,0.0228,0.0046,0.0,0.0,0.0,0.0,0.0,0.0,0.0,0.0,0.0,0.0,0.0,0.0,0.0,0.0,0.0,0.0,0.0,0.0,0.0,0.0,0.0,0.0,0.0,0.0,0.0,0.0,0.0,0.0,0.0,0.0,0.0,0.0,0.0,0.0,0.0,0.0,0.0,0.0,0.0,0.0,0.0,0.0,0.0,0.0,0.009,0.009,0.0269,0.0,0.0,0.0,0.0,0.0,0.0,0.0,0.0,0.0,0.1173,0.0,0.0,0.0,-0.1015,0.0,0.0,0.0,0.0,0.0,0.0,0.0,0.0,0.0,0.0,0.0,0.0,0.0,0.0,0.0039,0.0038,0.0,0.0,0.0,0.0,0.0,0.0,0.0,0.0,0.0,0.0,0.0,0.0,0.0,0.0,0.0,0.0,0.0,0.0,0.0,0.0,-0.018,-0.0584,-0.1122,-0.1346,-0.1883,-0.2558,-0.1825,-0.3297,-0.5541,-0.3609,-0.4231,-0.584,0.472,0.3683,0.0,0.0,0.1465,0.1089,0.0142,0.0,0.0,0.0,0.0,0.0,0.0,0.0,0.0,0.0,0.0,0.0,0.0,0.0,0.0,0.0,0.0,0.0,0.0,0.0,0.0,0.0,0.0,0.0,0.0,0.0,0.0,0.0,0.0,0.0,0.0,0.0,0.0,0.0,0.0,0.0,0.0,0.0,0.0,0.0,0.0,0.0,0.0,0.0,0.018,0.0359,0.0,0.0493,0.0673,0.0,0.0,0.0,0.0,0.0,0.0,0.0,0.1385,0.0,0.0,0.0,0.1151,0.0984,0.0,0.0,0.0,0.0,0.0,0.0,0.0,0.0,0.0,0.0,0.0,0.0,0.0,0.0,0.0,0.0111,0.0,0.0,0.0,0.0,0.0,0.0,0.0,0.0,0.0,0.0,0.0,0.0,0.0,0.0,0.0,0.0,0.0,0.0,0.0,-0.0045,-0.0898,-0.0808,-0.0225,-0.1077,-0.148,-0.157,-0.1439,-0.2775,-0.4442,-0.2507,-0.3088,-0.4748,0.5538,0.4752,0.0,0.0,0.0,0.0,0.1112,0.0392,0.0,0.0,0.0,0.0,0.0,0.0,0.0,0.0,0.0,0.0,0.0,0.0,0.0,0.0,0.0,0.0,0.0,0.0,0.0,0.0,0.0,0.0,0.0,0.0,0.0,0.0,0.0,0.0,0.0,0.0,0.0,0.0,0.0,0.0,0.0,0.0,0.0,0.0,0.0,0.009,0.0224,0.0,0.0404,0.0,0.0,0.0,0.0,0.0,0.0,0.0,0.0,0.0,0.0,0.0,0.0,0.0,0.1419,0.0,0.1378,0.0,0.0,0.0,0.0,0.0,0.0,0.0,0.1061,0.0,0.0,0.0,0.0,0.0,0.0,0.0,0.0,0.0,0.0,0.0,0.011,0.0112,0.0,0.0,0.0,0.0,0.0,0.0,0.0,0.0,0.0,0.0,0.0,0.0,0.0,0.0,0.0,0.0,-0.0404,-0.0359,-0.0045,-0.0404,-0.0584,-0.0584,-0.0584,-0.1803,-0.3314,-0.138,-0.1974,-0.3663,0.5973,0.0,0.0,0.0,0.0,0.0,0.0,0.0,0.0,0.0,0.0,0.0,0.0,0.0,0.0,0.0,0.0,0.0,0.0,0.0,0.0,0.0,0.0,0.0,0.0,0.0,0.0,0.0,0.0,0.0,0.0,0.0,0.0,0.0,0.0,0.0,0.0,0.0,0.0,0.0,0.0,0.0,0.0,0.0,0.0,0.0,0.009,0.0224,0.0403,0.0448,0.0628,0.0,0.0807,0.0,0.0,0.0,0.0,0.0,0.1391,0.0,0.0,0.0,0.0,0.0,0.0,0.0,0.0,0.0,0.0,0.0,0.0,0.0,0.0,0.0,0.0,0.1061,0.0,0.0,0.0,0.0,0.0,0.0,0.0,0.0,0.0,0.0,0.0,0.022,0.0,0.0,0.0,0.0,0.0,0.0,0.0,0.0,0.0,0.0,0.0,0.0,0.0,0.0,0.0,0.0,0.0,0.0,0.0,0.0,0.0,0.0,0.0,-0.0853,-0.1931,-0.0502,-0.1068,-0.2554,0.5877,0.4321,0.0,0.0,0.0,0.0,0.0,0.0,0.0,0.0,0.0,0.0,0.0,0.0,0.0,0.0,0.0,0.0,0.0,0.0,0.0,0.0,0.0,0.0,0.0,0.0,0.0,0.0,0.0,0.0,0.0,0.0,0.0,0.0,0.0,0.0,0.0,0.0,0.0,0.0,0.0,0.0,0.0,0.0,0.0,0.0045,0.0314,0.0,0.0,0.0628,0.0852,0.0,0.0,0.0,0.0,0.0,0.0,0.0,0.0,0.0,0.0,0.1391,0.0,0.0,0.0,0.0,0.1381,0.0,0.0,0.0,0.0,0.0,0.1296,0.1296,0.1296,0.0,0.0,0.0,0.0,0.0,0.0,0.0,0.0,0.0,0.0,0.0,0.0,0.0224,0.0,0.0,0.0,0.0,0.0,0.0,0.0,0.0,0.0,0.0,0.0,0.0,0.0,0.0,0.0,0.0,0.0,0.0,0.0,0.0,0.0,0.0,0.0,-0.0045,-0.009,-0.0045,-0.0637,-0.1344,0.0,0.0,0.0,0.0,0.0,0.0,0.0,0.0454,0.0,0.0,0.0,0.0,0.0,0.0,0.0,0.0,0.0,0.0,0.0,0.0,0.0,0.0,0.0,0.0,0.0,0.0,0.0,0.0,0.0,0.0,0.0,0.0,0.0,0.0,0.0,0.0,0.0,0.0,0.0,0.0,0.0,0.0,0.0,0.0,0.009,0.0269,0.0359,0.0583,0.0,0.0942,0.1121,0.13,0.13,0.1345,0.1391,0.1391,0.1391,0.1391,0.0,0.0,0.1391,0.1391,0.0,0.0,0.0,0.0,0.0,0.0,0.0,0.0,0.0,0.0,0.1296,0.1296,0.1296,0.1296,0.0,0.0,0.0,0.0,0.0,0.0,0.0,0.0,0.0,0.0,0.0,0.0,0.0,0.0,0.0,0.0,0.0,0.0,0.0,0.0,0.0,0.0,0.0,0.0,0.0,0.0,0.0,0.0,0.0,0.0,0.0,0.0,0.0,0.0,0.0,0.0,0.0,0.0,-0.0182,-0.0511,0.6232,0.0,0.0,0.0,0.0,0.0,0.0,0.0,0.0,0.0,0.0,0.0,0.0,0.0,0.0,0.0,0.0,0.0,0.0,0.0,0.0,0.0,0.0,0.0,0.0,0.0,0.0,0.0,0.0,0.0,0.0,0.0,0.0,0.0,0.0,0.0,0.0,0.0,0.0,0.0,0.0,0.0046,0.0,0.0,0.0227,0.0408,0.0,0.0852,0.1121,0.1166,0.13,0.1391,0.1391,0.1391,0.1391,0.1391,0.1391,0.1391,0.1391,0.1391,0.0,0.1391,0.1391,0.0,0.1391,0.0,0.0,0.0,0.0,0.0,0.0,0.0,0.131,0.1298,0.1296,0.1296,0.0,0.1296,0.0,0.0,0.0,0.0,0.0,0.0,0.0,0.0,0.0,0.0,0.0,0.0,0.0,0.0,0.0,0.0,0.0,0.0,0.0,0.0,0.0,0.0,0.0,0.0,0.0,0.0,0.0,0.0,0.0,0.0,0.0,0.0,0.0,0.0,0.0,0.0,0.0,-0.0094,0.0,0.0,0.0,0.0,0.1058,0.0,0.0,0.0,0.005,0.0,0.0,0.0,0.0,0.0,0.0,0.0,0.0,0.0,0.0,0.0,0.0,0.0,0.0,0.0,0.0,0.0,0.0,0.0,0.0,0.0,0.0,0.0,0.0,0.0,0.0,0.0,0.0,0.0,0.0,0.0,0.0,0.0189,0.0417,0.0417,0.0417,0.0509,0.0949,0.1121,0.1166,0.1345,0.1391,0.1391,0.1391,0.1391,0.1391,0.1391,0.1391,0.1391,0.1391,0.1391,0.1391,0.1391,0.1391,0.0,0.0,0.0,0.1391,0.0,0.0,0.0,0.0,0.0,0.0,0.1302,0.1296,0.1296,0.1296,0.0,0.0,0.0,0.0,0.0,0.0,0.0,0.0,0.0,0.0,0.0,0.0,0.0,0.0,0.0,0.0,0.0,0.0,0.0,0.0,0.0,0.0,0.0,0.0,0.0,0.0,0.0,0.0,0.0,0.0,0.0,0.0,0.0,0.0,0.0,0.0,0.0,0.0,0.0,0.7637,0.6734,0.5527,0.0,0.3316,0.2614,0.0,0.0,0.0,0.0,0.0,0.0,0.0,0.0,0.0,0.0,0.0,0.0,0.0,0.0,0.0,0.0,0.0,0.0,0.0,0.0,0.0,0.0,0.0,0.0,0.0,0.0,0.0,0.0,0.0,0.0,0.0,0.0,0.0,0.0,0.0238,0.0336,0.0,0.0,0.1003,0.1009,0.1097,0.1211,0.1345,0.1391,0.1391,0.1391,0.1391,0.1391,0.1391,0.1391,0.1391,0.1391,0.1391,0.1391,0.1391,0.1391,0.1391,0.1391,0.0,0.0,0.0,0.0,0.0,0.0,0.0,0.0,0.0,0.0,0.1296,0.0,0.0,0.0,0.0,0.1296,0.0,0.0,0.0,0.0,0.0,0.0,0.0,0.0,0.0,0.0,0.0152,0.0,0.0,0.0,0.0,0.0,0.0,0.0,0.0,0.0,0.0,0.0,0.0,0.0,0.0,0.0,0.0,0.0,0.0,0.0,0.0,0.0,0.0,0.0,0.0,0.0,0.7988,0.0,0.0,0.6074,0.0,0.0,0.2314,0.0,0.0,0.0101,0.0,0.0,0.0,0.0,0.0,0.0,0.0,0.0,0.0,0.0,0.0,0.0,0.0,0.0,0.0,0.0,0.0,0.0,0.0,0.0,0.0,0.0,0.0,0.0,0.0,0.0,0.0,0.0,0.0049,0.0196,0.0342,0.0,0.0,0.1067,0.1258,0.1303,0.1306,0.1329,0.1455,0.1455,0.1446,0.1391,0.1391,0.1391,0.1391,0.1391,0.1391,0.1391,0.1391,0.1391,0.1391,0.1391,0.1391,0.1391,0.1391,0.1391,0.1391,0.0,0.1422,0.1397,0.0,0.0,0.0,0.0,0.0,0.0,0.0,0.0,0.0,0.0,0.0,0.0,0.0,0.0,0.0,0.0,0.0,0.0,0.0,0.0,0.0191,0.0,0.0,0.0,0.0,0.0,0.0,0.0,0.0,0.0,0.0,0.0,0.0,0.0,0.0,0.0,0.0,0.0,0.0,0.0,0.0,0.0,0.0,0.0,0.0,0.0,0.0,0.0,0.0,0.0,0.0,0.0,0.0,0.1109,0.0,0.0,0.0,0.0,0.0,0.0,0.0,0.0,0.0,0.0,0.0,0.0,0.0,0.0,0.0,0.0,0.0,0.0,0.0,0.0,0.0,0.0,0.0,0.0,0.0,0.0,0.0,0.0,0.0,0.0,0.0152,0.0404,0.0455,0.075,0.1183,0.1232,0.1366,0.149,0.149,0.1516,0.1486,0.1482,0.1463,0.1395,0.1392,0.1391,0.1391,0.1391,0.1391,0.1391,0.1391,0.1391,0.1391,0.1391,0.1391,0.1391,0.1391,0.1391,0.1391,0.1391,0.1391,0.1374,0.1321,0.0,0.0,0.0,0.0,0.0,0.0,0.0,0.0,0.0,0.0,0.0,0.0,0.0,0.0,0.0,0.0,0.0,0.0,0.0,0.023,0.0039,0.0,0.0,0.0,0.0,0.0,0.0,0.0,0.0,0.0,0.0,0.0,0.0,0.0,0.0,0.0,0.0,0.0,0.0,0.0,0.0,0.0,0.0,0.0,0.0,0.0,0.0,0.0,0.0,0.0,0.4216,0.3715,0.2514,0.126,0.0151,0.0,0.0,0.0,0.0,0.0,0.0,0.0,0.0,0.0,0.0,0.0,0.0,0.0,0.0,0.0,0.0,0.0,0.0,0.0,0.0,0.0,0.0,0.0,0.0,0.0,0.0,0.0,0.0,0.0,0.0404,0.0657,0.0907,0.1207,0.1458,0.1556,0.16,0.16,0.1565,0.1514,0.1489,0.1477,0.1468,0.1398,0.1391,0.1391,0.1391,0.1391,0.1391,0.1391,0.1391,0.1391,0.1391,0.1391,0.1391,0.1391,0.1391,0.1391,0.1391,0.1391,0.138,0.1389,0.0,0.0,0.0,0.0,0.0,0.0,0.0,0.0,0.0,0.0,0.0,0.0,0.0,0.0,0.0,0.0,0.0,0.0,0.0,0.0469,0.0,0.0082,0.0,0.0,0.0,0.0,0.0,0.0,0.0,0.0,0.0,0.0,0.0,0.0,0.0,0.0,0.0,0.0,0.0,0.0,0.0,0.0,0.0,0.0,0.0,0.0,0.0,0.0,0.0,0.0,0.0,0.0,0.3547,0.0,0.0253,0.0,0.0,0.0,0.0,0.0,0.0,0.0,0.0,0.0,0.0,0.0,0.0,0.0,0.0,0.0,0.0,0.0,0.0,0.0,0.0,0.0807,0.0,0.0,0.0,0.0,0.0,0.0,0.0,0.0,0.0606,0.0909,0.1162,0.1415,0.1566,0.1617,0.1617,0.1617,0.1598,0.1568,0.1538,0.1517,0.1499,0.1468,0.1459,0.1456,0.1395,0.1391,0.1391,0.1391,0.1391,0.1391,0.1391,0.1391,0.1391,0.1391,0.1391,0.1391,0.1391,0.1391,0.1381,0.1395,0.1355,0.0,0.0,0.0,0.0,0.0,0.0,0.0,0.0,0.0,0.0,0.0,0.0,0.0,0.0,0.0,0.0,0.0,0.0,0.0671,0.0,0.0,0.0,0.0379,0.0,0.0221,0.0221,0.0045,0.0,0.0,0.0,0.0,0.0,0.0,0.0,0.0,0.0,0.0,0.0,0.0,0.0,0.0,0.0,0.0,0.0,0.0,0.7793,0.0,0.0,0.6305,0.0,0.5262,0.4213,0.2687,0.0611,0.0357,0.0306,0.0051,0.0,0.0,0.0,0.0,0.0,0.0,0.0,0.0,0.0,0.0,0.0,0.0,0.0,0.0,0.0,0.0,0.0,0.0,0.0,0.0,0.0,0.0,0.0,0.0,0.0,0.0556,0.0808,0.1111,0.1364,0.1617,0.1617,0.1617,0.1617,0.1617,0.1617,0.1613,0.159,0.1561,0.153,0.15,0.1486,0.1476,0.1452,0.1395,0.1391,0.1391,0.1391,0.1391,0.1391,0.1391,0.1391,0.1391,0.1391,0.1391,0.1391,0.1391,0.1383,0.1403,0.1376,0.0,0.0,0.0,0.0,0.0,0.0,0.0,0.0,0.0,0.0,0.0,0.0,0.0,0.0,0.0,0.0,0.0982,0.0,0.0,0.0,0.0,0.0709,0.0691,0.0,0.0441,0.0401,0.0179,0.0045,0.0,0.0,0.0,0.0,0.0,0.0,0.0,0.0,0.0,0.0,0.0,0.0,0.0,0.0,0.0,0.0,0.0,0.0,0.0,0.0,0.0,0.0,0.5364,0.4348,0.3055,0.1658,0.1572,0.1218,0.0106,0.0,0.0,0.0,0.0,0.0,0.0,0.0,0.0,0.0,0.0,0.0,0.0,0.0,0.0,0.0,0.0,0.0555,0.0,0.0,0.0,0.0,0.0,0.0,0.0,0.0303,0.0556,0.0808,0.1111,0.1364,0.1617,0.1617,0.1617,0.1617,0.1617,0.1617,0.1616,0.1613,0.1592,0.1562,0.1531,0.1503,0.148,0.1477,0.1457,0.1391,0.1391,0.1391,0.1391,0.1391,0.1391,0.1391,0.1391,0.1391,0.1391,0.1391,0.1391,0.139,0.1387,0.1406,0.1377,0.0,0.0,0.0,0.0,0.0,0.0,0.0,0.0,0.0,0.0,0.1296,0.0,0.0,0.0,0.0,0.0,0.0,0.0,0.0976,0.0789,0.0715,0.0718,0.0702,0.0577,0.0393,0.0356,0.0224,0.0,0.0,0.0,0.0,0.0,0.0,0.0,0.0,0.0,0.0,0.0,0.0,0.0,0.0,0.0,0.0,0.0,0.0,0.0,0.0,0.0,0.0,0.0,0.5386,0.409,0.2834,0.2184,0.133,0.0107,0.0,0.0,0.0,0.0,0.0,0.0,0.0,0.0,0.0,0.0,0.0,0.0,0.0,0.0,0.0,0.0,0.0,0.0,0.0,0.0,0.0,0.0,0.0101,0.0253,0.0505,0.0808,0.1061,0.1314,0.1516,0.1617,0.1617,0.1617,0.1617,0.1617,0.1617,0.1617,0.1617,0.1609,0.1594,0.1563,0.1545,0.1575,0.1491,0.1472,0.1459,0.1395,0.1391,0.1391,0.1391,0.1391,0.1391,0.1391,0.1391,0.1391,0.1391,0.1391,0.1391,0.1391,0.1381,0.1408,0.1378,0.0,0.0,0.0,0.0,0.0,0.0,0.0,0.0,0.0,0.0,0.0,0.0,0.0,0.0,0.0,0.0,0.0,0.1162,0.0,0.1066,0.1137,0.0979,0.0893,0.0798,0.067,0.0807,0.1255,0.0538,0.0135,0.0,0.0,0.0,0.0,0.0,0.0,0.0,0.0,0.0,0.0,0.0,0.0,0.0,0.8482,0.0,0.8118,0.0,0.7728,0.7381,0.7381,0.657,0.5492,0.4282,0.3044,0.1728,0.0162,0.0,0.0,0.0,0.0,0.0,0.0,0.0,0.0,0.0,0.0,0.0,0.0,0.0,0.0,0.0,0.1059,0.0,0.0,0.0,0.0,0.0,0.0404,0.0202,0.0404,0.0758,0.101,0.1212,0.1516,0.1617,0.1617,0.1617,0.1617,0.1617,0.1617,0.1617,0.1617,0.1617,0.1617,0.1613,0.1592,0.1579,0.1612,0.152,0.1495,0.1476,0.1455,0.1397,0.1391,0.1391,0.1391,0.1391,0.1391,0.1391,0.1391,0.1391,0.1391,0.1391,0.1391,0.1391,0.1381,0.1395,0.0,0.0,0.0,0.0,0.0,0.0,0.1296,0.1296,0.1296,0.0,0.0,0.0,0.0,0.0,0.0,0.0,0.0,0.0,0.0,0.0,0.139,0.1569,0.1569,0.1524,0.1612,0.1969,0.2504,0.1611,0.1121,0.0942,0.0903,0.086,0.0861,0.0601,0.0466,0.0421,0.0143,0.0,0.0,0.0,0.0049,0.0099,0.8482,0.8272,0.8118,0.8118,0.7965,0.7894,0.7894,0.7682,0.7154,0.5922,0.447,0.2684,0.028,0.0,0.0,0.0,0.0,0.0,0.0,0.0,0.0,0.0,0.0,0.0,0.0,0.0,0.0,0.0,0.0,0.0,0.1613,0.0,0.1059,0.0051,0.0303,0.0404,0.0455,0.096,0.1212,0.1212,0.1516,0.1617,0.1617,0.1617,0.1617,0.1617,0.1617,0.1617,0.1617,0.1617,0.1617,0.1617,0.1616,0.1596,0.162,0.162,0.1575,0.148,0.148,0.1458,0.1391,0.1391,0.1391,0.1391,0.1391,0.1391,0.1391,0.1391,0.1391,0.1391,0.1391,0.1391,0.1381,0.1395,0.0,0.0,0.0,0.0,0.0,0.0,0.1296,0.1296,0.1296,0.0,0.0,0.0,0.0,0.0,0.0,0.0,0.0,0.1305,0.1375,0.0,0.139,0.2374,0.2732,0.2508,0.3441,0.3749,0.357,0.3306,0.3173,0.3133,0.3015,0.295,0.2909,0.198,0.157,0.1478,0.0438,0.0,0.0,0.0,0.0151,0.0404,0.8794,0.8685,0.8631,0.8631,0.8446,0.8307,0.8307,0.7401,0.6589,0.6197,0.4803,0.3576,0.2795,0.1115,0.0,0.0,0.0,0.0,0.0,0.0669,0.0767,0.0051,0.1412,0.1815,0.111,0.1815,0.2167,0.2167,0.0,0.0,0.0,0.3776,0.3323,0.2467,0.2567,0.2366,0.2066,0.2217,0.1968,0.1465,0.1566,0.1617,0.1617,0.1617,0.1617,0.1617,0.1617,0.1617,0.1617,0.1617,0.1617,0.1617,0.1617,0.161,0.1598,0.1577,0.1606,0.1582,0.1492,0.1474,0.1461,0.1395,0.1391,0.1391,0.1391,0.1391,0.1391,0.1391,0.1391,0.1391,0.1391,0.1391,0.1387,0.1378,0.1403,0.0,0.0,0.0,0.0,0.0,0.1296,0.1296,0.1296,0.1296,0.0,0.0,0.0,0.0,0.0,0.0,0.0,0.0,0.1385,0.0,0.2419,0.2732,0.3178,0.371,0.402,0.4063,0.384,0.4533,0.4379,0.3609,0.3449,0.3387,0.3391,0.2886,0.2668,0.2625,0.1687,0.135,0.1301,0.0756,0.0606,0.0657,0.8885,0.8885,0.8885,0.8885,0.8768,0.8654,0.8654,0.7759,0.7141,0.7141,0.5804,0.4856,0.4856,0.285,0.0,0.0712,0.1093,0.0972,0.0053,0.1041,0.1341,0.0612,0.1872,0.2469,0.2217,0.2871,0.0,0.3224,0.3879,0.4381,0.4784,0.4479,0.4074,0.362,0.382,0.372,0.337,0.3071,0.2671,0.217,0.1768,0.1617,0.1617,0.1617,0.1617,0.1617,0.1617,0.1617,0.1617,0.1617,0.1617,0.1617,0.1617,0.1617,0.1613,0.1594,0.1581,0.1612,0.1572,0.1506,0.1491,0.146,0.1453,0.1449,0.1393,0.1391,0.1391,0.1391,0.1391,0.1391,0.1391,0.1391,0.1391,0.1391,0.1419,0.1397,0.1325,0.0,0.0,0.0,0.0,0.0,0.0,0.1292,0.1299,0.0,0.0,0.0,0.0,0.0,0.1521,0.1909,0.1969,0.2431,0.34,0.3758,0.4249,0.4825,0.5265,0.5195,0.4698,0.5723,0.5776,0.5078,0.4946,0.4892,0.4851,0.4217,0.3956,0.3861,0.2957,0.2368,0.1967,0.1564,0.1211,0.096,0.8885,0.8885,0.8885,0.8885,0.8885,0.8885,0.8885,0.8712,0.854,0.854,0.731,0.6473,0.6473,0.5135,0.3719,0.2243,0.0,0.0,0.0374,0.1313,0.187,0.171,0.1784,0.227,0.3274,0.3374,0.3425,0.3425,0.3425,0.3927,0.4935,0.4175,0.382,0.3922,0.442,0.457,0.447,0.3725,0.3324,0.3123,0.212,0.1667,0.1617,0.1617,0.1617,0.1617,0.1617,0.1617,0.1617,0.1617,0.1617,0.1617,0.1617,0.1617,0.1617,0.1617,0.1597,0.1624,0.1621,0.1551,0.1522,0.1491,0.1482,0.1473,0.14,0.1392,0.1391,0.1391,0.1391,0.1391,0.1391,0.1391,0.1391,0.1391,0.1391,0.138,0.1394,0.0,0.0,0.0,0.0,0.0,0.1305,0.1305,0.1306,0.0,0.0,0.0,0.0,0.0,0.1871,0.2869,0.2969,0.3446,0.4376,0.5272,0.5725,0.5824,0.6905,0.692,0.6044,0.6876,0.7227,0.7234,0.7183,0.7146,0.7058,0.5839,0.5329,0.5229,0.4173,0.3171,0.2268,0.2417,0.1966,0.1313,0.0,0.0,0.8885,0.8885,0.8885,0.8885,0.8885,0.8826,0.8826,0.8826,0.8318,0.798,0.798,0.7426,0.6579,0.5328,0.4221,0.3367,0.2769,0.2917,0.2981,0.2952,0.3655,0.4186,0.4433,0.5231,0.5632,0.5632,0.5632,0.5884,0.6342,0.6137,0.6237,0.6637,0.6786,0.6484,0.5932,0.5732,0.4678,0.3173,0.2923,0.2321,0.1617,0.1617,0.1617,0.1617,0.1617,0.1617,0.1617,0.1617,0.1617,0.1617,0.1617,0.1617,0.1617,0.1617,0.1611,0.1601,0.1578,0.1566,0.1553,0.1523,0.1498,0.1479,0.1472,0.1452,0.1391,0.1391,0.1391,0.1391,0.1391,0.1391,0.1391,0.1391,0.1391,0.138,0.1394,0.139,0.138,0.0,0.1305,0.1305,0.1305,0.1305,0.1314,0.0,0.0,0.148,0.1734,0.1513,0.2178,0.3903,0.3968,0.4425,0.5361,0.5586,0.6126,0.6999,0.7379,0.7449,0.7216,0.7502,0.7664,0.7671,0.753,0.7493,0.7446,0.6924,0.6736,0.6634,0.5779,0.5277,0.4876,0.3524,0.2871,0.2621,0.8885,0.8885,0.8885,0.8885,0.8885,0.8885,0.8885,0.8885,0.8905,0.9028,0.8811,0.8735,0.8798,0.8468,0.7983,0.7368,0.6144,0.4956,0.3862,0.4107,0.427,0.4242,0.464,0.5146,0.5609,0.6113,0.6387,0.6387,0.6387,0.6539,0.6795,0.6942,0.7191,0.7596,0.7746,0.754,0.7086,0.6587,0.5732,0.4578,0.3574,0.2873,0.227,0.1768,0.1617,0.1617,0.1617,0.1617,0.1617,0.1617,0.1617,0.1617,0.1617,0.1667,0.1768,0.1768,0.1718,0.1613,0.1747,0.1692,0.1585,0.1554,0.1524,0.1498,0.1484,0.1468,0.1452,0.1393,0.1391,0.1391,0.1391,0.1391,0.1391,0.1391,0.1391,0.1385,0.1413,0.141,0.1405,0.1346,0.1344,0.1344,0.1344,0.1344,0.135,0.141,0.141,0.0,0.206,0.2106,0.2776,0.4245,0.4289,0.498,0.6478,0.6542,0.6655,0.6867,0.7432,0.7457,0.7079,0.7654,0.7916,0.787,0.7806,0.7793,0.7743,0.7494,0.7391,0.7341,0.6886,0.6132,0.5229,0.483,0.3726,0.2471,0.8885,0.8885,0.8885,0.8885,0.8885,0.8885,0.8885,0.8885,0.8991,0.919,0.9028,0.8994,0.9193,0.8795,0.8543,0.8543,0.8045,0.6818,0.4747,0.5184,0.5521,0.5506,0.5244,0.5568,0.6594,0.6476,0.6403,0.6387,0.6387,0.6539,0.6795,0.7089,0.7341,0.7596,0.7892,0.7988,0.7939,0.7036,0.6537,0.6234,0.4429,0.3475,0.3123,0.217,0.1717,0.1617,0.1617,0.1617,0.1617,0.1617,0.1617,0.1667,0.1667,0.1819,0.2071,0.2071,0.192,0.1768,0.2021,0.1869,0.1711,0.1733,0.1701,0.1621,0.1641,0.1584,0.1525,0.1494,0.1442,0.1396,0.1391,0.1391,0.1391,0.1391,0.1391,0.1391,0.1391,0.0,0.1391,0.1391,0.1391,0.1391,0.1391,0.1391,0.1391,0.1391,0.1391,0.1793,0.2644,0.2697,0.3193,0.431,0.431,0.521,0.7171,0.7463,0.7247,0.6434,0.7385,0.7408,0.6677,0.7582,0.7988,0.7988,0.7988,0.7988,0.7988,0.7743,0.7643,0.7643,0.7643,0.6537,0.5081,0.6034,0.458,0.217,0.8885,0.8885,0.8885,0.8885,0.8885,0.8885,0.8885,0.8885,0.8991,0.919,0.9028,0.8994,0.9193,0.8966,0.8826,0.8826,0.8543,0.8097,0.7429,0.6626,0.6411,0.7035,0.607,0.5903,0.6774,0.6654,0.6489,0.6387,0.6387,0.6539,0.6795,0.7089,0.7341,0.7596,0.7892,0.7988,0.7988,0.7839,0.7238,0.6387,0.6034,0.483,0.3173,0.3022,0.2371,0.1617,0.1617,0.1617,0.1617,0.1617,0.1768,0.1921,0.1921,0.2121,0.2321,0.2321,0.2321,0.227,0.2321,0.2321,0.2268,0.2263,0.2278,0.2244,0.2236,0.2065,0.1841,0.1804,0.1658,0.1466,0.1395,0.1391,0.1391,0.1391,0.1391,0.1391,0.1391,0.0,0.1391,0.1391,0.1391,0.1391,0.1391,0.1391,0.1391,0.1391,0.1391,0.148,0.1614,0.1687,0.2575,0.4404,0.4358,0.4908,0.6183,0.727,0.7681,0.7536,0.7831,0.7905,0.7756,0.7928,0.7988,0.7988,0.7988,0.7988,0.7988,0.7939,0.7942,0.7942,0.7942,0.7739,0.7335,0.6637,0.5529,0.4175,0.8885,0.8885,0.8885,0.8885,0.8885,0.8885,0.8885,0.8885,0.8991,0.919,0.9028,0.8994,0.9193,0.9025,0.8885,0.8885,0.8771,0.8657,0.8491,0.7706,0.7293,0.752,0.6899,0.6649,0.6804,0.6747,0.6657,0.6484,0.6484,0.6704,0.7042,0.7138,0.7437,0.7842,0.7939,0.7988,0.7988,0.7988,0.769,0.7188,0.6637,0.5784,0.4878,0.4275,0.3374,0.2471,0.2471,0.207,0.1617,0.1617,0.1768,0.2022,0.2022,0.2272,0.2623,0.2623,0.2623,0.2573,0.2422,0.2522,0.2573,0.2422,0.2405,0.2384,0.2408,0.2289,0.2167,0.2126,0.1882,0.1683,0.1694,0.1551,0.1455,0.1393,0.1391,0.1391,0.1391,0.1391,0.1391,0.1391,0.1391,0.1391,0.1391,0.1391,0.1391,0.1391,0.1451,0.1459,0.1459,0.2045,0.2769,0.3703,0.5343,0.6445,0.6983,0.7612,0.7884,0.7887,0.7958,0.7988,0.7988,0.7988,0.7988,0.7988,0.7988,0.7988,0.7988,0.7988,0.7988,0.7988,0.7988,0.7637,0.7089,0.6587,0.5331,0.3875,0.8885,0.8885,0.8885,0.8885,0.8885,0.8885,0.8885,0.8967,0.9028,0.9193,0.9055,0.9028,0.9197,0.9025,0.8885,0.8885,0.8885,0.8885,0.8885,0.8491,0.8103,0.7826,0.7618,0.7396,0.7057,0.7054,0.694,0.6763,0.6787,0.693,0.7136,0.7253,0.749,0.7892,0.7992,0.7988,0.7988,0.7988,0.7988,0.7939,0.7086,0.6637,0.6287,0.5479,0.4526,0.3524,0.3274,0.2672,0.1919,0.1768,0.1869,0.2122,0.2172,0.2524,0.2876,0.2876,0.2876,0.2826,0.2623,0.2725,0.2826,0.2623,0.2573,0.2563,0.2576,0.2517,0.2455,0.2411,0.2161,0.191,0.1918,0.1678,0.1483,0.1414,0.0,0.1401,0.1401,0.1395,0.1391,0.1391,0.1391,0.1391,0.1391,0.1397,0.1401,0.1401,0.1474,0.1491,0.1491,0.2512,0.3357,0.3852,0.6217,0.7485,0.7472,0.7832,0.7988,0.7988,0.7988,0.7988,0.7988,0.7988,0.7988,0.7988,0.7988,0.7988,0.7988,0.7988,0.7988,0.7988,0.7988,0.7487,0.6786,0.6786,0.5582,0.3925,0.8885,0.8885,0.8885,0.8885,0.8885,0.8885,0.8885,0.9052,0.9197,0.9207,0.92,0.9197,0.9207,0.9025,0.8885,0.8885,0.8885,0.8885,0.8885,0.8881,0.8712,0.8429,0.8143,0.7913,0.7831,0.7828,0.76,0.715,0.7349,0.7286,0.7021,0.7406,0.7596,0.7646,0.7892,0.7988,0.7988,0.7988,0.7988,0.7988,0.7889,0.7288,0.6387,0.6337,0.5629,0.4574,0.3574,0.3173,0.2973,0.2222,0.2171,0.2422,0.2675,0.2927,0.318,0.318,0.318,0.318,0.313,0.318,0.318,0.313,0.313,0.3128,0.3124,0.2971,0.2754,0.2752,0.2351,0.1998,0.1911,0.1665,0.1475,0.1473,0.0,0.0,0.1477,0.1453,0.1391,0.1391,0.1391,0.1391,0.1391,0.1461,0.1477,0.1477,0.1506,0.1523,0.1523,0.2564,0.4085,0.6106,0.6358,0.6505,0.652,0.7484,0.7988,0.7988,0.7988,0.7988,0.7988,0.7988,0.7988,0.7988,0.7988,0.7988,0.7988,0.7988,0.7988,0.7988,0.7988,0.7939,0.7889,0.7889,0.7135,0.6034,0.8885,0.8885,0.8885,0.8885,0.8885,0.8885,0.8885,0.8984,0.9022,0.9022,0.9022,0.9022,0.9022,0.8971,0.8885,0.8885,0.8885,0.8885,0.8885,0.8885,0.8768,0.8484,0.8152,0.7965,0.7968,0.7968,0.7847,0.7657,0.7583,0.758,0.7542,0.761,0.7696,0.7842,0.7939,0.7988,0.7988,0.7988,0.7988,0.7988,0.7988,0.7739,0.7388,0.7388,0.6734,0.5629,0.4576,0.3775,0.3074,0.207,0.192,0.2222,0.2472,0.2725,0.2977,0.313,0.318,0.318,0.318,0.318,0.318,0.318,0.318,0.318,0.318,0.313,0.3073,0.3051,0.2747,0.2483,0.2484,0.2232,0.2031,0.2007,0.0,0.1737,0.1762,0.1563,0.1463,0.1463,0.1463,0.1471,0.1443,0.1502,0.1509,0.1509,0.2158,0.2569,0.2569,0.4237,0.5839,0.7335,0.7387,0.7384,0.7388,0.7789,0.7988,0.7988,0.7988,0.7988,0.7988,0.7988,0.7988,0.7988,0.7988,0.7988,0.7988,0.7988,0.7988,0.7988,0.7988,0.7988,0.7939,0.7238,0.6736,0.6234,0.8885,0.8885,0.8885,0.8885,0.8885,0.8885,0.8885,0.8977,0.8991,0.8888,0.8977,0.8988,0.8888,0.8885,0.8885,0.8885,0.8885,0.8885,0.8885,0.8885,0.8826,0.8654,0.8377,0.8269,0.8269,0.8269,0.8222,0.8067,0.7943,0.7913,0.7914,0.7781,0.7842,0.7988,0.7988,0.7988,0.7988,0.7988,0.7988,0.7988,0.7988,0.7988,0.7988,0.7988,0.7537,0.6786,0.5679,0.4828,0.4076,0.3173,0.2774,0.2676,0.3026,0.3026,0.2977,0.313,0.318,0.318,0.318,0.318,0.318,0.318,0.318,0.318,0.318,0.318,0.318,0.318,0.2977,0.2815,0.2778,0.2573,0.2365,0.2336,0.2174,0.2012,0.1938,0.1735,0.1588,0.1495,0.1495,0.1503,0.1477,0.1535,0.154,0.154,0.2592,0.3506,0.4146,0.5594,0.6886,0.7988,0.7988,0.7988,0.7988,0.7988,0.7988,0.7988,0.7988,0.7988,0.7988,0.7988,0.7988,0.7988,0.7988,0.7988,0.7988,0.7988,0.7988,0.7988,0.7988,0.7988,0.7889,0.7185,0.6886,0.6731,0.8885,0.8885,0.8885,0.8885,0.8885,0.8885,0.8885,0.9059,0.91,0.8902,0.9062,0.9096,0.8898,0.8885,0.8885,0.8885,0.8885,0.8885,0.8885,0.8885,0.8885,0.8885,0.8885,0.8885,0.8885,0.8885,0.8768,0.8484,0.8521,0.8325,0.8006,0.7978,0.7988,0.7988,0.7988,0.7988,0.7988,0.7988,0.7988,0.7988,0.7988,0.7988,0.7988,0.7988,0.7988,0.7839,0.6786,0.6387,0.6334,0.5777,0.4878,0.4083,0.4634,0.4083,0.318,0.318,0.318,0.318,0.318,0.318,0.318,0.318,0.318,0.318,0.318,0.318,0.318,0.318,0.2977,0.2826,0.2826,0.2573,0.2422,0.2422,0.2383,0.2305,0.2063,0.1932,0.1813,0.1526,0.1526,0.1526,0.1527,0.1554,0.1621,0.1621,0.2594,0.4126,0.6287,0.6437,0.6886,0.7988,0.7988,0.7988,0.7988,0.7988,0.7988,0.7988,0.7988,0.7988,0.7988,0.7988,0.7988,0.7988,0.7988,0.7988,0.7988,0.7988,0.7988,0.7988,0.7988,0.7988,0.7988,0.7988,0.7988,0.7816,0.8885,0.8885,0.8885,0.8885,0.8885,0.8885,0.8885,0.8974,0.8988,0.8888,0.8977,0.8988,0.8888,0.8885,0.8885,0.8885,0.8885,0.8885,0.8885,0.8885,0.8885,0.8885,0.8885,0.8885,0.8885,0.8885,0.8881,0.8768,0.8578,0.843,0.8371,0.8126,0.7988,0.7988,0.7988,0.7988,0.7988,0.7988,0.7988,0.7988,0.7988,0.7988,0.7988,0.7988,0.7988,0.7839,0.6786,0.6387,0.6284,0.5579,0.5129,0.478,0.458,0.393,0.318,0.318,0.318,0.318,0.318,0.318,0.318,0.318,0.318,0.318,0.318,0.318,0.318,0.318,0.313,0.3079,0.3079,0.3027,0.2977,0.2977,0.2813,0.264,0.2556,0.2392,0.2236,0.2139,0.1947,0.186,0.1836,0.1698,0.1603,0.1603,0.3313,0.5277,0.7388,0.7537,0.769,0.7988,0.7988,0.7988,0.7988,0.7988,0.7988,0.7988,0.7988,0.7988,0.7988,0.7988,0.7988,0.7988,0.7988,0.7988,0.7988,0.7988,0.7988,0.7988,0.7988,0.7988,0.7988,0.7988,0.7921,0.7823,0.8992,0.8885,0.8885,0.8885,0.8885,0.8885,0.8885,0.8885,0.8885,0.8885,0.8885,0.8885,0.8885,0.8885,0.8885,0.8885,0.8885,0.8885,0.8885,0.8885,0.8885,0.8885,0.8885,0.8885,0.8885,0.8885,0.8885,0.8885,0.8632,0.8482,0.8476,0.8177,0.7988,0.7988,0.7988,0.7988,0.7988,0.7988,0.7988,0.7988,0.7988,0.7988,0.7988,0.7988,0.7988,0.7939,0.7288,0.7086,0.7132,0.6728,0.6176,0.5527,0.478,0.393,0.318,0.318,0.318,0.318,0.318,0.318,0.318,0.318,0.318,0.318,0.318,0.318,0.318,0.318,0.318,0.318,0.318,0.318,0.318,0.318,0.3079,0.2916,0.2833,0.2678,0.2529,0.2429,0.253,0.2642,0.2622,0.2773,0.3024,0.3476,0.4678,0.6179,0.7889,0.7988,0.7988,0.7988,0.7988,0.7988,0.7988,0.7988,0.7988,0.7988,0.7988,0.7988,0.7988,0.7988,0.7988,0.7988,0.7988,0.7988,0.7988,0.7988,0.7988,0.7988,0.7988,0.7988,0.7988,0.7988,0.7894,0.7801,0.932,0.9047,0.9047,0.8937,0.8885,0.8885,0.8885,0.8885,0.8885,0.8885,0.8885,0.8885,0.8885,0.8885,0.8885,0.8885,0.8885,0.8885,0.8885,0.8885,0.8885,0.8885,0.8885,0.8885,0.8885,0.8885,0.8885,0.8885,0.8632,0.8482,0.8476,0.8177,0.7988,0.7988,0.7988,0.7988,0.7988,0.7988,0.7988,0.7988,0.7988,0.7988,0.7988,0.7988,0.7988,0.7988,0.8038,0.8187,0.8432,0.8726,0.7822,0.6373,0.5381,0.4282,0.3331,0.3331,0.3281,0.318,0.318,0.318,0.318,0.318,0.318,0.318,0.318,0.318,0.318,0.318,0.318,0.318,0.318,0.318,0.318,0.318,0.318,0.313,0.2876,0.2826,0.2775,0.2622,0.3176,0.3629,0.3778,0.4427,0.5277,0.6337,0.6387,0.6886,0.7939,0.7988,0.7988,0.7988,0.7988,0.7988,0.7988,0.7988,0.7988,0.7988,0.7988,0.7988,0.7988,0.7988,0.7988,0.7988,0.7988,0.7988,0.7988,0.7988,0.7988,0.7988,0.7988,0.7988,0.7988,0.7975,0.7874,0.777,1.0566,1.0292,1.0021,0.9044,0.8885,0.8885,0.8885,0.8885,0.8885,0.8885,0.8885,0.8885,0.8885,0.8885,0.8885,0.8885,0.8885,0.8885,0.8885,0.8885,0.8885,0.8885,0.8885,0.8885,0.8885,0.8885,0.8885,0.8885,0.8632,0.8482,0.8476,0.8177,0.7988,0.7988,0.7988,0.7988,0.7988,0.7988,0.7988,0.7988,0.7988,0.7988,0.7988,0.7988,0.7988,0.8038,0.8233,0.8333,0.8482,0.8931,0.8478,0.7624,0.7375,0.5979,0.4433,0.4433,0.3883,0.318,0.318,0.318,0.318,0.318,0.318,0.318,0.318,0.318,0.318,0.318,0.318,0.318,0.318,0.318,0.318,0.318,0.318,0.318,0.313,0.313,0.338,0.4182,0.3528,0.3629,0.5329,0.5279,0.5479,0.6337,0.6387,0.6886,0.7939,0.7988,0.7988,0.7988,0.7988,0.7988,0.7988,0.7988,0.7988,0.7988,0.7988,0.7988,0.7988,0.7988,0.7988,0.7988,0.7988,0.7988,0.7988,0.7988,0.7988,0.7988,0.7988,0.7988,0.7975,0.7906,0.777,0.7607,1.1764,1.1487,1.1328,1.068,1.0135,0.975,0.975,0.9265,0.8885,0.8885,0.8885,0.8885,0.8885,0.8885,0.8885,0.8885,0.8885,0.8885,0.8885,0.8885,0.8885,0.8885,0.8885,0.8885,0.8885,0.8885,0.8885,0.8885,0.8632,0.8482,0.8476,0.8177,0.7988,0.7988,0.7988,0.7988,0.7988,0.7988,0.7988,0.7988,0.7988,0.7988,0.7988,0.7988,0.8088,0.8187,0.8333,0.8581,0.8832,0.9232,0.8775,0.8021,0.8021,0.6874,0.5579,0.5579,0.5179,0.463,0.4083,0.3982,0.3833,0.3331,0.318,0.318,0.318,0.318,0.318,0.318,0.318,0.318,0.318,0.318,0.318,0.318,0.318,0.318,0.318,0.318,0.3581,0.4684,0.4531,0.5129,0.7126,0.6977,0.688,0.7335,0.7235,0.7388,0.7988,0.7988,0.7988,0.7988,0.7988,0.7988,0.7988,0.7988,0.7988,0.7988,0.7988,0.7988,0.7988,0.7988,0.7988,0.7988,0.7988,0.7988,0.7988,0.7988,0.7988,0.7988,0.7988,0.7988,0.7971,0.7868,0.7675,0.7458,1.296,1.2689,1.2635,1.2417,1.1596,1.1,1.1,0.997,0.921,0.921,0.9047,0.8885,0.8885,0.8885,0.8885,0.8885,0.8885,0.8885,0.8885,0.8885,0.8885,0.8885,0.8885,0.8885,0.8885,0.8885,0.8885,0.8885,0.8659,0.8509,0.8476,0.8204,0.8015,0.7988,0.7988,0.7988,0.7988,0.7988,0.7988,0.7988,0.7988,0.7988,0.7988,0.8038,0.8187,0.8432,0.8482,0.8832,0.9282,0.9529,0.9023,0.8273,0.8273,0.7521,0.6672,0.6672,0.6523,0.6224,0.5331,0.5083,0.4883,0.3982,0.3731,0.3681,0.3531,0.3331,0.318,0.318,0.318,0.318,0.318,0.318,0.318,0.318,0.318,0.318,0.318,0.3381,0.3882,0.4933,0.5979,0.7126,0.8474,0.8528,0.8432,0.8382,0.8137,0.7988,0.7988,0.7988,0.7988,0.7988,0.7988,0.7988,0.7988,0.7988,0.7988,0.7988,0.7988,0.7988,0.7988,0.7988,0.7988,0.7988,0.7988,0.7988,0.7988,0.7988,0.7988,0.7988,0.7988,0.7975,0.7931,0.7801,0.7563,0.7312,1.4164,1.3948,1.3619,1.258,1.2254,1.2195,1.2195,1.1164,1.0457,1.0457,0.9533,0.8885,0.8885,0.8885,0.8885,0.8885,0.8885,0.8885,0.8885,0.8885,0.8885,0.8885,0.8885,0.8885,0.8885,0.8885,0.8885,0.8885,0.8764,0.8611,0.8479,0.8316,0.8167,0.7988,0.7988,0.7988,0.7988,0.7988,0.7988,0.7988,0.7988,0.7988,0.8038,0.8237,0.8382,0.8482,0.8931,0.9282,0.9529,0.9579,0.9525,0.9377,0.9377,0.8623,0.7773,0.7773,0.7123,0.6373,0.6224,0.6174,0.6174,0.6024,0.5974,0.5727,0.4782,0.3883,0.318,0.318,0.318,0.318,0.318,0.318,0.318,0.318,0.318,0.318,0.318,0.3982,0.4983,0.6074,0.7925,0.8775,0.7829,0.8379,0.8627,0.8432,0.8137,0.7988,0.7988,0.7988,0.7988,0.7988,0.7988,0.7988,0.7988,0.7988,0.7988,0.7988,0.7988,0.7988,0.7988,0.7988,0.7988,0.7988,0.7988,0.7988,0.7988,0.7988,0.7988,0.7988,0.7988,0.7911,0.7811,0.7533,0.7322,0.7125,1.5719,1.5607,1.5393,1.4696,1.404,1.3609,1.3452,1.2417,1.1433,1.0781,1.0241,0.9644,0.8992,0.8885,0.8885,0.8885,0.8885,0.8885,0.8885,0.8885,0.8885,0.8885,0.8885,0.8885,0.8885,0.8885,0.8885,0.8885,0.8784,0.8676,0.8604,0.8377,0.8235,0.8163,0.8029,0.7988,0.7988,0.7988,0.7988,0.7988,0.7988,0.7988,0.7988,0.8137,0.8283,0.8482,0.8985,0.9381,0.9579,0.9579,0.9579,0.9579,0.9579,0.9274,0.8874,0.8874,0.8574,0.8071,0.7471,0.7273,0.7173,0.6573,0.6423,0.6274,0.5777,0.5329,0.463,0.343,0.318,0.318,0.318,0.318,0.3381,0.3982,0.4083,0.4282,0.4878,0.5379,0.6077,0.7173,0.8673,0.9377,0.8779,0.8878,0.8928,0.8627,0.8382,0.8137,0.7988,0.7988,0.7988,0.7988,0.7988,0.7988,0.7988,0.7988,0.7988,0.7988,0.7988,0.7988,0.7988,0.7988,0.7988,0.7988,0.7988,0.7988,0.7988,0.7988,0.7988,0.7988,0.7988,0.7847,0.7668,0.7451,0.7275,0.7095]}]]